[[{"header":{"parameterUnit":"m.s-1","parameterCategory":1,"la1":31.0,"la2":29.5877,"lo1":-88.7671,"lo2":-86.6584,"dy":0.0162,"dx":0.0185,"nx":115,"ny":88,"refTime":"2023-07-22T06:00:00:Z","depth":0,"parameterNumber":2,"parameterNumberName":"U-component_of_WINDS"},"data":[0.0,0.0,0.0,0.0,0.0,0.0,0.0,0.0,0.0,0.0,0.0,0.0,0.0,0.0,0.0,0.0,0.0,0.0,0.0,0.0,0.0,0.0,0.0,0.0,0.0,0.0,0.0,0.0,0.0,0.0,0.0,0.0,0.0,0.0,0.0,0.0,0.0,0.0,0.0,0.0,0.0,0.0,0.0,0.0,0.0,0.0,0.0,0.0,0.0,0.0,0.0,0.0,0.0,0.0,0.0,0.0,0.0,0.0,0.0,0.0,0.0,0.0,0.0,0.0,0.0,0.0,0.0,0.0,0.0,0.0,0.0,0.0,0.0,0.0,0.0,0.0,0.0,0.0,0.0,0.0,0.0,0.0,0.0,0.0,0.0,0.0,0.0,0.0,0.0,0.0,0.0,0.0,0.0,0.0,0.0,0.0,0.0,0.0,0.0,0.0,0.0,0.0,0.0,0.0,0.0,0.0,0.0,0.0,0.0,0.0,0.0,0.0,0.0,0.0,0.0,0.0,0.0,0.0,0.0,0.0,0.0,0.0,0.0,0.0,0.0,0.0,0.0,0.0,0.0,0.0,0.0,0.0,0.0,0.0,0.0,0.0,0.0,0.0,0.0,0.0,0.0,0.0,0.0,0.0,0.0,0.0,0.0,0.0,0.0,0.0,0.0,0.0,0.0,0.0,0.0,0.0,0.0,0.0,0.0,0.0,0.0,0.0,0.0,0.0,0.0,0.0,0.0,0.0,0.0,0.0,0.0,0.0,0.0,0.0,0.0,0.0,0.0,0.0,0.0,0.0,0.0,0.0,0.0,0.0,0.0,0.0,0.0,0.0,0.0,0.0,0.0,0.0,0.0,0.0,0.0,0.0,0.0,0.0,0.0,0.0,0.0,0.0,0.0,0.0,0.0,0.0,0.0,0.0,0.0,0.0,0.0,0.0,0.0,0.0,0.0,0.0,0.0,0.0,0.0,0.0,0.0,0.0,0.0,0.0,0.0,0.0,0.0,0.0,0.0,0.0,0.0,0.0,0.0,0.0,0.0,0.0,0.0,0.0,0.0,0.0,0.0,0.0,0.0,0.0,0.0,0.0,0.0,0.0,0.0,0.0,0.0,0.0,0.0,0.0,0.0,0.0,0.0,0.0,0.0,0.0,0.0,0.0,0.0,0.0,0.0,0.0,0.0,0.0,0.0,0.0,0.0,0.0,0.0,0.0,0.0,0.0,0.0,0.0,0.0,0.0,0.0,0.0,0.0,0.0,0.0,0.0,0.0,0.0,0.0,0.0,0.0,0.0,0.0,0.0,0.0,0.0,0.0,0.0,0.0,0.0,0.0,0.0,0.0,0.0,0.0,0.0,0.0,0.0,0.0,0.0,0.0,0.0,0.0,0.0,0.0,0.0,0.0,0.0,0.0,0.0,0.0,0.0,0.0,0.0,0.0,0.0,0.0,0.0,0.0,0.0,0.0,0.0,0.0,0.0,0.0,0.0,0.0,0.0,0.0,0.0,0.0,0.0,0.0,0.0,0.0,0.0,0.0,0.0,0.0,0.0,0.0,0.0,0.0,0.0,0.0,0.0,0.0,0.0,0.0,0.0,0.0,0.0,0.0,0.0,0.0,0.0,0.0,0.0,0.0,0.0,0.0,0.0,0.0,0.0,0.0,0.0,0.0,0.0,0.0,0.0,0.0,0.0,0.0,0.0,0.0,0.0,0.0,0.0,0.0,0.0,0.0,0.0,0.0,0.0,0.0,0.0,0.0,0.0,0.0,0.0,0.0,0.0,0.0,0.0,0.0,0.0,0.0,0.0,0.0,0.0,0.0,0.0,0.0,0.0,0.0,0.0,0.0,0.0,0.0,0.0,0.0,0.0,0.0,0.0,0.0,0.0,0.0,0.0,0.0,0.0,0.0,0.0,0.0,0.0,0.0,0.0,0.0,0.0,0.0,0.0,0.0,0.0,0.0,0.0,0.0,0.0,0.0,0.0,0.0,0.0,0.0,0.0,0.0,0.0,0.0,0.0,0.0,0.0,0.0,0.0,0.0,0.0,0.0,0.0,0.0,0.0,0.0,0.0,0.0,0.0,0.0,0.0,0.0,0.0,0.0,0.0,0.0,0.0,0.0,0.0,0.0,0.0,0.0,0.0,0.0,0.0,0.0,0.0,0.0,0.0,0.0,0.0,0.0,0.0,0.0,0.0,0.0,0.0,0.0,0.0,0.0,0.0,0.0,0.0,0.0,0.0,0.0,0.0,0.0,0.0,0.0,0.0,0.0,0.0,0.0,0.0,0.0,0.0,0.0,0.0,0.0,0.0,0.0,0.0,0.0,0.0,0.0,0.0,0.0,0.0,0.0,0.0,0.0,0.0,0.0,0.0,0.0,0.0,0.0,0.0,0.0,0.0,0.0,0.0,0.0,0.0,0.0,0.0,0.0,0.0,0.0,0.0,0.0,0.0,0.0,0.0,0.0,0.0,0.0,0.0,0.0,0.0,0.0,0.0,0.0,0.0,0.0,0.0,0.0,0.0,0.0,0.0,0.0,0.0,0.0,0.0,0.0,0.0,0.0,0.0,0.0,0.0,0.0,0.0,0.0,0.0,0.0,0.0,0.0,0.0,0.0,0.0,0.0,0.0,0.0,0.0,0.0,0.0,0.0,0.0,0.0,0.0,0.0,0.0,0.0,0.0,0.0,0.0,0.0,0.0,0.0,0.0,0.0,0.0,0.0,0.0,0.0,0.0,0.0,0.0,0.0,0.0,0.0,0.0,0.0,0.0,0.0,0.0,0.0,0.0,0.0,0.0,0.0,0.0,0.0,0.0,0.0,0.0,0.0,0.0,0.0,0.0,0.0,0.0,0.0,0.0,0.0,0.0,0.0,0.0,0.0,0.0,0.0,0.0,0.0,0.0,0.0,0.0,0.0,0.0,0.0,0.0,0.0,0.0,0.0,0.0,0.0,0.0,0.0,0.0,0.0,0.0,0.0,0.0,0.0,0.0,0.0,0.0,0.0,0.0,0.0,0.0,0.0,0.0,0.0,0.0,0.0,0.0,0.0,0.0,0.0,0.0,0.0,0.0,0.0,0.0,0.0,0.0,0.0,0.0,0.0,0.0,0.0,0.0,0.0,0.0,0.0,0.0,0.0,0.0,0.0,0.0,0.0,0.0,0.0,0.0,0.0,0.0,0.0,0.0,0.0,0.0,0.0,0.0,0.0,0.0,0.0,0.0,0.0,0.0,0.0,0.0,0.0,0.0,0.0,0.0,0.0,0.0,0.0,0.0,0.0,0.0,0.0,0.0,0.0,0.0,0.0,0.0,0.0,0.0,0.0,0.0,0.0,0.0,0.0,0.0,0.0,0.0,0.0,0.0,0.0,0.0,0.0,0.0,0.0,0.0,0.0,0.0,0.0,0.0,0.0,0.0,0.0,0.0,0.0,0.0,0.0,0.0,0.0,0.0,0.0,0.0,0.0,0.0,0.0,0.0,0.0,0.0,0.0,0.0,0.0,0.0,0.0,0.0,0.0,0.0,0.0,0.0,0.0,0.0,0.0,0.0,0.0,0.0,0.0,0.0,0.0,0.0,0.0,0.0,0.0,0.0,0.0,0.0,0.0,0.0,0.0,0.0,0.0,0.0,0.0,0.0,0.0,0.0,0.0,0.0,0.0,0.0,0.0,0.0,0.0,0.0,0.0,0.0,0.0,0.0,0.0,0.0,0.0,0.0,0.0,0.0,0.0,0.0,0.0,0.0,0.0,0.0,0.0,0.0,0.0,0.0,0.0,0.0,0.0,0.0,0.0,0.0,0.0,0.0,0.0,0.0,0.0,0.0,0.0,0.0,0.0,0.0,0.0,0.0,0.0,0.0,0.0,0.0,0.0,0.0,0.0,0.0,0.0,0.0,0.0,0.0,0.0,0.0,0.0,0.0,0.0,0.0,0.0,0.0,0.0,0.0,0.0,0.0,0.0,0.0,0.0,0.0,0.0,0.0,0.0,0.0,0.0,0.0,0.0,0.0,0.0,0.0,0.0,0.0,0.0,0.0,0.0,0.0,0.0,0.0,0.0,0.0,0.0,0.0,0.0,0.0,0.0,0.0,0.0,0.0,0.0,0.0,0.0,0.0,0.0,0.0,0.0,0.0,0.0,0.0,0.0,0.0,0.0,0.0,0.0,0.0,0.0,0.0,0.0,0.0,0.0,0.0,0.0,0.0,0.0,0.0,0.0,0.0,0.0,0.0,0.0,0.0,0.0,0.0,0.0,0.0,0.0,0.0,0.0,0.0,-4.0147,0.0,0.0,0.0,0.0,0.0,0.0,0.0,0.0,0.0,0.0,0.0,0.0,0.0,0.0,0.0,0.0,0.0,0.0,0.0,0.0,0.0,0.0,0.0,0.0,0.0,0.0,0.0,0.0,0.0,0.0,0.0,0.0,0.0,0.0,0.0,0.0,0.0,0.0,0.0,0.0,0.0,0.0,0.0,0.0,0.0,0.0,0.0,0.0,0.0,0.0,0.0,0.0,0.0,0.0,0.0,0.0,0.0,0.0,0.0,0.0,0.0,0.0,0.0,0.0,0.0,0.0,0.0,0.0,0.0,0.0,0.0,0.0,0.0,0.0,0.0,0.0,0.0,0.0,0.0,0.0,0.0,0.0,0.0,0.0,0.0,0.0,0.0,0.0,0.0,0.0,0.0,0.0,0.0,0.0,0.0,0.0,0.0,0.0,0.0,0.0,0.0,0.0,0.0,0.0,0.0,0.0,0.0,0.0,0.0,0.0,-4.0167,-4.0196,-4.0272,-4.0318,-4.0318,0.0,0.0,0.0,0.0,0.0,0.0,0.0,0.0,0.0,0.0,0.0,0.0,0.0,0.0,0.0,0.0,0.0,0.0,0.0,0.0,0.0,0.0,0.0,0.0,0.0,0.0,0.0,0.0,0.0,0.0,0.0,0.0,0.0,0.0,0.0,0.0,0.0,0.0,0.0,0.0,0.0,0.0,0.0,0.0,0.0,0.0,0.0,0.0,0.0,0.0,0.0,0.0,0.0,0.0,0.0,0.0,0.0,0.0,0.0,0.0,0.0,0.0,0.0,0.0,0.0,0.0,0.0,0.0,0.0,0.0,0.0,0.0,0.0,0.0,0.0,0.0,0.0,0.0,0.0,0.0,0.0,0.0,0.0,0.0,0.0,0.0,0.0,0.0,0.0,0.0,0.0,0.0,0.0,0.0,0.0,0.0,0.0,0.0,0.0,0.0,0.0,0.0,0.0,0.0,0.0,0.0,0.0,0.0,0.0,0.0,0.0,0.0,-4.0492,-4.043,-4.0455,0.0,0.0,0.0,0.0,0.0,0.0,0.0,0.0,0.0,0.0,0.0,0.0,0.0,0.0,0.0,0.0,0.0,0.0,0.0,0.0,0.0,0.0,0.0,0.0,0.0,0.0,0.0,0.0,0.0,0.0,0.0,0.0,0.0,0.0,0.0,0.0,0.0,0.0,0.0,0.0,0.0,0.0,0.0,0.0,0.0,0.0,0.0,0.0,0.0,0.0,0.0,0.0,0.0,0.0,0.0,0.0,0.0,0.0,0.0,0.0,0.0,0.0,0.0,0.0,0.0,0.0,0.0,0.0,0.0,0.0,0.0,0.0,0.0,0.0,0.0,0.0,0.0,0.0,0.0,0.0,0.0,0.0,0.0,0.0,0.0,0.0,0.0,0.0,0.0,0.0,0.0,0.0,0.0,0.0,0.0,0.0,0.0,0.0,0.0,0.0,0.0,0.0,0.0,0.0,0.0,0.0,0.0,0.0,0.0,0.0,-4.1576,-4.1566,-4.0883,0.0,-4.0586,0.0,0.0,0.0,0.0,0.0,0.0,0.0,0.0,0.0,0.0,0.0,0.0,0.0,0.0,0.0,0.0,0.0,0.0,0.0,0.0,0.0,0.0,0.0,0.0,0.0,0.0,0.0,0.0,0.0,0.0,0.0,0.0,0.0,0.0,0.0,0.0,0.0,0.0,0.0,0.0,0.0,0.0,0.0,0.0,0.0,0.0,0.0,0.0,0.0,0.0,0.0,0.0,0.0,0.0,0.0,0.0,0.0,0.0,0.0,0.0,0.0,0.0,0.0,0.0,0.0,0.0,0.0,0.0,0.0,0.0,0.0,0.0,0.0,0.0,0.0,0.0,0.0,0.0,0.0,0.0,0.0,0.0,0.0,0.0,0.0,0.0,0.0,0.0,0.0,0.0,0.0,0.0,0.0,0.0,0.0,0.0,0.0,0.0,0.0,0.0,0.0,0.0,0.0,0.0,0.0,0.0,0.0,0.0,0.0,0.0,-4.1775,-4.1819,-4.0997,-4.0581,0.0,0.0,0.0,0.0,0.0,0.0,0.0,0.0,0.0,0.0,0.0,0.0,0.0,0.0,0.0,0.0,0.0,0.0,0.0,0.0,0.0,0.0,0.0,0.0,0.0,0.0,0.0,0.0,0.0,0.0,0.0,0.0,0.0,0.0,0.0,0.0,0.0,0.0,0.0,0.0,0.0,0.0,0.0,0.0,0.0,0.0,0.0,0.0,0.0,0.0,0.0,0.0,0.0,0.0,0.0,0.0,0.0,0.0,0.0,0.0,0.0,0.0,0.0,0.0,0.0,0.0,0.0,0.0,0.0,0.0,0.0,0.0,0.0,0.0,0.0,0.0,0.0,0.0,0.0,0.0,0.0,0.0,0.0,0.0,0.0,0.0,0.0,0.0,0.0,0.0,0.0,0.0,0.0,0.0,0.0,0.0,0.0,0.0,0.0,0.0,0.0,0.0,0.0,0.0,0.0,0.0,0.0,0.0,0.0,0.0,-4.2585,-4.1979,-4.1557,-4.0956,-4.0655,-4.0718,0.0,0.0,0.0,0.0,0.0,0.0,0.0,0.0,0.0,0.0,0.0,0.0,0.0,0.0,0.0,0.0,0.0,0.0,0.0,0.0,0.0,0.0,0.0,0.0,0.0,0.0,0.0,0.0,0.0,0.0,0.0,0.0,0.0,0.0,0.0,0.0,0.0,0.0,0.0,0.0,0.0,0.0,0.0,0.0,0.0,0.0,0.0,0.0,0.0,0.0,0.0,0.0,0.0,0.0,0.0,0.0,0.0,0.0,0.0,0.0,0.0,0.0,0.0,0.0,0.0,0.0,0.0,0.0,0.0,0.0,0.0,0.0,0.0,0.0,0.0,0.0,0.0,0.0,0.0,0.0,0.0,0.0,0.0,0.0,0.0,0.0,0.0,0.0,0.0,0.0,0.0,0.0,0.0,0.0,0.0,0.0,0.0,0.0,0.0,0.0,0.0,0.0,0.0,0.0,0.0,0.0,0.0,0.0,-4.4267,-4.3477,-4.2297,-4.0836,-4.0713,-4.0718,0.0,0.0,0.0,0.0,0.0,0.0,0.0,0.0,0.0,0.0,0.0,0.0,0.0,0.0,0.0,0.0,0.0,0.0,0.0,0.0,0.0,0.0,0.0,0.0,0.0,0.0,0.0,0.0,0.0,0.0,0.0,0.0,0.0,0.0,0.0,0.0,0.0,0.0,0.0,0.0,0.0,0.0,0.0,0.0,0.0,0.0,0.0,0.0,0.0,0.0,0.0,0.0,0.0,0.0,0.0,0.0,0.0,0.0,0.0,0.0,0.0,0.0,0.0,0.0,0.0,0.0,0.0,0.0,0.0,0.0,0.0,0.0,0.0,0.0,0.0,0.0,0.0,0.0,0.0,0.0,0.0,0.0,0.0,0.0,0.0,0.0,0.0,0.0,0.0,0.0,0.0,0.0,0.0,0.0,0.0,0.0,0.0,0.0,0.0,0.0,0.0,0.0,0.0,0.0,0.0,0.0,0.0,0.0,0.0,-4.5084,-4.3871,-4.24,-4.0854,-4.0763,-4.0804,0.0,0.0,0.0,0.0,0.0,0.0,0.0,0.0,0.0,0.0,0.0,0.0,0.0,0.0,0.0,0.0,0.0,0.0,0.0,0.0,0.0,0.0,0.0,0.0,0.0,0.0,0.0,0.0,0.0,0.0,0.0,0.0,0.0,0.0,0.0,0.0,0.0,0.0,0.0,0.0,0.0,0.0,0.0,0.0,0.0,0.0,0.0,0.0,0.0,0.0,0.0,0.0,0.0,0.0,0.0,0.0,0.0,0.0,0.0,0.0,0.0,0.0,0.0,0.0,0.0,0.0,0.0,0.0,0.0,0.0,0.0,0.0,0.0,0.0,0.0,0.0,0.0,0.0,0.0,0.0,0.0,0.0,0.0,0.0,0.0,0.0,0.0,0.0,0.0,0.0,0.0,0.0,0.0,0.0,0.0,0.0,0.0,0.0,0.0,0.0,0.0,0.0,0.0,0.0,0.0,0.0,0.0,0.0,0.0,-4.4789,0.0,-4.2202,-4.0889,-4.0834,-4.0853,0.0,0.0,0.0,0.0,0.0,0.0,0.0,0.0,0.0,0.0,0.0,0.0,0.0,0.0,0.0,0.0,0.0,0.0,0.0,0.0,0.0,0.0,0.0,0.0,0.0,0.0,0.0,0.0,0.0,0.0,0.0,0.0,0.0,0.0,0.0,0.0,0.0,0.0,0.0,0.0,0.0,0.0,0.0,0.0,0.0,0.0,0.0,0.0,0.0,0.0,0.0,0.0,0.0,0.0,0.0,0.0,0.0,0.0,0.0,0.0,0.0,0.0,0.0,0.0,0.0,0.0,0.0,0.0,0.0,0.0,0.0,0.0,0.0,0.0,0.0,0.0,0.0,0.0,0.0,0.0,0.0,0.0,0.0,0.0,0.0,0.0,0.0,0.0,0.0,0.0,0.0,0.0,0.0,0.0,0.0,0.0,0.0,0.0,0.0,0.0,0.0,0.0,0.0,0.0,0.0,0.0,0.0,0.0,-4.315,-4.3204,-4.2518,-4.1716,-4.0846,-4.0859,-4.0941,0.0,0.0,0.0,0.0,0.0,0.0,0.0,0.0,0.0,0.0,0.0,0.0,0.0,0.0,0.0,0.0,0.0,0.0,0.0,0.0,0.0,0.0,0.0,0.0,0.0,0.0,0.0,0.0,0.0,0.0,0.0,0.0,0.0,0.0,0.0,0.0,0.0,0.0,0.0,0.0,0.0,0.0,0.0,0.0,0.0,0.0,0.0,0.0,0.0,0.0,0.0,0.0,0.0,0.0,0.0,0.0,0.0,0.0,0.0,0.0,0.0,0.0,0.0,0.0,0.0,0.0,0.0,0.0,0.0,0.0,0.0,0.0,0.0,0.0,0.0,0.0,0.0,0.0,0.0,0.0,0.0,0.0,0.0,0.0,0.0,0.0,0.0,0.0,0.0,0.0,0.0,0.0,0.0,0.0,0.0,0.0,0.0,0.0,0.0,0.0,0.0,0.0,0.0,0.0,0.0,0.0,0.0,0.0,0.0,-4.3247,-4.2505,-4.1709,-4.0911,-4.0888,-4.0926,0.0,0.0,0.0,0.0,0.0,0.0,0.0,0.0,0.0,0.0,0.0,0.0,0.0,0.0,0.0,0.0,0.0,0.0,0.0,0.0,0.0,0.0,0.0,0.0,0.0,0.0,0.0,0.0,0.0,0.0,0.0,0.0,0.0,0.0,0.0,0.0,0.0,0.0,0.0,0.0,0.0,0.0,0.0,0.0,0.0,0.0,0.0,0.0,0.0,0.0,0.0,0.0,0.0,0.0,0.0,0.0,0.0,0.0,0.0,0.0,0.0,0.0,0.0,0.0,0.0,0.0,0.0,0.0,0.0,0.0,0.0,0.0,0.0,0.0,0.0,0.0,0.0,0.0,0.0,0.0,0.0,0.0,0.0,0.0,0.0,0.0,0.0,0.0,0.0,0.0,0.0,0.0,0.0,0.0,0.0,0.0,0.0,0.0,0.0,0.0,0.0,0.0,0.0,0.0,0.0,0.0,0.0,0.0,0.0,-4.2889,-4.2069,-4.1413,-4.0898,-4.0917,-4.0956,-4.0995,0.0,0.0,0.0,0.0,0.0,0.0,0.0,0.0,0.0,0.0,0.0,0.0,0.0,0.0,0.0,0.0,0.0,0.0,0.0,0.0,0.0,0.0,0.0,0.0,0.0,0.0,0.0,0.0,0.0,0.0,0.0,0.0,0.0,0.0,0.0,0.0,0.0,0.0,0.0,0.0,0.0,0.0,0.0,0.0,0.0,0.0,0.0,0.0,0.0,0.0,0.0,0.0,0.0,0.0,0.0,0.0,0.0,0.0,0.0,0.0,0.0,0.0,0.0,0.0,0.0,0.0,0.0,0.0,0.0,0.0,0.0,0.0,0.0,0.0,0.0,0.0,0.0,0.0,0.0,0.0,0.0,0.0,0.0,0.0,0.0,0.0,0.0,0.0,0.0,0.0,0.0,0.0,0.0,0.0,0.0,0.0,0.0,0.0,0.0,0.0,0.0,0.0,0.0,0.0,0.0,0.0,0.0,0.0,-4.2207,-4.1353,-4.0903,-4.0907,-4.0956,-4.0995,0.0,0.0,0.0,0.0,0.0,0.0,0.0,0.0,0.0,0.0,0.0,0.0,0.0,0.0,0.0,0.0,0.0,0.0,0.0,0.0,0.0,0.0,0.0,0.0,0.0,0.0,0.0,0.0,0.0,0.0,0.0,0.0,0.0,0.0,0.0,0.0,0.0,0.0,0.0,0.0,0.0,0.0,0.0,0.0,0.0,0.0,0.0,0.0,0.0,0.0,0.0,0.0,0.0,0.0,0.0,0.0,0.0,0.0,0.0,0.0,0.0,0.0,0.0,0.0,0.0,0.0,0.0,0.0,0.0,0.0,0.0,0.0,0.0,0.0,0.0,0.0,0.0,0.0,0.0,0.0,0.0,0.0,0.0,0.0,0.0,0.0,0.0,0.0,0.0,0.0,0.0,0.0,0.0,0.0,0.0,0.0,0.0,0.0,0.0,0.0,0.0,0.0,0.0,0.0,0.0,0.0,0.0,0.0,0.0,-4.2188,-4.1393,-4.0969,-4.0978,-4.098,-4.099,0.0,0.0,0.0,0.0,0.0,0.0,0.0,0.0,0.0,0.0,0.0,0.0,0.0,0.0,0.0,0.0,0.0,0.0,0.0,0.0,0.0,0.0,0.0,0.0,0.0,0.0,0.0,0.0,0.0,0.0,0.0,0.0,0.0,0.0,0.0,0.0,0.0,0.0,0.0,0.0,0.0,0.0,0.0,0.0,0.0,0.0,0.0,0.0,0.0,0.0,0.0,0.0,0.0,0.0,0.0,0.0,0.0,0.0,0.0,0.0,0.0,0.0,0.0,0.0,0.0,0.0,0.0,0.0,0.0,0.0,0.0,0.0,0.0,0.0,0.0,0.0,0.0,0.0,0.0,0.0,0.0,0.0,0.0,0.0,0.0,0.0,0.0,0.0,0.0,0.0,0.0,0.0,0.0,0.0,0.0,0.0,0.0,0.0,0.0,0.0,0.0,0.0,0.0,0.0,0.0,0.0,0.0,0.0,-4.2034,-4.1699,-4.1244,-4.098,-4.0984,-4.0986,-4.101,0.0,0.0,0.0,0.0,0.0,0.0,0.0,0.0,0.0,0.0,0.0,0.0,0.0,0.0,0.0,0.0,0.0,0.0,0.0,0.0,0.0,0.0,0.0,0.0,0.0,0.0,0.0,0.0,0.0,0.0,0.0,0.0,0.0,0.0,0.0,0.0,0.0,0.0,0.0,0.0,0.0,0.0,0.0,0.0,0.0,0.0,0.0,0.0,0.0,0.0,0.0,0.0,0.0,0.0,0.0,0.0,0.0,0.0,0.0,0.0,0.0,0.0,0.0,0.0,0.0,0.0,0.0,0.0,0.0,0.0,0.0,0.0,0.0,0.0,0.0,0.0,0.0,0.0,0.0,0.0,0.0,0.0,0.0,0.0,0.0,0.0,0.0,0.0,0.0,0.0,0.0,0.0,0.0,0.0,0.0,0.0,0.0,0.0,0.0,0.0,0.0,0.0,0.0,0.0,0.0,0.0,0.0,0.0,-4.1737,-4.1025,-4.0991,-4.0977,-4.099,-4.1013,-4.1028,0.0,0.0,0.0,0.0,0.0,0.0,0.0,0.0,0.0,0.0,0.0,0.0,0.0,0.0,0.0,0.0,0.0,0.0,0.0,0.0,0.0,0.0,0.0,0.0,0.0,0.0,0.0,0.0,0.0,0.0,0.0,0.0,0.0,0.0,0.0,0.0,0.0,0.0,0.0,0.0,0.0,0.0,0.0,0.0,0.0,0.0,0.0,0.0,0.0,0.0,0.0,0.0,0.0,0.0,0.0,0.0,0.0,0.0,0.0,0.0,0.0,0.0,0.0,0.0,0.0,0.0,0.0,0.0,0.0,0.0,0.0,0.0,0.0,0.0,0.0,0.0,0.0,0.0,0.0,0.0,0.0,0.0,0.0,0.0,0.0,0.0,0.0,0.0,0.0,0.0,0.0,0.0,0.0,0.0,0.0,0.0,0.0,0.0,0.0,0.0,0.0,0.0,0.0,0.0,0.0,0.0,0.0,0.0,-4.1157,-4.0987,-4.0983,-4.0987,-4.099,-4.1045,-4.1083,0.0,0.0,0.0,0.0,0.0,0.0,0.0,0.0,0.0,0.0,0.0,0.0,0.0,0.0,0.0,0.0,0.0,0.0,0.0,0.0,0.0,0.0,0.0,0.0,0.0,0.0,0.0,0.0,0.0,0.0,0.0,0.0,0.0,0.0,0.0,0.0,0.0,0.0,0.0,0.0,0.0,0.0,0.0,0.0,0.0,0.0,0.0,0.0,-4.0782,0.0,0.0,0.0,0.0,0.0,0.0,0.0,0.0,0.0,0.0,0.0,0.0,0.0,0.0,0.0,0.0,0.0,0.0,0.0,0.0,0.0,0.0,0.0,0.0,0.0,0.0,0.0,0.0,0.0,0.0,0.0,0.0,0.0,0.0,0.0,0.0,0.0,0.0,0.0,0.0,0.0,0.0,0.0,0.0,0.0,0.0,0.0,0.0,0.0,0.0,0.0,0.0,0.0,0.0,0.0,0.0,0.0,0.0,0.0,-4.0988,-4.0991,-4.1026,-4.105,-4.1042,-4.1072,-4.11,0.0,0.0,0.0,0.0,0.0,0.0,0.0,0.0,0.0,0.0,0.0,0.0,0.0,0.0,0.0,0.0,0.0,0.0,0.0,0.0,0.0,0.0,0.0,0.0,0.0,0.0,0.0,0.0,0.0,0.0,0.0,0.0,0.0,0.0,0.0,0.0,0.0,0.0,0.0,0.0,0.0,0.0,0.0,0.0,0.0,0.0,0.0,0.0,0.0,0.0,0.0,0.0,0.0,0.0,0.0,0.0,0.0,0.0,0.0,0.0,0.0,0.0,0.0,0.0,0.0,0.0,0.0,0.0,0.0,0.0,0.0,0.0,0.0,0.0,0.0,0.0,0.0,0.0,0.0,0.0,0.0,0.0,0.0,0.0,0.0,0.0,0.0,0.0,0.0,0.0,0.0,0.0,0.0,0.0,0.0,0.0,0.0,0.0,0.0,0.0,0.0,0.0,0.0,0.0,0.0,0.0,0.0,-4.0975,-4.0995,-4.099,-4.107,-4.1111,-4.1113,-4.1115,-4.1117,-4.1117,0.0,0.0,0.0,0.0,0.0,0.0,0.0,0.0,0.0,0.0,0.0,0.0,0.0,0.0,0.0,0.0,0.0,0.0,0.0,0.0,0.0,0.0,0.0,0.0,0.0,0.0,0.0,0.0,0.0,0.0,0.0,0.0,0.0,0.0,0.0,0.0,0.0,0.0,-3.9438,-3.9708,0.0,0.0,0.0,0.0,0.0,0.0,0.0,0.0,-4.0859,0.0,0.0,0.0,0.0,0.0,0.0,0.0,0.0,0.0,0.0,0.0,0.0,0.0,0.0,0.0,0.0,0.0,0.0,0.0,0.0,0.0,0.0,0.0,0.0,0.0,0.0,0.0,0.0,0.0,0.0,0.0,0.0,0.0,0.0,0.0,0.0,0.0,0.0,0.0,0.0,0.0,0.0,0.0,0.0,0.0,0.0,0.0,0.0,0.0,0.0,0.0,0.0,0.0,0.0,0.0,0.0,-4.0978,-4.0984,-4.0995,-4.101,-4.1059,-4.1098,-4.1113,-4.1103,-4.1109,-4.1115,0.0,0.0,0.0,0.0,0.0,0.0,0.0,0.0,0.0,0.0,0.0,0.0,0.0,0.0,0.0,0.0,0.0,0.0,0.0,0.0,0.0,0.0,0.0,0.0,0.0,0.0,0.0,0.0,0.0,0.0,0.0,0.0,0.0,0.0,0.0,0.0,0.0,0.0,0.0,-3.9781,-3.9965,0.0,0.0,0.0,0.0,0.0,0.0,0.0,0.0,-4.0925,0.0,0.0,0.0,0.0,0.0,0.0,0.0,0.0,0.0,0.0,0.0,0.0,0.0,0.0,0.0,0.0,0.0,0.0,0.0,0.0,0.0,0.0,0.0,0.0,0.0,0.0,0.0,0.0,0.0,0.0,0.0,0.0,0.0,0.0,0.0,0.0,0.0,0.0,0.0,0.0,0.0,0.0,0.0,0.0,0.0,0.0,0.0,0.0,0.0,0.0,0.0,0.0,0.0,0.0,0.0,-4.098,-4.0992,-4.1022,-4.1053,-4.1089,-4.1103,-4.1101,-4.1106,-4.1112,0.0,0.0,0.0,0.0,0.0,0.0,0.0,0.0,0.0,0.0,0.0,0.0,0.0,0.0,0.0,0.0,0.0,0.0,0.0,0.0,0.0,0.0,0.0,0.0,0.0,0.0,0.0,0.0,0.0,0.0,0.0,0.0,0.0,0.0,0.0,0.0,0.0,0.0,0.0,0.0,-3.9823,-3.9973,-4.0108,0.0,0.0,0.0,0.0,0.0,0.0,-4.0863,-4.0926,0.0,0.0,0.0,0.0,0.0,0.0,0.0,0.0,0.0,0.0,0.0,0.0,0.0,0.0,0.0,0.0,0.0,0.0,0.0,0.0,0.0,0.0,0.0,0.0,0.0,0.0,0.0,0.0,0.0,0.0,0.0,0.0,0.0,0.0,0.0,0.0,0.0,0.0,0.0,0.0,0.0,0.0,0.0,0.0,0.0,0.0,0.0,0.0,0.0,0.0,0.0,0.0,0.0,0.0,0.0,-4.0992,-4.0996,-4.1032,-4.1111,-4.1113,-4.1107,-4.1108,-4.1109,-4.1112,0.0,0.0,0.0,0.0,0.0,0.0,0.0,0.0,0.0,0.0,0.0,0.0,0.0,0.0,0.0,0.0,0.0,0.0,0.0,0.0,0.0,0.0,0.0,0.0,0.0,0.0,0.0,0.0,0.0,0.0,0.0,0.0,0.0,0.0,0.0,0.0,0.0,0.0,0.0,0.0,0.0,-3.9943,-4.0077,-4.0272,0.0,0.0,0.0,0.0,-4.0757,-4.0846,0.0,0.0,0.0,0.0,0.0,0.0,0.0,0.0,0.0,0.0,0.0,0.0,0.0,0.0,0.0,0.0,0.0,0.0,0.0,0.0,0.0,0.0,0.0,0.0,0.0,0.0,0.0,0.0,0.0,0.0,0.0,0.0,0.0,0.0,0.0,0.0,0.0,0.0,0.0,0.0,0.0,0.0,0.0,0.0,0.0,0.0,0.0,0.0,0.0,0.0,0.0,0.0,0.0,0.0,0.0,0.0,-4.0992,-4.0996,-4.1052,-4.1091,-4.1113,-4.1107,-4.1108,-4.1109,-4.1112,0.0,0.0,0.0,0.0,0.0,0.0,0.0,0.0,0.0,0.0,0.0,0.0,0.0,0.0,0.0,0.0,0.0,0.0,0.0,0.0,0.0,0.0,0.0,0.0,0.0,0.0,0.0,0.0,0.0,0.0,0.0,0.0,0.0,0.0,0.0,0.0,0.0,0.0,0.0,0.0,0.0,-3.9943,-4.0077,-4.0281,-4.0405,0.0,0.0,-4.0622,-4.0687,-4.0815,0.0,0.0,0.0,0.0,0.0,0.0,0.0,0.0,0.0,0.0,0.0,0.0,0.0,0.0,0.0,0.0,0.0,0.0,0.0,0.0,0.0,0.0,0.0,0.0,0.0,0.0,0.0,0.0,0.0,0.0,0.0,0.0,0.0,0.0,0.0,0.0,0.0,0.0,0.0,0.0,0.0,0.0,0.0,0.0,0.0,0.0,0.0,0.0,0.0,0.0,0.0,0.0,0.0,0.0,0.0,-4.0849,-4.0954,-4.0984,-4.1022,-4.105,-4.1078,-4.1115,-4.1099,-4.1099,-4.1104,0.0,0.0,0.0,0.0,0.0,0.0,0.0,0.0,0.0,0.0,0.0,0.0,0.0,0.0,0.0,0.0,0.0,0.0,0.0,0.0,0.0,0.0,0.0,0.0,0.0,0.0,0.0,0.0,0.0,0.0,0.0,0.0,0.0,0.0,0.0,0.0,0.0,0.0,0.0,0.0,0.0,0.0,-4.0067,-4.0215,0.0,0.0,0.0,-4.1138,-4.0765,0.0,0.0,0.0,0.0,0.0,0.0,0.0,0.0,0.0,0.0,0.0,0.0,0.0,0.0,0.0,0.0,0.0,0.0,0.0,0.0,0.0,0.0,0.0,0.0,0.0,0.0,0.0,0.0,0.0,0.0,0.0,0.0,0.0,0.0,0.0,0.0,0.0,0.0,0.0,0.0,0.0,0.0,0.0,0.0,0.0,0.0,0.0,0.0,0.0,0.0,0.0,0.0,0.0,0.0,0.0,0.0,0.0,-4.0888,-4.0963,-4.0984,-4.099,-4.1042,-4.1083,-4.1107,-4.1109,0.0,0.0,0.0,0.0,0.0,0.0,0.0,0.0,0.0,0.0,0.0,0.0,0.0,0.0,0.0,0.0,0.0,0.0,0.0,0.0,0.0,0.0,0.0,0.0,0.0,0.0,0.0,-3.8212,0.0,0.0,0.0,0.0,0.0,0.0,0.0,0.0,0.0,0.0,0.0,0.0,0.0,0.0,-3.9889,-4.0067,-4.0158,-4.031,0.0,0.0,-4.1694,-4.1333,-4.1873,-4.206,0.0,0.0,0.0,0.0,0.0,0.0,0.0,0.0,0.0,0.0,0.0,0.0,0.0,0.0,0.0,0.0,0.0,0.0,0.0,0.0,0.0,0.0,0.0,0.0,0.0,0.0,0.0,0.0,0.0,0.0,0.0,0.0,0.0,0.0,0.0,0.0,0.0,0.0,0.0,0.0,0.0,0.0,0.0,0.0,0.0,0.0,0.0,0.0,0.0,0.0,0.0,0.0,0.0,0.0,0.0,-4.0903,-4.0907,-4.0937,-4.0987,-4.1013,-4.1048,-4.1093,-4.1115,-4.1115,0.0,0.0,0.0,0.0,0.0,0.0,0.0,0.0,0.0,0.0,0.0,0.0,0.0,0.0,0.0,0.0,0.0,0.0,0.0,0.0,0.0,0.0,0.0,0.0,0.0,0.0,0.0,0.0,0.0,0.0,0.0,0.0,0.0,0.0,0.0,0.0,0.0,0.0,0.0,0.0,0.0,-3.9859,-4.0067,-4.0158,-4.053,0.0,0.0,-4.2027,-4.2747,-4.3033,-4.2905,-4.2053,0.0,0.0,0.0,0.0,0.0,0.0,0.0,0.0,0.0,0.0,0.0,0.0,0.0,0.0,0.0,0.0,0.0,0.0,0.0,0.0,0.0,0.0,0.0,0.0,0.0,0.0,0.0,0.0,0.0,0.0,0.0,0.0,0.0,0.0,0.0,0.0,0.0,0.0,0.0,0.0,0.0,0.0,0.0,0.0,0.0,0.0,0.0,0.0,0.0,0.0,0.0,0.0,0.0,-4.0781,-4.0832,-4.0883,-4.0906,-4.0941,-4.0984,-4.1009,-4.1055,-4.1055,-4.1042,0.0,0.0,0.0,0.0,0.0,0.0,0.0,0.0,0.0,0.0,0.0,0.0,0.0,0.0,0.0,0.0,0.0,0.0,0.0,0.0,0.0,0.0,0.0,0.0,0.0,0.0,0.0,0.0,-3.9661,-3.9508,-3.9324,0.0,0.0,0.0,0.0,0.0,0.0,0.0,0.0,0.0,0.0,-3.9811,-3.9962,-4.0494,0.0,0.0,-4.2451,-4.3129,-4.3007,-4.3478,-4.3435,-4.2154,-4.1963,0.0,0.0,0.0,0.0,0.0,0.0,0.0,0.0,0.0,0.0,0.0,0.0,0.0,0.0,0.0,0.0,0.0,0.0,0.0,0.0,0.0,0.0,0.0,0.0,0.0,0.0,0.0,0.0,0.0,0.0,0.0,0.0,0.0,0.0,0.0,0.0,0.0,0.0,0.0,0.0,0.0,0.0,0.0,0.0,0.0,0.0,0.0,0.0,0.0,0.0,0.0,0.0,-4.0713,-4.0763,-4.0837,-4.0878,-4.0893,-4.0954,-4.0988,-4.0968,-4.0976,-4.0983,0.0,0.0,0.0,0.0,0.0,0.0,0.0,0.0,0.0,0.0,0.0,0.0,0.0,0.0,0.0,0.0,0.0,0.0,0.0,0.0,0.0,0.0,0.0,0.0,0.0,0.0,0.0,0.0,-3.9483,-3.935,-3.921,0.0,0.0,0.0,0.0,0.0,0.0,0.0,0.0,0.0,0.0,-3.9701,-3.9837,-4.0463,-4.1081,-4.1711,-4.283,-4.3625,-4.3637,-4.4154,-4.3998,-4.242,0.0,0.0,0.0,0.0,0.0,0.0,0.0,0.0,0.0,0.0,0.0,0.0,0.0,0.0,0.0,0.0,0.0,0.0,0.0,0.0,0.0,0.0,0.0,0.0,0.0,0.0,0.0,0.0,0.0,0.0,0.0,0.0,0.0,0.0,0.0,0.0,0.0,0.0,0.0,0.0,0.0,0.0,0.0,0.0,0.0,0.0,0.0,0.0,0.0,0.0,0.0,0.0,0.0,-4.072,-4.0719,-4.0769,-4.0829,-4.0902,-4.0893,-4.0902,-4.0909,-4.0964,-4.0976,-4.0957,0.0,0.0,0.0,0.0,0.0,0.0,0.0,0.0,0.0,0.0,0.0,0.0,0.0,0.0,0.0,0.0,0.0,0.0,0.0,0.0,0.0,0.0,0.0,0.0,0.0,0.0,-3.9502,-3.9324,-3.921,0.0,0.0,0.0,0.0,0.0,0.0,0.0,0.0,0.0,0.0,-3.9495,-3.9556,-3.9781,-3.9867,-4.0566,-4.2199,-4.2612,-4.3295,-4.4802,-4.5165,-4.47,0.0,0.0,0.0,0.0,0.0,0.0,0.0,0.0,0.0,0.0,0.0,0.0,0.0,0.0,0.0,0.0,0.0,0.0,0.0,0.0,0.0,0.0,0.0,0.0,0.0,0.0,0.0,0.0,-4.4821,0.0,0.0,0.0,0.0,0.0,0.0,0.0,0.0,0.0,0.0,0.0,-4.1503,-4.0419,0.0,0.0,0.0,0.0,0.0,0.0,0.0,0.0,0.0,0.0,0.0,0.0,-4.0626,-4.0629,-4.07,-4.0744,-4.0781,-4.0812,-4.0839,-4.0835,-4.0859,-4.0612,-4.0073,0.0,0.0,0.0,0.0,0.0,0.0,0.0,0.0,0.0,0.0,0.0,0.0,0.0,0.0,0.0,0.0,0.0,0.0,0.0,0.0,0.0,0.0,0.0,0.0,0.0,-3.9452,0.0,0.0,0.0,0.0,0.0,0.0,0.0,0.0,0.0,0.0,0.0,-3.9224,-3.9304,-3.9395,-3.9464,-3.9514,-4.0113,-4.0793,0.0,0.0,0.0,0.0,0.0,0.0,0.0,0.0,0.0,0.0,0.0,0.0,0.0,0.0,-4.053,-4.0824,-4.0913,-4.0963,-4.1016,0.0,0.0,0.0,0.0,0.0,0.0,0.0,0.0,0.0,0.0,0.0,0.0,0.0,0.0,0.0,0.0,-4.4632,0.0,0.0,0.0,0.0,0.0,0.0,0.0,0.0,-4.2234,-4.1437,-4.0952,-4.0108,-3.977,0.0,-3.9922,-4.0017,0.0,0.0,0.0,0.0,0.0,0.0,0.0,0.0,-4.0588,-4.0593,-4.0648,-4.0662,-4.0681,-4.0732,-4.0761,-4.0781,-4.0779,-4.0408,-3.958,-3.8741,-3.7859,0.0,0.0,0.0,0.0,0.0,0.0,0.0,0.0,0.0,0.0,0.0,0.0,0.0,0.0,0.0,0.0,0.0,0.0,0.0,0.0,0.0,0.0,0.0,-3.9298,0.0,0.0,0.0,0.0,0.0,0.0,0.0,0.0,0.0,-3.8968,-3.905,-3.9115,-3.9156,-3.9251,-3.933,-3.94,0.0,0.0,0.0,0.0,0.0,0.0,0.0,-4.264,-4.1264,-4.1067,-4.0795,-3.9957,-3.9846,-3.9878,-3.995,0.0,0.0,-4.0597,-4.0732,-4.0835,-4.0937,-4.1019,-4.1066,-4.1094,-4.1109,-4.1113,0.0,0.0,0.0,0.0,0.0,0.0,0.0,0.0,-4.4397,-4.4426,0.0,-4.4501,0.0,0.0,0.0,0.0,0.0,0.0,0.0,0.0,-4.1542,-4.081,-4.0785,-3.9982,-3.963,-3.9682,-3.9815,-3.9889,-3.9892,-4.0099,0.0,0.0,0.0,0.0,0.0,0.0,-4.0531,-4.058,-4.0586,-4.0588,-4.0588,-4.0661,-4.07,-4.0681,-4.0719,-4.031,-3.947,-3.8593,-3.7752,-3.6882,-3.6045,0.0,0.0,0.0,0.0,0.0,0.0,0.0,0.0,0.0,0.0,0.0,0.0,0.0,0.0,0.0,0.0,0.0,0.0,0.0,0.0,-3.9202,0.0,0.0,0.0,0.0,0.0,0.0,0.0,0.0,0.0,0.0,-3.8896,-3.8892,-3.895,-3.9092,0.0,0.0,0.0,0.0,-3.9688,-4.0506,-4.074,-4.106,-4.1755,-4.1924,-4.1661,-4.0866,0.0,0.0,-3.9633,-3.9551,-3.9611,-3.9701,-3.9859,-4.007,-4.0348,-4.0509,-4.0667,-4.0854,-4.0953,-4.1037,-4.109,-4.1106,-4.1113,-4.3963,0.0,0.0,0.0,0.0,-4.4082,-4.4128,-4.4185,-4.4203,-4.4266,-4.4358,-4.4358,0.0,0.0,0.0,0.0,0.0,0.0,-4.2469,-4.1365,-4.0878,-4.0368,-3.9832,-3.957,-3.9489,-3.9563,-3.9618,-3.9677,-3.9777,-3.9903,-4.0058,-4.0196,0.0,0.0,0.0,0.0,-4.0458,-4.0474,-4.0508,-4.0527,-4.0527,-4.0593,-4.0621,-4.0621,-4.0082,-3.9406,-3.8517,-3.7668,-3.6831,-3.5996,-3.5695,0.0,0.0,0.0,0.0,0.0,0.0,0.0,0.0,0.0,0.0,0.0,0.0,0.0,0.0,0.0,0.0,0.0,0.0,0.0,-3.9202,-3.905,-3.895,0.0,0.0,0.0,0.0,0.0,0.0,0.0,0.0,0.0,-3.875,-3.8837,-3.8906,0.0,0.0,-3.8997,-3.904,-3.9078,-3.9194,-3.9431,0.0,0.0,0.0,-4.0449,-4.0579,-3.9722,-3.9591,-3.9512,-3.9328,-3.9317,-3.9369,-3.9521,-3.9649,-3.9807,-4.0061,-4.0342,-4.0551,-4.0707,-4.0881,-4.1016,-4.1092,-4.1099,-4.1112,-4.3583,-4.3615,-4.3802,-4.3883,-4.3929,-4.3913,-4.3945,-4.3974,-4.3974,-4.4023,-4.4123,-4.4104,-4.4107,-4.4104,-4.4104,0.0,0.0,0.0,-4.163,-4.0407,-4.0067,-3.9691,-3.9253,-3.928,-3.9309,-3.9376,-3.9439,-3.9514,-3.9611,-3.9735,-3.9878,-4.0027,0.0,0.0,-4.0252,-4.0298,-4.0353,-4.0407,-4.0427,-4.046,-4.046,-4.0508,-4.0373,-4.0041,-3.9586,-3.8777,-3.7583,-3.7043,-3.6375,-3.5534,-3.5448,-3.5432,0.0,0.0,0.0,0.0,0.0,0.0,0.0,0.0,0.0,0.0,0.0,-3.5507,0.0,0.0,0.0,0.0,-3.8941,-3.9133,-3.9017,-3.8939,0.0,0.0,0.0,0.0,0.0,0.0,0.0,-3.8627,-3.8593,-3.8578,-3.8578,-3.867,-3.8743,-3.8833,-3.8866,-3.8862,-3.891,0.0,-3.8968,-3.895,-3.9452,-3.9629,-3.9128,-3.9462,-3.961,-3.9128,-3.9031,-3.9059,-3.912,-3.9156,-3.9256,-3.9425,-3.9527,-3.967,-3.9954,-4.0232,-4.0484,-4.0674,-4.0835,-4.099,-4.1093,-4.1111,-4.1109,-4.3214,-4.3251,-4.3601,-4.3754,-4.3754,-4.3736,-4.3771,-4.3771,-4.3788,-4.3788,-4.3788,-4.3788,-4.3788,-4.3804,-4.3788,0.0,0.0,-4.1643,-4.0846,-3.9981,-3.9243,-3.8939,-3.9011,-3.9045,-3.9115,-3.9183,-3.933,-3.9414,-3.9458,-3.957,-3.9647,-3.9781,-3.9954,-4.0118,-4.0158,-4.0187,-4.0243,-4.0381,-4.037,-4.0379,-4.0379,-4.033,-3.9934,-3.9215,-3.9069,-3.8262,-3.6764,-3.661,-3.6197,-3.5346,-3.5274,-3.5278,-3.5277,0.0,0.0,0.0,0.0,0.0,0.0,0.0,0.0,0.0,0.0,0.0,0.0,0.0,0.0,0.0,-3.8964,0.0,-3.8877,-3.8803,0.0,0.0,0.0,-3.8658,-3.8673,-3.8578,-3.8476,-3.8476,0.0,0.0,0.0,0.0,-3.8496,-3.8728,-3.8777,-3.8792,-3.8866,-3.8866,-3.8848,-3.8848,-3.8862,-3.8899,-3.8896,-3.8918,-3.8951,-3.8929,-3.8954,-3.8979,-3.9007,-3.9106,-3.9229,-3.9386,-3.9514,-3.9701,-3.9954,-4.0177,-4.0391,-4.0655,-4.08,-4.0941,-4.1059,-4.1101,-4.1105,-4.3214,-4.3214,-4.3304,-4.334,-4.3358,-4.3446,-4.3516,-4.3566,-4.3652,-4.3719,-4.3788,-4.3788,-4.3788,-4.3788,-4.3788,-4.2991,-4.1604,-4.14,-4.0535,-3.9206,-3.8984,-3.8925,-3.8939,-3.8935,-3.8979,-3.905,-3.9129,-3.9192,-3.9259,-3.9389,-3.9464,-3.9521,-3.9654,-3.9837,-4.0048,-4.0108,-4.0138,-4.0186,-4.0206,-4.0272,-4.0297,-3.9727,-3.9303,-3.9128,-3.7881,-3.701,-3.6557,-3.5963,-3.5519,-3.5242,-3.5163,-3.5166,-3.5149,-3.5081,0.0,0.0,0.0,0.0,0.0,0.0,0.0,0.0,0.0,-3.5919,-3.6701,0.0,-3.815,0.0,-3.8881,-3.8818,-3.8818,-3.8683,0.0,0.0,-3.8528,-3.8465,-3.8465,-3.8449,-3.8415,-3.8415,-3.8399,-3.8399,-3.8399,-3.8399,-3.8415,-3.8478,-3.8478,-3.8494,-3.851,-3.851,-3.8541,-3.8588,-3.8585,-3.8637,-3.8716,-3.8753,-3.8747,-3.8822,-3.8851,-3.8896,-3.8997,-3.9059,-3.9202,-3.9369,-3.957,-3.9781,-4.0036,-4.0252,-4.0446,-4.0648,-4.0804,-4.0933,-4.1009,-4.1056,-4.1104,-4.3068,-4.3068,-4.3068,-4.3068,-4.3068,-4.3233,-4.3322,-4.3357,-4.3392,-4.3463,-4.3533,-4.3515,-4.3515,-4.3533,-4.3515,-4.2633,-4.1126,-4.1071,-4.0207,-3.8701,-3.8713,-3.871,-3.8728,-3.8803,-3.8881,-3.8925,-3.8979,-3.9031,-3.9101,-3.9224,-3.9272,-3.9298,-3.9439,-3.9575,-3.9717,-3.9881,-3.9986,-4.0038,-4.0127,-3.9976,-3.9642,-3.9192,-3.8609,-3.7863,-3.6965,-3.6279,-3.588,-3.5416,-3.5162,-3.5117,-3.5054,-3.5,-3.4963,-3.4927,-3.4869,0.0,0.0,0.0,0.0,0.0,0.0,0.0,0.0,0.0,0.0,0.0,-3.8368,0.0,-3.8667,0.0,-3.8621,-3.8525,-3.8462,-3.8462,-3.8415,-3.8399,-3.8399,-3.835,-3.837,-3.837,-3.8338,-3.8303,-3.8322,-3.8322,-3.8322,-3.8322,-3.8303,-3.8338,-3.8401,-3.8399,-3.8415,-3.8465,-3.846,-3.8541,-3.8673,-3.8707,-3.8738,-3.8792,-3.8837,-3.8877,-3.9021,-3.9147,-3.9283,-3.9414,-3.9611,-3.9818,-4.0049,-4.0279,-4.0481,-4.0662,-4.0807,-4.0904,-4.0971,-4.1044,-4.1116,-4.2844,-4.2881,-4.2862,-4.2844,-4.2881,-4.305,-4.3142,-4.3196,-4.3178,-4.3214,-4.3214,-4.3214,-4.3214,-4.3214,-4.3214,-4.2321,-4.0827,-4.0808,-3.9951,-3.8435,-3.8444,-3.8494,-3.8476,-3.8667,-3.8762,-3.8762,-3.8837,-3.891,-3.8968,-3.9031,-3.9101,-3.9156,-3.9272,-3.9337,-3.9369,-3.9618,-3.9804,-3.9954,-3.9912,-3.9535,-3.8784,-3.8584,-3.7766,-3.6378,-3.6169,-3.5788,-3.5104,-3.5001,-3.4955,-3.4964,-3.4898,-3.485,-3.4782,-3.4759,-3.4697,0.0,-3.4495,0.0,0.0,0.0,0.0,0.0,0.0,0.0,0.0,-3.7927,-3.8683,-3.851,-3.843,-3.8399,-3.8399,-3.8382,-3.8401,-3.8401,-3.8366,-3.835,-3.8352,-3.8289,-3.8257,-3.8223,-3.8191,-3.8158,-3.8175,-3.8175,-3.8175,-3.8174,-3.8156,-3.8241,-3.8336,-3.835,-3.8368,-3.8366,-3.8446,-3.8541,-3.8673,-3.8689,-3.8735,-3.8807,-3.8881,-3.895,-3.9087,-3.9256,-3.9438,-3.9521,-3.9682,-3.9884,-4.009,-4.0286,-4.0477,-4.0655,-4.0804,-4.0927,-4.0986,-4.1067,-4.1103,-4.265,-4.2668,-4.265,-4.265,-4.2668,-4.2689,-4.2861,-4.3123,-4.3178,-4.3214,-4.3214,-4.3214,-4.3214,-4.3214,-4.3214,-4.2339,-4.0826,-4.0808,-3.9951,-3.8399,-3.8433,-3.8415,-3.8415,-3.8446,-3.8481,-3.8478,-3.8658,-3.8753,-3.875,-3.8881,-3.895,-3.895,-3.9017,-3.9078,0.0,0.0,0.0,0.0,-3.9161,-3.8809,-3.8612,-3.7354,-3.6539,-3.6207,-3.5524,0.0,-3.486,-3.4849,-3.4819,-3.4759,-3.4678,0.0,0.0,0.0,0.0,0.0,0.0,0.0,0.0,0.0,0.0,0.0,-3.5785,-3.6523,-3.718,-3.7992,-3.8446,-3.8415,-3.8399,-3.8399,-3.8399,-3.8336,-3.834,-3.8305,-3.8171,-3.8051,-3.8069,-3.802,-3.7969,-3.7969,-3.7951,-3.7969,-3.7951,-3.7951,-3.7986,-3.8036,-3.8018,-3.8087,-3.8224,-3.8241,-3.8257,-3.8305,-3.8433,-3.8559,-3.8673,-3.875,-3.8777,-3.8862,-3.8935,-3.9021,-3.9156,-3.9304,-3.9433,-3.9563,-3.9792,-3.9988,-4.0158,-4.0349,-4.0519,-4.0687,-4.0806,-4.0917,-4.0995,-4.105,-4.1107,-4.2609,0.0,-4.2609,-4.2609,0.0,-4.2609,-4.2688,-4.2842,-4.2881,-4.29,-4.29,-4.29,-4.2918,-4.29,-4.2918,-4.2031,-4.051,-4.051,-3.9658,-3.8221,-3.8236,-3.8303,-3.8354,-3.8385,-3.8399,-3.8399,-3.8515,-3.8546,-3.8562,-3.8634,-3.8713,-3.8695,-3.8833,-3.8892,-3.8892,-3.8642,-3.8635,-3.892,-3.8229,-3.7664,-3.72,-3.643,-3.5818,-3.5402,0.0,0.0,0.0,0.0,0.0,0.0,0.0,0.0,0.0,0.0,0.0,-3.4197,-3.4074,-3.3972,-3.3908,-3.3847,-3.4266,-3.5363,-3.6425,-3.7262,-3.7857,-3.8113,-3.8251,-3.8252,-3.8204,-3.8138,-3.8138,-3.8122,-3.8088,-3.8106,-3.8003,-3.7933,-3.7951,-3.7934,-3.7917,-3.7899,-3.7899,-3.7899,-3.7899,-3.7899,-3.7916,-3.7951,-3.7933,-3.7968,-3.8038,-3.8141,-3.8224,-3.8338,-3.8401,-3.8512,-3.8658,-3.8719,-3.8777,-3.8862,-3.8921,-3.9036,-3.9242,-3.9367,-3.9452,-3.9618,-3.9834,-4.0026,-4.0167,-4.0332,-4.0496,-4.0614,-4.0739,-4.0842,-4.0924,-4.0997,-4.1067,-4.249,-4.249,-4.249,-4.249,-4.249,-4.2508,-4.249,-4.2508,0.0,0.0,0.0,-4.2609,-4.2609,-4.2609,-4.2609,-4.1709,-4.0217,-4.0181,-3.9409,-3.8003,-3.8035,-3.8121,-3.8223,-3.8289,-3.832,-3.8302,-3.8336,-3.8334,-3.835,-3.843,-3.8462,-3.8494,-3.8652,-3.8673,-3.8501,-3.7696,-3.7408,-3.7604,-3.7079,-3.6463,-3.5777,-3.5589,-3.5184,-3.4547,-3.4528,-3.4528,-3.4517,-3.4404,-3.4328,-3.4328,-3.4197,-3.4117,-3.4136,-3.4061,-3.3998,-3.3934,-3.3855,-3.378,-3.3643,-3.3647,-3.4269,-3.574,-3.7133,-3.8052,-3.8303,-3.817,-3.8069,-3.8051,-3.7968,-3.7917,-3.7899,-3.7881,-3.7864,-3.7864,-3.7846,-3.7811,-3.7811,-3.7793,-3.7775,-3.7793,-3.7775,-3.7793,-3.7775,-3.7775,-3.7811,-3.7846,-3.7828,-3.7864,-3.7934,-3.8055,-3.8189,-3.8336,-3.8385,-3.8467,-3.8611,-3.8673,-3.875,-3.8881,-3.8925,-3.904,-3.9293,-3.9399,-3.9427,-3.939,-3.9596,-3.9652,-3.9738,-3.9733,-3.9988,-4.0109,-4.0191,-4.0279,-4.0383,-4.0474,-4.0584,-4.209,-4.209,-4.2072,-4.2072,-4.209,-4.209,-4.2072,-4.2115,-4.245,-4.2609,-4.2609,-4.2609,-4.2609,-4.2609,-4.2609,-4.1728,-4.0217,-4.0181,-3.9373,0.0,-3.7934,-3.7934,-3.7951,-3.7951,-3.7951,-3.7968,-3.8036,-3.8086,-3.8153,-3.8271,-3.8352,-3.8417,-3.8446,-3.8112,-3.7439,-3.6058,-3.5358,-3.5436,-3.5632,-3.5665,-3.5523,-3.4815,-3.4369,-3.4276,-3.4257,-3.4257,-3.4264,-3.4136,-3.4061,-3.4061,-3.3921,-3.3842,-3.3842,-3.3788,-3.3726,-3.3675,-3.3605,-3.3538,-3.3433,-3.3378,-3.4008,-3.5449,-3.6912,-3.781,-3.7951,-3.7951,-3.7934,-3.7934,-3.7881,-3.7899,-3.7899,-3.7793,-3.7703,-3.7721,-3.7559,-3.7466,-3.7467,-3.7447,-3.741,-3.741,-3.7372,-3.7391,-3.741,-3.741,-3.7484,-3.7594,-3.7649,-3.7721,-3.7864,-3.795,-3.8104,-3.8256,-3.8323,-3.837,-3.8512,-3.8624,-3.8716,-3.8862,-3.8917,-3.8961,-3.9208,-3.9212,-3.9064,-3.8735,-3.8764,-3.8655,-3.828,-3.8101,-3.8372,-3.8527,-3.8633,-3.8651,-3.8764,-3.8845,-3.9291,-4.1776,-4.1776,-4.1776,-4.1793,-4.1776,-4.1793,-4.1793,-4.1797,-4.2058,-4.2205,-4.2264,-4.2264,-4.2264,-4.2264,-4.2264,-4.139,-3.9893,-3.9875,-3.9075,-3.7703,-3.7703,-3.7757,-3.7775,-3.7864,-3.7899,-3.7899,-3.7933,-3.7968,-3.8003,-3.8054,-3.8088,-3.8103,-3.7718,-3.6964,-3.5842,-3.5111,-3.4528,-3.4152,-3.4412,-3.4557,-3.4557,-3.4188,-3.3985,-3.3985,-3.3985,-3.3985,-3.3972,-3.3842,-3.3793,-3.3793,-3.3643,-3.3591,-3.3577,-3.3549,-3.3509,-3.3437,-3.3364,-3.3256,-3.3198,-3.3866,-3.4555,-3.5273,-3.6649,-3.7503,-3.7576,-3.7613,-3.7613,-3.7613,-3.7594,-3.7594,-3.7576,-3.7521,-3.7485,-3.7485,-3.741,-3.7353,-3.7353,-3.7298,-3.7297,-3.7297,-3.7297,-3.7297,-3.7297,-3.7297,-3.7316,-3.7428,-3.7447,-3.7521,-3.7721,-3.7757,-3.7862,-3.8138,-3.8186,-3.8271,-3.8415,-3.8528,-3.8621,-3.8762,-3.8468,-3.8386,-3.8505,-3.8305,-3.7947,-3.7803,-3.7856,-3.7833,-3.7509,-3.764,-3.7772,-3.7862,-3.7976,-3.8054,-3.8136,-3.8257,-3.8676,-4.1515,-4.1515,-4.1498,-4.1515,-4.1498,-4.1515,-4.1515,-4.1538,-4.1626,-4.1714,-4.1819,-4.1941,-4.2005,-4.2005,-4.2005,-4.112,-3.9757,-3.9615,-3.8803,-3.7498,-3.7485,-3.7558,-3.7613,-3.7721,-3.7775,-3.7775,-3.7757,-3.7757,-3.7793,-3.7793,-3.7721,-3.7504,-3.6673,-3.5638,-3.4542,-3.4359,-3.3946,-3.3385,-3.353,-3.3638,-3.3698,-3.3712,-3.3712,-3.3712,-3.3712,-3.373,-3.3716,-3.3591,-3.352,-3.3473,-3.3378,-3.3304,-3.3289,-3.3289,-3.3259,-3.3186,-3.3091,-3.2995,-3.2955,-3.4018,-3.4818,-3.5031,-3.6215,-3.7025,-3.7184,-3.7203,-3.7279,-3.7317,-3.7297,-3.7239,-3.7239,-3.7201,-3.7182,-3.7182,-3.7163,-3.7143,-3.7143,-3.7163,-3.7163,-3.7163,-3.7143,-3.7161,-3.718,-3.7143,-3.7143,-3.7163,-3.722,-3.7334,-3.7448,-3.7396,-3.7381,-3.7646,-3.7873,-3.7993,-3.812,-3.8091,-3.8094,-3.8166,-3.7669,-3.7446,-3.7446,-3.7063,-3.6702,-3.6822,-3.6866,-3.6818,-3.6857,-3.6872,-3.6972,-3.6993,-3.7079,-3.7315,-3.7353,-3.7467,-3.7937,-4.1232,-4.1232,-4.1232,-4.1232,-4.1232,-4.1232,-4.1232,-4.1232,-4.1255,-4.1277,-4.134,-4.1793,-4.1966,-4.2005,-4.1984,-4.1099,-3.9628,-3.9595,-3.8746,-3.7403,-3.7316,-3.7334,-3.7334,-3.7353,-3.7371,-3.7353,-3.739,-3.7392,-3.7466,-3.7431,-3.7166,-3.6593,-3.521,-3.4453,-3.4213,-3.3617,-3.3204,-3.3117,-3.3104,-3.3196,-3.3422,-3.3437,-3.3455,-3.3437,-3.3437,-3.3437,-3.3437,-3.3349,-3.3274,-3.3147,-3.3073,-3.3011,-3.2963,-3.2948,-3.2918,-3.2838,-3.2821,-3.2722,-3.261,-3.323,-3.3987,-3.4689,-3.5421,-3.6151,-3.6726,-3.6788,-3.6869,-3.7031,-3.7048,-3.7009,-3.7009,-3.6911,-3.6849,-3.6851,-3.6788,-3.6763,-3.6766,-3.6763,-3.6763,-3.6763,-3.6783,-3.6763,-3.6766,-3.6733,-3.6736,-3.6624,-3.671,-3.6826,-3.6866,-3.6517,-3.6272,-3.6595,-3.7202,-3.7536,-3.7252,-3.7136,-3.6994,-3.6559,-3.6421,-3.6462,-3.6514,-3.6557,-3.6527,-3.5782,-3.5836,-3.5772,-3.5401,-3.5135,-3.5334,-3.569,-3.5753,-3.5695,-3.574,-3.5941,-3.6566,-4.1018,-4.1018,-4.1018,-4.0971,-4.0918,-4.0918,-4.0918,-4.0901,-4.1082,-4.1146,-4.1175,-4.1426,-4.152,-4.1538,-4.152,-4.0679,-3.9298,-3.9263,-3.84,-3.7016,-3.6987,-3.7007,-3.7007,-3.7085,-3.7143,-3.7166,-3.7184,-3.7222,-3.7246,-3.6875,-3.6309,-3.5598,-3.4512,-3.3746,-3.3317,-3.2978,-3.2802,-3.28,-3.277,-3.2818,-3.2914,-3.3042,-3.3122,-3.3104,-3.3122,-3.3122,-3.3106,-3.3028,-3.2965,-3.2934,-3.2789,-3.2707,-3.2674,-3.2589,-3.2539,-3.2506,-3.2456,-3.2353,-3.2179,-3.2859,-3.3362,-3.3636,-3.4725,-3.5555,-3.585,-3.6181,-3.6478,-3.6547,-3.665,-3.669,-3.669,-3.6588,-3.6489,-3.6506,-3.6485,-3.6461,-3.6464,-3.6482,-3.6464,-3.6461,-3.6464,-3.6447,-3.6395,-3.6162,-3.5752,-3.5431,-3.5428,-3.5575,-3.5547,-3.5322,-3.5256,-3.5347,-3.5776,-3.606,-3.6047,-3.6159,-3.6073,-3.5924,-3.5593,-3.5403,-3.5491,-3.5146,-3.4861,-3.4705,-3.4882,-3.4918,-3.4697,-3.4728,-3.4869,-3.4964,-3.5117,-3.5281,-3.535,-3.5445,-3.5973,-4.0799,-4.0776,-4.0776,-4.0728,-4.0648,-4.0648,-4.0648,-4.0673,-4.084,-4.0929,-4.0953,-4.0995,-4.1001,-4.099,-4.0932,-4.0165,-3.9073,-3.8759,-3.7976,-3.6789,-3.6766,-3.6786,-3.6788,-3.6869,-3.6948,-3.6989,-3.6989,-3.6923,-3.6736,-3.6033,-3.5275,-3.4535,-3.3741,-3.3087,-3.2575,-3.2505,-3.2539,-3.2522,-3.2506,-3.2489,-3.2506,-3.2606,-3.2722,-3.2787,-3.2737,-3.2737,-3.2737,-3.269,-3.2658,-3.2641,-3.2473,-3.237,-3.2336,-3.2232,-3.2161,-3.2161,-3.2073,-3.1966,-3.1821,-3.2301,-3.2659,-3.2857,-3.3851,-3.4586,-3.4995,-3.5467,-3.5818,-3.6041,-3.6148,-3.6195,-3.6339,-3.6276,-3.6195,-3.6191,-3.6152,-3.617,-3.611,-3.5972,-3.5766,-3.5784,-3.5534,-3.5576,-3.5566,-3.5211,-3.4754,-3.4308,-3.4248,-3.4276,-3.4284,-3.4216,-3.4098,-3.4227,-3.4161,-3.4323,-3.483,-3.5069,-3.5181,-3.4932,-3.4501,-3.4334,-3.4458,-3.3995,-3.3798,-3.4173,-3.4154,-3.4233,-3.4347,-3.4517,-3.4739,-3.4821,-3.4963,-3.5149,-3.5231,-3.5352,-3.5417,-4.0493,-4.0534,-4.0534,-4.0517,-4.051,-4.0493,-4.051,-4.051,-4.0534,-4.0534,-4.0558,-4.0541,-4.0541,-4.0487,-4.0239,-3.9712,-3.8951,-3.8194,-3.7464,-3.6696,-3.6664,-3.6702,-3.6719,-3.674,-3.6722,-3.6705,-3.6705,-3.6339,-3.5645,-3.488,-3.4116,-3.3491,-3.2739,-3.2302,-3.2283,-3.2301,-3.2301,-3.2283,-3.2249,-3.2214,-3.2214,-3.2161,-3.2266,-3.2456,-3.2387,-3.2335,-3.2318,-3.2335,-3.2301,-3.2232,-3.2144,-3.2073,-3.1948,-3.1856,-3.1818,-3.1818,-3.1709,-3.1635,-3.1562,-3.1515,-3.1725,-3.2318,-3.253,-3.3025,-3.4176,-3.446,-3.4815,-3.5487,-3.5335,-3.5458,-3.5761,-3.5788,-3.583,-3.5737,-3.5732,-3.5637,-3.5565,-3.4927,-3.4617,-3.4503,-3.4202,-3.3997,-3.396,-3.3895,-3.3813,-3.3679,-3.3794,-3.3808,-3.3638,-3.3281,-3.3101,-3.3022,-3.2821,-3.2616,-3.3581,-3.3947,-3.3743,-3.3605,-3.3573,-3.334,-3.3433,-3.3506,-3.3587,-3.3712,-3.3881,-3.4023,-3.4124,-3.4293,-3.4528,-3.467,-3.486,-3.5001,-3.5073,-3.5226,-3.53,-4.051,-4.0485,-4.0412,-4.0379,-4.0362,-4.0362,-4.0379,-4.0362,-4.0461,-4.051,-4.051,-4.051,-4.0236,-3.9758,-3.9152,-3.8745,-3.8436,-3.7713,-3.6956,-3.6319,-3.6251,-3.6251,-3.6251,-3.6251,-3.6293,-3.6374,-3.6374,-3.6018,-3.5302,-3.4523,-3.3781,-3.3055,-3.2346,-3.1965,-3.1966,-3.1983,-3.1983,-3.1983,-3.1947,-3.1947,-3.1929,-3.1838,-3.182,-3.1894,-3.2002,-3.2037,-3.2001,-3.1983,-3.1965,-3.1946,-3.1856,-3.1747,-3.1654,-3.1502,-3.1423,-3.1423,-3.1368,-3.1327,-3.1232,-3.1157,-3.1139,-3.1325,-3.175,-3.2127,-3.2615,-3.3044,-3.3462,-3.3673,-3.374,-3.3768,-3.3957,-3.4431,-3.4823,-3.4728,-3.4352,-3.4117,-3.3972,-3.3753,-3.3602,-3.3568,-3.3376,-3.3149,-3.2752,-3.2692,-3.253,-3.2107,-3.2106,-3.2239,-3.2212,-3.1995,-3.1985,-3.2029,-3.1934,-3.189,-3.2224,-3.2687,-3.2823,-3.2831,-3.282,-3.2967,-3.3088,-3.3211,-3.3298,-3.3477,-3.3657,-3.3775,-3.3895,-3.4031,-3.4232,-3.4364,-3.4557,-3.448,-3.4917,-3.4808,-3.4944,-4.0263,-4.0238,-4.0138,-4.0087,-4.0087,-4.0113,-4.013,-4.0113,-4.0213,-4.0246,-4.0263,-4.0246,-3.9831,-3.9084,-3.8336,-3.7827,-3.7579,-3.6996,-3.6471,-3.6031,-3.6014,-3.6014,-3.6014,-3.6014,-3.6041,-3.6071,-3.5865,-3.541,-3.4699,-3.3942,-3.3169,-3.2447,-3.1931,-3.1671,-3.1653,-3.1634,-3.1634,-3.1632,-3.1614,-3.1614,-3.1595,-3.1521,-3.1447,-3.1428,-3.1524,-3.1635,-3.1634,-3.1615,-3.1614,-3.1578,-3.1466,-3.1351,-3.1235,-3.1114,-3.1032,-3.0975,-3.0992,-3.0935,-3.0855,-3.0814,-3.0753,-3.0626,-3.0974,-3.1236,-3.1418,-3.1874,-3.2181,-3.2395,-3.2478,-3.2478,-3.2533,-3.2883,-3.3267,-3.3506,-3.3234,-3.2928,-3.2873,-3.2668,-3.244,-3.2212,-3.215,-3.1933,-3.1637,-3.1604,-3.1374,-3.0868,-3.0955,-3.1055,-3.1098,-3.1157,-3.1215,-3.1308,-3.1402,-3.1445,-3.1625,-3.1922,-3.2248,-3.2301,-3.2437,-3.2606,-3.2681,-3.2811,-3.2934,-3.3172,-3.3353,-3.3512,-3.3643,-3.3739,-3.3827,-3.3897,-3.3612,-3.3387,-3.3806,-3.4207,-3.4273,-3.9729,-3.9755,-3.9703,-3.9755,-3.9755,-3.9755,-3.9729,-3.9755,-3.9755,-3.9781,-3.9807,-3.9722,-3.9261,-3.8539,-3.7784,-3.7122,-3.6495,-3.6158,-3.5995,-3.5932,-3.5932,-3.5932,-3.5949,-3.591,-3.5927,-3.5898,-3.5258,-3.4503,-3.3765,-3.3048,-3.2298,-3.1669,-3.153,-3.1387,-3.1295,-3.1312,-3.1254,-3.1213,-3.121,-3.119,-3.119,-3.119,-3.1114,-3.1015,-3.1035,-3.1098,-3.1257,-3.1232,-3.119,-3.119,-3.1075,-3.0915,-3.0753,-3.0692,-3.063,-3.051,-3.0506,-3.0506,-3.0485,-3.0443,-3.038,-3.0333,-3.0179,-3.0397,-3.0853,-3.0943,-3.1174,-3.1628,-3.1806,-3.1848,-3.1718,-3.1345,-3.1472,-3.2356,-3.2391,-3.2264,-3.2141,-3.1702,-3.109,-3.0688,-3.0611,-3.0488,-3.0518,-3.0621,-3.0588,-3.0559,-3.0609,-3.0712,-3.0753,-3.0834,-3.0895,-3.0975,-3.1015,-3.1055,-3.1137,-3.1276,-3.1582,-3.186,-3.2038,-3.2197,-3.2191,-3.2252,-3.2202,-3.2358,-3.2457,-3.26,-3.2702,-3.279,-3.276,-3.2748,-3.2471,-3.239,-3.2726,-3.311,-3.3353,-3.9703,-3.9703,-3.9703,-3.9703,-3.9703,-3.9703,-3.9703,-3.9703,-3.9703,-3.9703,-3.962,-3.9158,-3.8522,-3.7802,-3.7073,-3.6353,-3.5666,-3.545,-3.5435,-3.5503,-3.5543,-3.5526,-3.5526,-3.5526,-3.5526,-3.5402,-3.4767,-3.4004,-3.3262,-3.2521,-3.1813,-3.1227,-3.1109,-3.1072,-3.1015,-3.1015,-3.0975,-3.0855,-3.0855,-3.0814,-3.0733,-3.0712,-3.0695,-3.0654,-3.0609,-3.063,-3.0692,-3.0794,-3.0814,-3.0733,-3.0675,-3.0593,-3.0485,-3.0316,-3.0227,-3.0167,-3.0065,-3.0027,-3.0006,-2.9984,-2.9957,-2.9908,-2.9814,-2.9845,-2.9971,-2.999,-3.0064,-3.0289,-3.0188,-3.0142,-3.0094,-2.9874,-3.0234,-3.1297,-3.0977,-3.0727,-3.0715,-3.0455,-3.0217,-3.0065,-2.9984,-2.9989,-3.0027,-3.0087,-3.0146,-3.0167,-3.0274,-3.0359,-3.0464,-3.0506,-3.0584,-3.0651,-3.0671,-3.0592,-3.0597,-3.0432,-3.0395,-3.0765,-3.1088,-3.134,-3.1428,-3.1442,-3.1399,-3.1483,-3.1574,-3.1693,-3.1779,-3.1742,-3.1715,-3.1745,-3.1641,-3.1661,-3.1767,-3.2013,-3.2312,-3.9372,-3.9372,-3.9372,-3.9388,-3.9372,-3.9372,-3.9388,-3.9372,-3.9372,-3.9239,-3.8906,-3.8498,-3.7743,-3.6862,-3.6297,-3.5699,-3.5044,-3.4906,-3.4923,-3.5018,-3.5128,-3.5152,-3.5152,-3.5152,-3.4951,-3.4618,-3.399,-3.3256,-3.2534,-3.18,-3.12,-3.082,-3.0753,-3.0733,-3.0729,-3.0692,-3.0651,-3.0526,-3.0447,-3.0401,-3.0321,-3.0258,-3.0258,-3.022,-3.0177,-3.0167,-3.0162,-3.0253,-3.0338,-3.0316,-3.0258,-3.0215,-3.0141,-2.9973,-2.9842,-2.9716,-2.9671,-2.9605,-2.9544,-2.9538,-2.9538,-2.9464,-2.9418,-2.9373,-2.9298,-2.9268,-2.9238,-2.9222,-2.9208,-2.9114,-2.9122,-2.906,-2.9366,-3.0009,-2.9836,-2.9538,-2.9544,-2.9589,-2.9627,-2.9627,-2.9671,-2.9671,-2.9694,-2.9738,-2.9814,-2.9836,-2.9946,-3.0033,-3.0119,-3.013,-3.0177,-3.0105,-2.9892,-2.9893,-2.9947,-2.9672,-2.9223,-2.9544,-2.9944,-3.0172,-3.0318,-3.0318,-3.0299,-3.056,-3.0688,-3.0909,-3.0998,-3.0726,-3.0607,-3.067,-3.0667,-3.0393,-3.0334,-3.0987,-3.1347,-3.8805,-3.8805,-3.8805,-3.8832,-3.886,-3.886,-3.8843,-3.8832,-3.8816,-3.8499,-3.7974,-3.7797,-3.6973,-3.5865,-3.5571,-3.5103,-3.4554,-3.4472,-3.4472,-3.4546,-3.4683,-3.478,-3.4875,-3.4875,-3.4528,-3.3856,-3.3127,-3.2381,-3.1719,-3.0964,-3.0485,-3.0464,-3.0426,-3.0443,-3.0359,-3.0375,-3.0295,-3.0167,-3.0076,-2.9995,-2.9951,-2.9848,-2.9772,-2.9766,-2.9782,-2.9716,-2.9704,-2.9681,-2.977,-2.9908,-2.9832,-2.9738,-2.9681,-2.9659,-2.9509,-2.9328,-2.9266,-2.9175,-2.9098,-2.9075,-2.9052,-2.9029,-2.8959,-2.8873,-2.8889,-2.8834,-2.8818,-2.8803,-2.8755,-2.8771,-2.8771,-2.8723,-2.8778,-2.8771,-2.9029,-2.9098,-2.9114,-2.9213,-2.9259,-2.9305,-2.9389,-2.945,-2.9428,-2.9434,-2.9457,-2.948,-2.957,-2.9653,-2.9633,-2.9635,-2.9669,-2.9432,-2.9081,-2.8911,-2.8906,-2.8485,-2.8093,-2.8219,-2.855,-2.8697,-2.9057,-2.911,-2.9042,-2.9325,-2.9685,-2.9945,-2.9953,-2.9605,-2.9475,-2.9521,-2.9316,-2.8894,-2.918,-2.9896,-3.03,-3.8805,-3.8805,-3.8805,-3.8805,-3.8805,-3.8805,-3.8761,-3.8805,-3.8761,-3.8319,-3.7756,-3.7226,-3.6385,-3.5451,-3.4871,-3.4463,-3.4233,-3.4126,-3.405,-3.4066,-3.4,-3.4275,-3.4521,-3.4578,-3.4184,-3.3444,-3.2722,-3.2103,-3.1342,-3.0533,-3.0162,-3.0124,-3.0027,-2.9968,-2.9979,-2.9979,-2.9913,-2.9836,-2.9808,-2.9681,-2.9493,-2.9464,-2.938,-2.9289,-2.9289,-2.9266,-2.9236,-2.9152,-2.9243,-2.9464,-2.935,-2.9266,-2.9252,-2.9167,-2.9082,-2.899,-2.8865,-2.8787,-2.8716,-2.866,-2.8589,-2.8589,-2.8549,-2.8541,-2.8525,-2.8517,-2.8508,-2.8493,-2.8405,-2.8356,-2.8348,-2.8275,-2.8226,-2.825,-2.8565,-2.8826,-2.885,-2.8912,-2.892,-2.8944,-2.8983,-2.899,-2.9014,-2.9045,-2.9075,-2.9075,-2.9144,-2.9189,-2.9085,-2.8821,-2.8713,-2.8417,-2.811,-2.7897,-2.7669,-2.7235,-2.6983,-2.6951,-2.7049,-2.7026,-2.7461,-2.7844,-2.7708,-2.7684,-2.8252,-2.8596,-2.8443,-2.8188,-2.8255,-2.8543,-2.8496,-2.8375,-2.8505,-2.8983,-2.9187,-3.8415,-3.8415,-3.8415,-3.8415,-3.8415,-3.8415,-3.8281,-3.8038,-3.7989,-3.7449,-3.6604,-3.6117,-3.5464,-3.469,-3.4244,-3.4,-3.3924,-3.3848,-3.3822,-3.3813,-3.3694,-3.3848,-3.4036,-3.3932,-3.3348,-3.2634,-3.1992,-3.1238,-3.0567,-3.0014,-2.9824,-2.9754,-2.9649,-2.9589,-2.9605,-2.9522,-2.9493,-2.9457,-2.9396,-2.9282,-2.9152,-2.9052,-2.8975,-2.8881,-2.8858,-2.8811,-2.8787,-2.8677,-2.8732,-2.8936,-2.8936,-2.8858,-2.8795,-2.8724,-2.8677,-2.8629,-2.8501,-2.8405,-2.8348,-2.8275,-2.8201,-2.8152,-2.8152,-2.8128,-2.8063,-2.8063,-2.8063,-2.8039,-2.7989,-2.7965,-2.794,-2.7865,-2.784,-2.7865,-2.8113,-2.8348,-2.8444,-2.8517,-2.8541,-2.8565,-2.8589,-2.8628,-2.8628,-2.8668,-2.8677,-2.8716,-2.874,-2.8607,-2.8365,-2.8013,-2.7666,-2.7397,-2.7017,-2.6714,-2.6535,-2.6193,-2.6039,-2.6013,-2.6086,-2.5937,-2.6308,-2.6805,-2.6877,-2.6893,-2.7071,-2.7228,-2.7307,-2.7415,-2.7654,-2.7856,-2.7893,-2.8031,-2.8169,-2.8277,-2.8422,-3.7905,-3.7905,-3.7905,-3.7905,-3.7918,-3.7809,-3.7482,-3.6958,-3.6826,-3.6089,-3.5097,-3.4798,-3.4462,-3.3658,-3.3664,-3.3617,-3.3607,-3.3555,-3.3581,-3.3529,-3.3435,-3.3439,-3.3288,-3.3015,-3.2407,-3.1702,-3.0902,-3.0254,-2.9751,-2.9489,-2.945,-2.9389,-2.9305,-2.9236,-2.9213,-2.9098,-2.9052,-2.9021,-2.8936,-2.8865,-2.8779,-2.8668,-2.8573,-2.8501,-2.842,-2.8348,-2.8284,-2.821,-2.8244,-2.8453,-2.8501,-2.8429,-2.8348,-2.8323,-2.8275,-2.8162,-2.8113,-2.8054,-2.7955,-2.7905,-2.7855,-2.7765,-2.774,-2.769,-2.7625,-2.76,-2.76,-2.76,-2.756,-2.7575,-2.7575,-2.7549,-2.7549,-2.7549,-2.76,-2.769,-2.788,-2.8039,-2.8122,-2.8162,-2.825,-2.8299,-2.8299,-2.8299,-2.8284,-2.8213,-2.817,-2.7825,-2.7457,-2.6988,-2.6686,-2.6413,-2.5998,-2.5497,-2.5332,-2.5164,-2.513,-2.5104,-2.529,-2.5378,-2.5702,-2.6072,-2.6274,-2.6453,-2.6657,-2.6808,-2.6924,-2.7054,-2.7214,-2.7371,-2.7524,-2.7704,-2.7879,-2.7965,-2.8087,-3.7905,-3.7905,-3.7905,-3.7905,-3.7809,-3.7243,-3.688,-3.6628,-3.6003,-3.5201,-3.4539,-3.4397,-3.392,-3.3256,-3.3256,-3.3176,-3.3123,-3.3096,-3.3085,-3.3085,-3.3058,-3.2656,-3.2384,-3.2209,-3.1915,-3.1218,-3.0592,-2.9887,-2.9326,-2.9075,-2.9052,-2.9029,-2.8951,-2.8858,-2.8763,-2.8716,-2.866,-2.8565,-2.8517,-2.8453,-2.8365,-2.8308,-2.821,-2.8128,-2.8005,-2.7865,-2.7775,-2.775,-2.77,-2.7715,-2.784,-2.7915,-2.7905,-2.784,-2.775,-2.77,-2.76,-2.7564,-2.7514,-2.7437,-2.7361,-2.7335,-2.7321,-2.731,-2.7295,-2.7269,-2.7284,-2.7284,-2.7295,-2.7258,-2.7244,-2.7269,-2.7244,-2.7244,-2.7244,-2.7269,-2.7386,-2.7615,-2.7725,-2.775,-2.779,-2.7775,-2.7775,-2.78,-2.7785,-2.7715,-2.7423,-2.7055,-2.6529,-2.6,-2.5697,-2.5406,-2.5074,-2.4658,-2.4629,-2.4544,-2.4586,-2.4564,-2.4706,-2.4831,-2.5166,-2.5508,-2.5772,-2.6028,-2.6242,-2.6383,-2.6538,-2.664,-2.6792,-2.6974,-2.7152,-2.7308,-2.7461,-2.76,-2.7733,-3.751,-3.748,-3.7464,-3.732,-3.6972,-3.6521,-3.6001,-3.5401,-3.4951,-3.4298,-3.3767,-3.3673,-3.3399,-3.3005,-3.3005,-3.2978,-3.2897,-3.2784,-3.273,-3.2598,-3.2315,-3.1886,-3.1396,-3.1001,-3.06,-3.0378,-2.9791,-2.921,-2.8912,-2.8748,-2.8677,-2.8653,-2.8589,-2.8477,-2.8381,-2.8284,-2.8186,-2.8113,-2.8063,-2.7989,-2.7925,-2.784,-2.7765,-2.763,-2.7503,-2.7386,-2.731,-2.7218,-2.7152,-2.71,-2.7167,-2.7269,-2.7386,-2.7376,-2.7269,-2.7192,-2.7141,-2.7063,-2.7037,-2.7011,-2.6959,-2.6881,-2.6881,-2.6829,-2.6803,-2.6791,-2.6791,-2.6791,-2.6777,-2.6791,-2.6791,-2.6791,-2.6777,-2.6777,-2.6777,-2.6765,-2.6829,-2.7141,-2.7423,-2.7423,-2.7437,-2.7423,-2.7397,-2.7372,-2.7115,-2.6991,-2.6798,-2.6391,-2.5461,-2.4955,-2.4665,-2.4394,-2.4113,-2.3915,-2.3927,-2.3982,-2.4112,-2.4172,-2.4281,-2.4426,-2.4634,-2.4989,-2.532,-2.5567,-2.5809,-2.6008,-2.6152,-2.6259,-2.6383,-2.6607,-2.6758,-2.6907,-2.7054,-2.7214,-2.7355,-3.6922,-3.6859,-3.6859,-3.6453,-3.5847,-3.5644,-3.4914,-3.3936,-3.3659,-3.3277,-3.2854,-3.2761,-3.2753,-3.2734,-3.2734,-3.2777,-3.2707,-3.2563,-3.2394,-3.202,-3.16,-3.106,-3.0575,-2.9785,-2.9281,-2.9403,-2.8905,-2.8548,-2.8484,-2.8396,-2.8299,-2.8275,-2.8162,-2.8088,-2.8014,-2.7865,-2.774,-2.7715,-2.759,-2.7539,-2.7473,-2.7386,-2.7233,-2.7115,-2.7,-2.691,-2.6832,-2.6698,-2.659,-2.6578,-2.6457,-2.6566,-2.6727,-2.6832,-2.6791,-2.663,-2.6604,-2.6578,-2.6578,-2.6551,-2.6525,-2.6445,-2.6404,-2.6365,-2.6272,-2.6286,-2.6313,-2.6286,-2.6286,-2.6286,-2.6233,-2.6286,-2.6286,-2.6245,-2.626,-2.6233,-2.634,-2.6724,-2.6907,-2.7026,-2.7,-2.6959,-2.6985,-2.6945,-2.6586,-2.6245,-2.6025,-2.5624,-2.4708,-2.404,-2.3799,-2.3681,-2.3496,-2.3429,-2.3443,-2.353,-2.3668,-2.3775,-2.3882,-2.4009,-2.4141,-2.4446,-2.4791,-2.5107,-2.5339,-2.5565,-2.5715,-2.5807,-2.5974,-2.6208,-2.6366,-2.6487,-2.664,-2.6825,-2.6973,-3.6672,-3.6157,-3.6141,-3.5692,-3.4847,-3.4233,-3.3735,-3.3253,-3.2647,-3.2287,-3.2196,-3.2165,-3.2193,-3.2165,-3.2165,-3.215,-3.2165,-3.2003,-3.1744,-3.1323,-3.0888,-3.0379,-2.9392,-2.8932,-2.8505,-2.8107,-2.798,-2.8094,-2.8079,-2.798,-2.789,-2.7865,-2.7765,-2.7665,-2.7579,-2.7463,-2.7372,-2.7284,-2.717,-2.7093,-2.7041,-2.6881,-2.675,-2.663,-2.6578,-2.6459,-2.6313,-2.6218,-2.6123,-2.6042,-2.5988,-2.5975,-2.6002,-2.6152,-2.6192,-2.6192,-2.6096,-2.6042,-2.6042,-2.6029,-2.6029,-2.6002,-2.5988,-2.5988,-2.5948,-2.5948,-2.5893,-2.5921,-2.5921,-2.5948,-2.5975,-2.5921,-2.5948,-2.5948,-2.5921,-2.5948,-2.5975,-2.6084,-2.6245,-2.6353,-2.6406,-2.6486,-2.6525,-2.6393,-2.596,-2.5481,-2.5048,-2.4625,-2.3907,-2.3357,-2.3055,-2.3036,-2.3023,-2.3016,-2.3016,-2.3127,-2.3238,-2.3363,-2.3494,-2.3588,-2.3739,-2.3946,-2.424,-2.4549,-2.4871,-2.5143,-2.5278,-2.5371,-2.5602,-2.5864,-2.5974,-2.6046,-2.6242,-2.6435,-2.6572,-3.5568,-3.4983,-3.4968,-3.4523,-3.3821,-3.3397,-3.2988,-3.2551,-3.2161,-3.2012,-3.2012,-3.2012,-3.2012,-3.1996,-3.1868,-3.1768,-3.1593,-3.1234,-3.0921,-3.0505,-2.9834,-2.928,-2.8424,-2.817,-2.7776,-2.7497,-2.7478,-2.7579,-2.7655,-2.7564,-2.7488,-2.7463,-2.7361,-2.7258,-2.7155,-2.7011,-2.6919,-2.6814,-2.6712,-2.6594,-2.6541,-2.6379,-2.6258,-2.6204,-2.6109,-2.6015,-2.5907,-2.5702,-2.5619,-2.5536,-2.5481,-2.5397,-2.537,-2.5397,-2.5536,-2.5688,-2.5633,-2.5536,-2.5508,-2.5481,-2.5425,-2.5453,-2.5453,-2.5425,-2.5425,-2.5425,-2.5453,-2.5439,-2.5439,-2.5453,-2.5425,-2.5453,-2.5425,-2.5425,-2.5453,-2.5439,-2.5439,-2.5453,-2.5564,-2.5702,-2.5921,-2.6042,-2.6067,-2.5811,-2.5317,-2.4765,-2.417,-2.3599,-2.3051,-2.2762,-2.2434,-2.2495,-2.2563,-2.2609,-2.2632,-2.2723,-2.2814,-2.2949,-2.3075,-2.3172,-2.3326,-2.3501,-2.3689,-2.3925,-2.4281,-2.463,-2.4846,-2.493,-2.522,-2.547,-2.5565,-2.5661,-2.5864,-2.603,-2.6171,-3.4425,-3.3788,-3.3817,-3.3363,-3.2744,-3.2684,-3.2367,-3.1887,-3.1798,-3.1798,-3.1826,-3.1798,-3.1798,-3.1769,-3.161,-3.1392,-3.1041,-3.0477,-3.0109,-2.9448,-2.8741,-2.8139,-2.7721,-2.7401,-2.7026,-2.6963,-2.6922,-2.7015,-2.7248,-2.7155,-2.7063,-2.7011,-2.6922,-2.6846,-2.6753,-2.6592,-2.6431,-2.6324,-2.6231,-2.6111,-2.5948,-2.5839,-2.5757,-2.5729,-2.5619,-2.555,-2.5439,-2.5286,-2.5104,-2.502,-2.4935,-2.485,-2.4793,-2.4721,-2.4835,-2.5103,-2.5131,-2.509,-2.5061,-2.5005,-2.4977,-2.4977,-2.492,-2.492,-2.492,-2.4977,-2.4948,-2.492,-2.4935,-2.4948,-2.4977,-2.4948,-2.4948,-2.4948,-2.4948,-2.4907,-2.4948,-2.4977,-2.4977,-2.5174,-2.5453,-2.5536,-2.5536,-2.5159,-2.466,-2.4088,-2.3478,-2.2877,-2.2373,-2.2205,-2.2006,-2.2053,-2.21,-2.217,-2.2217,-2.2347,-2.2426,-2.2503,-2.2632,-2.2723,-2.2881,-2.3061,-2.3216,-2.3407,-2.3689,-2.4015,-2.4245,-2.4508,-2.4751,-2.495,-2.5084,-2.5259,-2.5454,-2.5624,-2.5754,-3.3741,-3.3105,-3.3105,-3.255,-3.1776,-3.1702,-3.1527,-3.1279,-3.1264,-3.119,-3.1278,-3.1234,-3.1249,-3.1116,-3.1116,-3.0762,-3.0305,-2.9895,-2.9266,-2.8408,-2.7942,-2.7411,-2.6874,-2.6676,-2.6566,-2.6486,-2.6406,-2.6633,-2.6817,-2.6698,-2.6604,-2.6578,-2.6459,-2.634,-2.6286,-2.6138,-2.6069,-2.5975,-2.5839,-2.5605,-2.5397,-2.5314,-2.523,-2.5132,-2.5076,-2.5033,-2.4935,-2.4806,-2.4692,-2.4478,-2.4408,-2.4321,-2.4234,-2.4218,-2.4189,-2.4334,-2.4492,-2.4664,-2.4635,-2.4607,-2.4591,-2.4563,-2.4591,-2.4649,-2.4591,-2.4578,-2.4578,-2.4649,-2.4607,-2.4578,-2.4591,-2.462,-2.4649,-2.462,-2.4549,-2.4578,-2.4578,-2.4463,-2.4492,-2.452,-2.4765,-2.4878,-2.495,-2.4477,-2.4,-2.3413,-2.2813,-2.2199,-2.1776,-2.165,-2.1592,-2.164,-2.1688,-2.1722,-2.1817,-2.1926,-2.2006,-2.2063,-2.2194,-2.231,-2.2449,-2.2609,-2.27,-2.2904,-2.3157,-2.3436,-2.3717,-2.3994,-2.424,-2.4467,-2.4666,-2.4846,-2.5025,-2.5182,-2.5336,-3.2183,-3.1915,-3.1929,-3.1692,-3.1322,-3.1248,-3.1205,-3.1117,-3.1087,-3.1087,-3.1073,-3.0984,-3.0675,-3.0294,-3.0133,-2.9697,-2.9073,-2.8739,-2.8233,-2.7543,-2.7184,-2.6771,-2.6478,-2.6312,-2.6218,-2.6165,-2.6056,-2.6002,-2.6218,-2.6299,-2.6258,-2.6231,-2.6084,-2.5948,-2.5811,-2.566,-2.5578,-2.5481,-2.5314,-2.5118,-2.5005,-2.4892,-2.4765,-2.4622,-2.4593,-2.4507,-2.4421,-2.4303,-2.4245,-2.4041,-2.394,-2.3763,-2.3704,-2.3616,-2.3543,-2.3543,-2.3662,-2.3881,-2.4128,-2.4057,-2.4057,-2.4041,-2.4041,-2.4028,-2.4028,-2.4028,-2.4028,-2.4028,-2.4041,-2.4041,-2.407,-2.4041,-2.4041,-2.4041,-2.4086,-2.4057,-2.4057,-2.4028,-2.3969,-2.4028,-2.4057,-2.4203,-2.4191,-2.3683,-2.3272,-2.2964,-2.228,-2.1555,-2.1312,-2.1282,-2.1229,-2.1253,-2.1277,-2.1288,-2.1385,-2.1482,-2.1554,-2.1636,-2.1756,-2.1888,-2.203,-2.217,-2.2263,-2.2402,-2.2632,-2.2904,-2.3209,-2.3538,-2.3818,-2.4051,-2.4276,-2.4405,-2.4569,-2.4766,-2.4946,-3.0836,-3.0866,-3.1028,-3.1058,-3.0955,-3.0984,-3.0925,-3.085,-3.0836,-3.0836,-3.0762,-3.0512,-2.9956,-2.9419,-2.9174,-2.8713,-2.7926,-2.7441,-2.71,-2.6802,-2.6463,-2.6167,-2.6043,-2.5989,-2.5935,-2.5935,-2.5702,-2.5619,-2.5647,-2.5674,-2.5757,-2.5866,-2.5674,-2.5536,-2.5425,-2.5244,-2.5104,-2.4948,-2.4806,-2.4664,-2.4563,-2.4476,-2.4319,-2.416,-2.4089,-2.4044,-2.394,-2.3763,-2.37,-2.3582,-2.3433,-2.3271,-2.3138,-2.3017,-2.2927,-2.2896,-2.2927,-2.306,-2.333,-2.342,-2.348,-2.348,-2.348,-2.3526,-2.3509,-2.348,-2.3467,-2.3526,-2.3497,-2.3497,-2.348,-2.3509,-2.3497,-2.3526,-2.3526,-2.3497,-2.3509,-2.3526,-2.3556,-2.3556,-2.3586,-2.3556,-2.3386,-2.2838,-2.2519,-2.2378,-2.1799,-2.0968,-2.081,-2.0835,-2.0835,-2.0835,-2.0847,-2.0896,-2.0995,-2.1068,-2.1142,-2.1215,-2.1361,-2.1482,-2.1602,-2.1722,-2.1817,-2.1973,-2.2137,-2.2347,-2.2609,-2.3016,-2.3385,-2.3625,-2.3839,-2.3946,-2.4078,-2.4302,-2.4508,-3.0172,-3.0233,-3.0806,-3.0881,-3.0642,-3.0642,-3.0462,-3.0264,-3.0217,-3.0174,-3.0031,-2.9614,-2.9298,-2.8968,-2.8382,-2.7812,-2.7173,-2.713,-2.6595,-2.6077,-2.5771,-2.5688,-2.5647,-2.5592,-2.5508,-2.5481,-2.5328,-2.523,-2.5202,-2.5061,-2.5146,-2.5188,-2.5202,-2.5061,-2.4948,-2.4806,-2.4593,-2.445,-2.4305,-2.4173,-2.4054,-2.3936,-2.3835,-2.3658,-2.3539,-2.3463,-2.342,-2.3258,-2.3108,-2.303,-2.2909,-2.2757,-2.2604,-2.2512,-2.242,-2.234,-2.2328,-2.2389,-2.2482,-2.2848,-2.3108,-2.3125,-2.3108,-2.3078,-2.3078,-2.312,-2.3138,-2.3108,-2.3078,-2.3108,-2.3108,-2.3138,-2.3138,-2.3138,-2.3168,-2.318,-2.318,-2.3168,-2.3168,-2.3138,-2.315,-2.318,-2.2924,-2.2423,-2.2129,-2.1995,-2.1198,-2.0372,-2.0346,-2.0346,-2.0372,-2.0397,-2.0422,-2.0498,-2.0585,-2.066,-2.0723,-2.0797,-2.0921,-2.1044,-2.1166,-2.1277,-2.1361,-2.153,-2.1698,-2.1864,-2.2044,-2.2365,-2.2731,-2.3142,-2.3385,-2.348,-2.3653,-2.3903,-2.4094,-3.008,-3.0111,-3.028,-3.0296,-3.0294,-3.0294,-3.0203,-3.008,-2.9974,-2.9565,-2.9059,-2.8776,-2.8254,-2.7619,-2.7268,-2.6735,-2.6176,-2.612,-2.5869,-2.5675,-2.5467,-2.5383,-2.53,-2.5159,-2.5033,-2.5047,-2.4892,-2.4848,-2.482,-2.4578,-2.4492,-2.4578,-2.4692,-2.4664,-2.4536,-2.4319,-2.4086,-2.394,-2.3793,-2.3688,-2.3628,-2.345,-2.333,-2.318,-2.315,-2.2969,-2.2818,-2.2726,-2.2616,-2.2494,-2.2359,-2.2235,-2.208,-2.2018,-2.1937,-2.1886,-2.1843,-2.18,-2.1831,-2.2192,-2.2543,-2.2543,-2.2555,-2.2586,-2.2574,-2.2586,-2.2543,-2.2543,-2.2635,-2.2665,-2.2665,-2.2757,-2.286,-2.2848,-2.2818,-2.283,-2.28,-2.2757,-2.2757,-2.2726,-2.28,-2.286,-2.2533,-2.2132,-2.1856,-2.1592,-2.0672,-1.9927,-1.9914,-1.9914,-1.9939,-1.9991,-2.0003,-2.0093,-2.0195,-2.0245,-2.0283,-2.0397,-2.0498,-2.0598,-2.0723,-2.0822,-2.0921,-2.108,-2.1226,-2.1361,-2.153,-2.1732,-2.2109,-2.2632,-2.2918,-2.3053,-2.3253,-2.3494,-2.3653,-2.9803,-2.9772,-2.9651,-2.9744,-2.9927,-2.9882,-2.9834,-2.9761,-2.9439,-2.8881,-2.8066,-2.7871,-2.7296,-2.6501,-2.61,-2.5837,-2.5437,-2.5326,-2.5285,-2.5173,-2.5061,-2.5033,-2.4948,-2.4863,-2.475,-2.4664,-2.4534,-2.4447,-2.4361,-2.4189,-2.4086,-2.407,-2.4099,-2.4115,-2.4086,-2.3865,-2.3641,-2.342,-2.33,-2.321,-2.3193,-2.3,-2.2878,-2.2726,-2.2635,-2.2512,-2.2328,-2.2235,-2.2111,-2.1987,-2.1851,-2.1726,-2.1612,-2.1529,-2.1466,-2.1434,-2.1403,-2.1328,-2.1391,-2.1632,-2.1956,-2.1987,-2.2061,-2.2073,-2.2042,-2.2042,-2.2092,-2.2061,-2.2154,-2.2173,-2.2185,-2.2278,-2.2352,-2.2309,-2.2309,-2.2321,-2.2309,-2.2278,-2.2309,-2.2309,-2.2383,-2.234,-2.211,-2.1669,-2.1168,-2.0834,-2.0079,-1.9511,-1.95,-1.95,-1.9565,-1.9578,-1.9618,-1.9708,-1.981,-1.9823,-1.9875,-1.9965,-2.0067,-2.0131,-2.0232,-2.0346,-2.0472,-2.061,-2.0772,-2.0885,-2.1044,-2.1213,-2.1684,-2.2217,-2.2426,-2.2609,-2.2851,-2.3075,-2.3194,-2.9131,-2.9131,-2.9131,-2.9275,-2.9484,-2.9404,-2.9279,-2.9045,-2.8467,-2.7856,-2.7219,-2.6748,-2.6414,-2.5997,-2.5529,-2.517,-2.4974,-2.4877,-2.482,-2.4763,-2.4677,-2.4649,-2.4578,-2.452,-2.4376,-2.4319,-2.4187,-2.4054,-2.3949,-2.3747,-2.3628,-2.3539,-2.3539,-2.3509,-2.3569,-2.348,-2.3241,-2.2969,-2.2896,-2.283,-2.2678,-2.2512,-2.242,-2.2328,-2.2142,-2.1975,-2.1894,-2.1737,-2.1612,-2.1443,-2.14,-2.1273,-2.1031,-2.101,-2.0914,-2.0797,-2.0765,-2.0733,-2.0754,-2.1146,-2.1336,-2.1443,-2.1561,-2.1592,-2.1667,-2.1667,-2.1635,-2.1604,-2.1655,-2.1698,-2.1698,-2.173,-2.1761,-2.1792,-2.1824,-2.1824,-2.1812,-2.1843,-2.1874,-2.1874,-2.1781,-2.1694,-2.1518,-2.1219,-2.0541,-1.9984,-1.9381,-1.9098,-1.909,-1.9107,-1.9172,-1.9186,-1.92,-1.9303,-1.9368,-1.9382,-1.946,-1.9552,-1.9656,-1.9721,-1.9811,-1.9914,-2.0042,-2.0195,-2.0296,-2.041,-2.0548,-2.0721,-2.114,-2.1541,-2.1983,-2.2217,-2.2463,-2.2638,-2.2723,-2.9022,-2.8912,-2.8798,-2.8548,-2.8351,-2.8933,-2.8878,-2.8281,-2.7506,-2.6725,-2.6104,-2.5778,-2.5497,-2.5156,-2.4995,-2.4721,-2.4677,-2.4677,-2.462,-2.4563,-2.4361,-2.4287,-2.4216,-2.4099,-2.391,-2.3852,-2.3776,-2.3747,-2.37,-2.342,-2.3288,-2.3228,-2.2969,-2.2909,-2.303,-2.3,-2.28,-2.2604,-2.2482,-2.2371,-2.2185,-2.203,-2.1937,-2.1906,-2.1663,-2.1537,-2.1454,-2.1296,-2.1126,-2.0955,-2.0924,-2.0807,-2.0582,-2.0561,-2.0496,-2.0356,-2.028,-2.0259,-2.0194,-2.0377,-2.0582,-2.0818,-2.101,-2.1053,-2.1065,-2.1033,-2.1033,-2.1097,-2.1181,-2.1213,-2.1158,-2.1316,-2.138,-2.1391,-2.1391,-2.1391,-2.1423,-2.1423,-2.1423,-2.1423,-2.136,-2.1265,-2.1129,-2.0942,-2.0375,-1.9901,-1.9399,-1.8908,-1.8789,-1.8771,-1.8789,-1.8789,-1.8815,-1.8893,-1.8946,-1.8999,-1.9078,-1.9172,-1.9265,-1.937,-1.9448,-1.9512,-1.9642,-1.9759,-1.9849,-1.9926,-2.0093,-2.0283,-2.0485,-2.0833,-2.1275,-2.1698,-2.1973,-2.2114,-2.217,-2.8683,-2.8546,-2.8228,-2.7835,-2.7534,-2.813,-2.7952,-2.7108,-2.6435,-2.5788,-2.5245,-2.505,-2.4819,-2.4498,-2.4361,-2.4303,-2.4274,-2.4245,-2.4245,-2.4203,-2.4041,-2.3953,-2.3835,-2.3688,-2.3586,-2.3467,-2.3407,-2.3378,-2.3253,-2.306,-2.2909,-2.2696,-2.2408,-2.2359,-2.242,-2.2389,-2.234,-2.2142,-2.2073,-2.1937,-2.1769,-2.1612,-2.1498,-2.1391,-2.1253,-2.1126,-2.101,-2.0839,-2.0646,-2.0518,-2.0432,-2.0346,-2.0205,-2.0107,-2.0064,-1.9955,-1.9922,-1.9889,-1.9835,-1.9835,-2.0064,-2.0237,-2.0399,-2.0496,-2.0529,-2.0604,-2.0637,-2.0669,-2.0722,-2.0786,-2.0839,-2.0967,-2.0967,-2.0999,-2.0999,-2.101,-2.101,-2.101,-2.101,-2.0999,-2.0967,-2.0871,-2.0784,-2.059,-2.0259,-1.9879,-1.9483,-1.8988,-1.8522,-1.8472,-1.8433,-1.8387,-1.8387,-1.8452,-1.8545,-1.8625,-1.8706,-1.8786,-1.8881,-1.8975,-1.9028,-1.9093,-1.9198,-1.9303,-1.9382,-1.9486,-1.9656,-1.9862,-2.0042,-2.0271,-2.056,-2.0981,-2.1423,-2.1554,-2.1626,-2.8052,-2.7959,-2.7432,-2.712,-2.7093,-2.7005,-2.6401,-2.5452,-2.5356,-2.505,-2.456,-2.4385,-2.4213,-2.4096,-2.3979,-2.3848,-2.3734,-2.3688,-2.3688,-2.3658,-2.3628,-2.3599,-2.3569,-2.348,-2.3288,-2.3168,-2.3078,-2.3,-2.2751,-2.2647,-2.2463,-2.2216,-2.1956,-2.1874,-2.1831,-2.1781,-2.1781,-2.1718,-2.1655,-2.1517,-2.1348,-2.1221,-2.1106,-2.0978,-2.0807,-2.069,-2.0593,-2.0432,-2.0259,-2.0129,-1.9998,-1.9802,-1.9681,-1.9615,-1.9572,-1.9561,-1.9605,-1.9572,-1.9572,-1.9539,-1.9572,-1.9747,-1.9889,-2.0009,-2.015,-2.0226,-2.0237,-2.0302,-2.0399,-2.0496,-2.0604,-2.0593,-2.0593,-2.0593,-2.0593,-2.0593,-2.0604,-2.0604,-2.0593,-2.0561,-2.0561,-2.0529,-2.0496,-2.0319,-2.0055,-1.9678,-1.9246,-1.8874,-1.844,-1.8176,-1.8118,-1.8018,-1.8018,-1.8018,-1.8111,-1.8247,-1.8275,-1.8356,-1.8452,-1.8548,-1.8614,-1.8667,-1.8786,-1.8893,-1.8934,-1.9066,-1.9277,-1.9434,-1.9591,-1.9811,-1.9978,-2.0372,-2.0847,-2.0995,-2.1093,-2.7362,-2.718,-2.6504,-2.5892,-2.5349,-2.4849,-2.4784,-2.503,-2.4599,-2.4142,-2.3881,-2.3822,-2.3793,-2.3747,-2.3688,-2.3628,-2.3599,-2.3586,-2.3539,-2.345,-2.33,-2.3198,-2.312,-2.303,-2.2921,-2.286,-2.28,-2.2665,-2.2451,-2.2297,-2.2061,-2.1824,-2.1561,-2.1391,-2.1296,-2.1181,-2.1213,-2.1265,-2.1201,-2.1063,-2.0935,-2.085,-2.069,-2.0529,-2.0356,-2.0259,-2.014,-1.9976,-1.9802,-1.9736,-1.9704,-1.9583,-1.9417,-1.9384,-1.9341,-1.9231,-1.9231,-1.9231,-1.9231,-1.9231,-1.9241,-1.9252,-1.9363,-1.9528,-1.966,-1.9802,-1.9846,-1.9944,-2.0009,-2.0074,-2.0107,-2.0107,-2.0107,-2.0107,-2.0107,-2.0107,-2.0107,-2.0107,-2.0107,-2.0107,-2.0107,-2.0107,-2.0107,-2.002,-1.9738,-1.9403,-1.9047,-1.8752,-1.8376,-1.8111,-1.7901,-1.7779,-1.7645,-1.7645,-1.7728,-1.7849,-1.7877,-1.7893,-1.8045,-1.8154,-1.8182,-1.8275,-1.8367,-1.8476,-1.856,-1.8732,-1.8919,-1.9052,-1.9093,-1.9212,-1.9384,-1.9811,-2.0207,-2.0372,-2.0573,-2.6594,-2.6179,-2.5569,-2.4874,-2.4236,-2.3812,-2.3936,-2.4262,-2.3961,-2.3688,-2.3599,-2.3539,-2.348,-2.342,-2.333,-2.3271,-2.321,-2.318,-2.315,-2.3072,-2.3,-2.2939,-2.28,-2.2708,-2.2647,-2.2567,-2.2475,-2.234,-2.2111,-2.1831,-2.1549,-2.1498,-2.1169,-2.1042,-2.0914,-2.0722,-2.0614,-2.0667,-2.07,-2.0625,-2.0529,-2.0399,-2.027,-2.0107,-1.9955,-1.9868,-1.978,-1.9583,-1.9473,-1.944,-1.9417,-1.9252,-1.9085,-1.9042,-1.8985,-1.8875,-1.8841,-1.8841,-1.8841,-1.8865,-1.8875,-1.8875,-1.8875,-1.8942,-1.9175,-1.9351,-1.945,-1.9539,-1.9583,-1.9615,-1.9615,-1.9615,-1.9615,-1.9615,-1.9615,-1.9615,-1.9615,-1.9615,-1.9615,-1.9648,-1.9648,-1.9648,-1.9648,-1.9583,-1.9573,-1.9436,-1.9276,-1.9072,-1.8577,-1.8054,-1.7817,-1.7658,-1.7414,-1.7295,-1.7379,-1.7451,-1.7507,-1.7562,-1.77,-1.7772,-1.781,-1.7865,-1.7986,-1.8111,-1.8209,-1.8356,-1.8464,-1.8518,-1.8572,-1.8694,-1.8842,-1.916,-1.9552,-1.9837,-2.0042,-2.5749,-2.5223,-2.4628,-2.4085,-2.3578,-2.3509,-2.3463,-2.3373,-2.3463,-2.3539,-2.348,-2.3403,-2.321,-2.3078,-2.3,-2.2909,-2.2891,-2.286,-2.28,-2.2647,-2.2647,-2.2586,-2.2525,-2.2598,-2.2352,-2.2228,-2.2135,-2.1999,-2.1655,-2.1371,-2.1201,-2.1126,-2.0818,-2.0658,-2.0593,-2.0259,-2.0118,-2.015,-2.0194,-2.0172,-2.0096,-1.9933,-1.978,-1.9648,-1.9583,-1.9539,-1.9473,-1.9384,-1.9252,-1.9152,-1.9019,-1.8818,-1.8741,-1.8674,-1.8583,-1.8549,-1.8583,-1.8583,-1.8583,-1.8617,-1.8583,-1.8549,-1.8482,-1.8583,-1.8818,-1.8985,-1.9108,-1.9142,-1.9185,-1.9208,-1.9208,-1.9208,-1.9241,-1.9274,-1.9308,-1.9341,-1.9417,-1.9384,-1.9308,-1.9308,-1.9252,-1.9252,-1.9208,-1.9175,-1.9142,-1.9288,-1.9248,-1.9069,-1.8733,-1.812,-1.7818,-1.7581,-1.742,-1.7209,-1.7015,-1.7088,-1.7145,-1.7217,-1.7329,-1.7396,-1.7423,-1.7518,-1.7629,-1.77,-1.7799,-1.7881,-1.7963,-1.8057,-1.8166,-1.8275,-1.8425,-1.8572,-1.8854,-1.9186,-1.9526,-2.4825,-2.4633,-2.3943,-2.3414,-2.3103,-2.306,-2.3012,-2.286,-2.2891,-2.2982,-2.303,-2.2951,-2.283,-2.28,-2.2739,-2.2678,-2.2659,-2.2555,-2.2537,-2.2383,-2.2321,-2.2216,-2.1999,-2.2042,-2.1917,-2.1855,-2.1761,-2.1635,-2.1296,-2.101,-2.0818,-2.0754,-2.0453,-2.0248,-2.0215,-1.9889,-1.9726,-1.9769,-1.9638,-1.9681,-1.9704,-1.9671,-1.9583,-1.9417,-1.9351,-1.9208,-1.9108,-1.8975,-1.8808,-1.8684,-1.865,-1.8583,-1.8573,-1.8506,-1.8482,-1.8482,-1.8448,-1.8448,-1.8448,-1.8448,-1.8448,-1.8482,-1.8482,-1.8482,-1.8549,-1.865,-1.8717,-1.8751,-1.8785,-1.8818,-1.8852,-1.8841,-1.8875,-1.8942,-1.9008,-1.9108,-1.9218,-1.9108,-1.9008,-1.8952,-1.8885,-1.8852,-1.8852,-1.8808,-1.8774,-1.8731,-1.8731,-1.8639,-1.8573,-1.8168,-1.7874,-1.7652,-1.7525,-1.7307,-1.6984,-1.6796,-1.6857,-1.6896,-1.6976,-1.7015,-1.7043,-1.7183,-1.7284,-1.7301,-1.7346,-1.7468,-1.7579,-1.77,-1.781,-1.7865,-1.7936,-1.8073,-1.8209,-1.8494,-1.8895,-2.4106,-2.373,-2.3276,-2.2982,-2.283,-2.2787,-2.2769,-2.2678,-2.2537,-2.2525,-2.2616,-2.2647,-2.2616,-2.2506,-2.2475,-2.2383,-2.2321,-2.2259,-2.2135,-2.2023,-2.1949,-2.1886,-2.173,-2.1592,-2.1529,-2.1498,-2.1319,-2.1117,-2.0935,-2.0603,-2.0421,-2.0356,-2.0074,-1.9889,-1.9824,-1.9594,-1.944,-1.9483,-1.9218,-1.9175,-1.9274,-1.9308,-1.9274,-1.9142,-1.9042,-1.8908,-1.8774,-1.8674,-1.8607,-1.8506,-1.8482,-1.8347,-1.8303,-1.8245,-1.8255,-1.8279,-1.8279,-1.8279,-1.8279,-1.8313,-1.8313,-1.8313,-1.8313,-1.8245,-1.8255,-1.8347,-1.8448,-1.8482,-1.8583,-1.865,-1.865,-1.865,-1.865,-1.8717,-1.8717,-1.8785,-1.8818,-1.8785,-1.8751,-1.8717,-1.865,-1.865,-1.865,-1.865,-1.8617,-1.8617,-1.8516,-1.8482,-1.8372,-1.8258,-1.7956,-1.7749,-1.7626,-1.7221,-1.6761,-1.6646,-1.6661,-1.6644,-1.6704,-1.6744,-1.6828,-1.6902,-1.6948,-1.6937,-1.6994,-1.7117,-1.7228,-1.7323,-1.7368,-1.7374,-1.7457,-1.754,-1.7705,-1.7854,-1.8197,-2.3449,-2.2873,-2.2739,-2.269,-2.2647,-2.2616,-2.2598,-2.2525,-2.2259,-2.2123,-2.2166,-2.2402,-2.234,-2.2228,-2.2104,-2.1917,-2.1781,-2.18,-2.1718,-2.1635,-2.1592,-2.1466,-2.1391,-2.1348,-2.1233,-2.1042,-2.0818,-2.0722,-2.0593,-2.0259,-2.002,-1.9944,-1.9791,-1.9583,-1.9517,-1.9384,-1.9218,-1.9152,-1.8985,-1.8808,-1.8841,-1.8942,-1.8875,-1.8808,-1.8741,-1.864,-1.8539,-1.8472,-1.8472,-1.8371,-1.8303,-1.8202,-1.81,-1.8076,-1.8076,-1.8076,-1.8076,-1.8076,-1.8042,-1.8076,-1.8042,-1.8042,-1.8008,-1.8008,-1.8008,-1.8086,-1.8178,-1.8279,-1.8381,-1.8414,-1.8414,-1.8414,-1.8448,-1.8482,-1.8482,-1.8516,-1.8516,-1.8482,-1.8482,-1.8482,-1.8448,-1.8414,-1.8414,-1.8414,-1.8414,-1.8414,-1.8448,-1.8448,-1.8395,-1.8234,-1.8055,-1.7861,-1.7725,-1.7261,-1.6748,-1.6678,-1.6757,-1.6674,-1.6739,-1.6657,-1.6584,-1.6545,-1.6534,-1.6609,-1.6666,-1.6722,-1.6807,-1.6874,-1.6892,-1.6955,-1.7078,-1.7217,-1.729,-1.744,-1.7567,-2.2868,-2.2751,-2.2708,-2.2616,-2.2451,-2.234,-2.2185,-2.203,-2.1874,-2.1792,-2.1781,-2.1663,-2.1663,-2.1792,-2.1792,-2.1667,-2.1541,-2.1454,-2.1348,-2.1296,-2.1201,-2.1042,-2.0946,-2.0935,-2.0862,-2.0625,-2.0421,-2.0237,-2.0194,-1.9889,-1.9693,-1.966,-1.9473,-1.9351,-1.9318,-1.9119,-1.8908,-1.8852,-1.8751,-1.8573,-1.8539,-1.8617,-1.8583,-1.8549,-1.8583,-1.8482,-1.8381,-1.8337,-1.8245,-1.8144,-1.8076,-1.8032,-1.8042,-1.8008,-1.8008,-1.8008,-1.8008,-1.8008,-1.8008,-1.7974,-1.7964,-1.7964,-1.793,-1.794,-1.794,-1.794,-1.8008,-1.8008,-1.811,-1.811,-1.8144,-1.8144,-1.8178,-1.8313,-1.8381,-1.8414,-1.8448,-1.8381,-1.8347,-1.8279,-1.8212,-1.8178,-1.811,-1.811,-1.8076,-1.8076,-1.8086,-1.812,-1.8076,-1.8056,-1.807,-1.7933,-1.7776,-1.7578,-1.7178,-1.7038,-1.703,-1.69,-1.6749,-1.6634,-1.6418,-1.6089,-1.6087,-1.6259,-1.6306,-1.6324,-1.6392,-1.6506,-1.662,-1.6694,-1.6818,-1.6902,-1.6948,-1.7022,-1.7134]},{"header":{"parameterUnit":"m.s-1","parameterCategory":1,"la1":31.0,"la2":29.5877,"lo1":-88.7671,"lo2":-86.6584,"dy":0.0162,"dx":0.0185,"nx":115,"ny":88,"refTime":"2023-07-22T06:00:00:Z","depth":0,"parameterNumber":3,"parameterNumberName":"V-component_of_WINDS"},"data":[0.0,0.0,0.0,0.0,0.0,0.0,0.0,0.0,0.0,0.0,0.0,0.0,0.0,0.0,0.0,0.0,0.0,0.0,0.0,0.0,0.0,0.0,0.0,0.0,0.0,0.0,0.0,0.0,0.0,0.0,0.0,0.0,0.0,0.0,0.0,0.0,0.0,0.0,0.0,0.0,0.0,0.0,0.0,0.0,0.0,0.0,0.0,0.0,0.0,0.0,0.0,0.0,0.0,0.0,0.0,0.0,0.0,0.0,0.0,0.0,0.0,0.0,0.0,0.0,0.0,0.0,0.0,0.0,0.0,0.0,0.0,0.0,0.0,0.0,0.0,0.0,0.0,0.0,0.0,0.0,0.0,0.0,0.0,0.0,0.0,0.0,0.0,0.0,0.0,0.0,0.0,0.0,0.0,0.0,0.0,0.0,0.0,0.0,0.0,0.0,0.0,0.0,0.0,0.0,0.0,0.0,0.0,0.0,0.0,0.0,0.0,0.0,0.0,0.0,0.0,0.0,0.0,0.0,0.0,0.0,0.0,0.0,0.0,0.0,0.0,0.0,0.0,0.0,0.0,0.0,0.0,0.0,0.0,0.0,0.0,0.0,0.0,0.0,0.0,0.0,0.0,0.0,0.0,0.0,0.0,0.0,0.0,0.0,0.0,0.0,0.0,0.0,0.0,0.0,0.0,0.0,0.0,0.0,0.0,0.0,0.0,0.0,0.0,0.0,0.0,0.0,0.0,0.0,0.0,0.0,0.0,0.0,0.0,0.0,0.0,0.0,0.0,0.0,0.0,0.0,0.0,0.0,0.0,0.0,0.0,0.0,0.0,0.0,0.0,0.0,0.0,0.0,0.0,0.0,0.0,0.0,0.0,0.0,0.0,0.0,0.0,0.0,0.0,0.0,0.0,0.0,0.0,0.0,0.0,0.0,0.0,0.0,0.0,0.0,0.0,0.0,0.0,0.0,0.0,0.0,0.0,0.0,0.0,0.0,0.0,0.0,0.0,0.0,0.0,0.0,0.0,0.0,0.0,0.0,0.0,0.0,0.0,0.0,0.0,0.0,0.0,0.0,0.0,0.0,0.0,0.0,0.0,0.0,0.0,0.0,0.0,0.0,0.0,0.0,0.0,0.0,0.0,0.0,0.0,0.0,0.0,0.0,0.0,0.0,0.0,0.0,0.0,0.0,0.0,0.0,0.0,0.0,0.0,0.0,0.0,0.0,0.0,0.0,0.0,0.0,0.0,0.0,0.0,0.0,0.0,0.0,0.0,0.0,0.0,0.0,0.0,0.0,0.0,0.0,0.0,0.0,0.0,0.0,0.0,0.0,0.0,0.0,0.0,0.0,0.0,0.0,0.0,0.0,0.0,0.0,0.0,0.0,0.0,0.0,0.0,0.0,0.0,0.0,0.0,0.0,0.0,0.0,0.0,0.0,0.0,0.0,0.0,0.0,0.0,0.0,0.0,0.0,0.0,0.0,0.0,0.0,0.0,0.0,0.0,0.0,0.0,0.0,0.0,0.0,0.0,0.0,0.0,0.0,0.0,0.0,0.0,0.0,0.0,0.0,0.0,0.0,0.0,0.0,0.0,0.0,0.0,0.0,0.0,0.0,0.0,0.0,0.0,0.0,0.0,0.0,0.0,0.0,0.0,0.0,0.0,0.0,0.0,0.0,0.0,0.0,0.0,0.0,0.0,0.0,0.0,0.0,0.0,0.0,0.0,0.0,0.0,0.0,0.0,0.0,0.0,0.0,0.0,0.0,0.0,0.0,0.0,0.0,0.0,0.0,0.0,0.0,0.0,0.0,0.0,0.0,0.0,0.0,0.0,0.0,0.0,0.0,0.0,0.0,0.0,0.0,0.0,0.0,0.0,0.0,0.0,0.0,0.0,0.0,0.0,0.0,0.0,0.0,0.0,0.0,0.0,0.0,0.0,0.0,0.0,0.0,0.0,0.0,0.0,0.0,0.0,0.0,0.0,0.0,0.0,0.0,0.0,0.0,0.0,0.0,0.0,0.0,0.0,0.0,0.0,0.0,0.0,0.0,0.0,0.0,0.0,0.0,0.0,0.0,0.0,0.0,0.0,0.0,0.0,0.0,0.0,0.0,0.0,0.0,0.0,0.0,0.0,0.0,0.0,0.0,0.0,0.0,0.0,0.0,0.0,0.0,0.0,0.0,0.0,0.0,0.0,0.0,0.0,0.0,0.0,0.0,0.0,0.0,0.0,0.0,0.0,0.0,0.0,0.0,0.0,0.0,0.0,0.0,0.0,0.0,0.0,0.0,0.0,0.0,0.0,0.0,0.0,0.0,0.0,0.0,0.0,0.0,0.0,0.0,0.0,0.0,0.0,0.0,0.0,0.0,0.0,0.0,0.0,0.0,0.0,0.0,0.0,0.0,0.0,0.0,0.0,0.0,0.0,0.0,0.0,0.0,0.0,0.0,0.0,0.0,0.0,0.0,0.0,0.0,0.0,0.0,0.0,0.0,0.0,0.0,0.0,0.0,0.0,0.0,0.0,0.0,0.0,0.0,0.0,0.0,0.0,0.0,0.0,0.0,0.0,0.0,0.0,0.0,0.0,0.0,0.0,0.0,0.0,0.0,0.0,0.0,0.0,0.0,0.0,0.0,0.0,0.0,0.0,0.0,0.0,0.0,0.0,0.0,0.0,0.0,0.0,0.0,0.0,0.0,0.0,0.0,0.0,0.0,0.0,0.0,0.0,0.0,0.0,0.0,0.0,0.0,0.0,0.0,0.0,0.0,0.0,0.0,0.0,0.0,0.0,0.0,0.0,0.0,0.0,0.0,0.0,0.0,0.0,0.0,0.0,0.0,0.0,0.0,0.0,0.0,0.0,0.0,0.0,0.0,0.0,0.0,0.0,0.0,0.0,0.0,0.0,0.0,0.0,0.0,0.0,0.0,0.0,0.0,0.0,0.0,0.0,0.0,0.0,0.0,0.0,0.0,0.0,0.0,0.0,0.0,0.0,0.0,0.0,0.0,0.0,0.0,0.0,0.0,0.0,0.0,0.0,0.0,0.0,0.0,0.0,0.0,0.0,0.0,0.0,0.0,0.0,0.0,0.0,0.0,0.0,0.0,0.0,0.0,0.0,0.0,0.0,0.0,0.0,0.0,0.0,0.0,0.0,0.0,0.0,0.0,0.0,0.0,0.0,0.0,0.0,0.0,0.0,0.0,0.0,0.0,0.0,0.0,0.0,0.0,0.0,0.0,0.0,0.0,0.0,0.0,0.0,0.0,0.0,0.0,0.0,0.0,0.0,0.0,0.0,0.0,0.0,0.0,0.0,0.0,0.0,0.0,0.0,0.0,0.0,0.0,0.0,0.0,0.0,0.0,0.0,0.0,0.0,0.0,0.0,0.0,0.0,0.0,0.0,0.0,0.0,0.0,0.0,0.0,0.0,0.0,0.0,0.0,0.0,0.0,0.0,0.0,0.0,0.0,0.0,0.0,0.0,0.0,0.0,0.0,0.0,0.0,0.0,0.0,0.0,0.0,0.0,0.0,0.0,0.0,0.0,0.0,0.0,0.0,0.0,0.0,0.0,0.0,0.0,0.0,0.0,0.0,0.0,0.0,0.0,0.0,0.0,0.0,0.0,0.0,0.0,0.0,0.0,0.0,0.0,0.0,0.0,0.0,0.0,0.0,0.0,0.0,0.0,0.0,0.0,0.0,0.0,0.0,0.0,0.0,0.0,0.0,0.0,0.0,0.0,0.0,0.0,0.0,0.0,0.0,0.0,0.0,0.0,0.0,0.0,0.0,0.0,0.0,0.0,0.0,0.0,0.0,0.0,0.0,0.0,0.0,0.0,0.0,0.0,0.0,0.0,0.0,0.0,0.0,0.0,0.0,0.0,0.0,0.0,0.0,0.0,0.0,0.0,0.0,0.0,0.0,0.0,0.0,0.0,0.0,0.0,0.0,0.0,0.0,0.0,0.0,0.0,0.0,0.0,0.0,0.0,0.0,0.0,0.0,0.0,0.0,0.0,0.0,0.0,0.0,0.0,0.0,0.0,0.0,0.0,0.0,0.0,0.0,0.0,0.0,0.0,0.0,0.0,0.0,0.0,0.0,0.0,0.0,0.0,0.0,0.0,0.0,0.0,0.0,0.0,0.0,0.0,0.0,0.0,0.0,0.0,0.0,0.0,0.0,0.0,0.0,0.0,0.0,0.0,0.0,0.0,0.0,0.0,0.0,0.0,0.0,0.0,0.0,0.0,0.0,0.0,0.0,0.0,0.0,0.0,0.0,0.0,0.0,0.9038,0.0,0.0,0.0,0.0,0.0,0.0,0.0,0.0,0.0,0.0,0.0,0.0,0.0,0.0,0.0,0.0,0.0,0.0,0.0,0.0,0.0,0.0,0.0,0.0,0.0,0.0,0.0,0.0,0.0,0.0,0.0,0.0,0.0,0.0,0.0,0.0,0.0,0.0,0.0,0.0,0.0,0.0,0.0,0.0,0.0,0.0,0.0,0.0,0.0,0.0,0.0,0.0,0.0,0.0,0.0,0.0,0.0,0.0,0.0,0.0,0.0,0.0,0.0,0.0,0.0,0.0,0.0,0.0,0.0,0.0,0.0,0.0,0.0,0.0,0.0,0.0,0.0,0.0,0.0,0.0,0.0,0.0,0.0,0.0,0.0,0.0,0.0,0.0,0.0,0.0,0.0,0.0,0.0,0.0,0.0,0.0,0.0,0.0,0.0,0.0,0.0,0.0,0.0,0.0,0.0,0.0,0.0,0.0,0.0,0.0,0.8859,0.8727,0.8468,0.834,0.834,0.0,0.0,0.0,0.0,0.0,0.0,0.0,0.0,0.0,0.0,0.0,0.0,0.0,0.0,0.0,0.0,0.0,0.0,0.0,0.0,0.0,0.0,0.0,0.0,0.0,0.0,0.0,0.0,0.0,0.0,0.0,0.0,0.0,0.0,0.0,0.0,0.0,0.0,0.0,0.0,0.0,0.0,0.0,0.0,0.0,0.0,0.0,0.0,0.0,0.0,0.0,0.0,0.0,0.0,0.0,0.0,0.0,0.0,0.0,0.0,0.0,0.0,0.0,0.0,0.0,0.0,0.0,0.0,0.0,0.0,0.0,0.0,0.0,0.0,0.0,0.0,0.0,0.0,0.0,0.0,0.0,0.0,0.0,0.0,0.0,0.0,0.0,0.0,0.0,0.0,0.0,0.0,0.0,0.0,0.0,0.0,0.0,0.0,0.0,0.0,0.0,0.0,0.0,0.0,0.0,0.0,0.0,0.0,0.0,0.0,0.0,0.0,0.7871,0.7676,0.7544,0.0,0.0,0.0,0.0,0.0,0.0,0.0,0.0,0.0,0.0,0.0,0.0,0.0,0.0,0.0,0.0,0.0,0.0,0.0,0.0,0.0,0.0,0.0,0.0,0.0,0.0,0.0,0.0,0.0,0.0,0.0,0.0,0.0,0.0,0.0,0.0,0.0,0.0,0.0,0.0,0.0,0.0,0.0,0.0,0.0,0.0,0.0,0.0,0.0,0.0,0.0,0.0,0.0,0.0,0.0,0.0,0.0,0.0,0.0,0.0,0.0,0.0,0.0,0.0,0.0,0.0,0.0,0.0,0.0,0.0,0.0,0.0,0.0,0.0,0.0,0.0,0.0,0.0,0.0,0.0,0.0,0.0,0.0,0.0,0.0,0.0,0.0,0.0,0.0,0.0,0.0,0.0,0.0,0.0,0.0,0.0,0.0,0.0,0.0,0.0,0.0,0.0,0.0,0.0,0.0,0.0,0.0,0.0,0.0,0.0,0.8129,0.808,0.7485,0.0,0.6564,0.0,0.0,0.0,0.0,0.0,0.0,0.0,0.0,0.0,0.0,0.0,0.0,0.0,0.0,0.0,0.0,0.0,0.0,0.0,0.0,0.0,0.0,0.0,0.0,0.0,0.0,0.0,0.0,0.0,0.0,0.0,0.0,0.0,0.0,0.0,0.0,0.0,0.0,0.0,0.0,0.0,0.0,0.0,0.0,0.0,0.0,0.0,0.0,0.0,0.0,0.0,0.0,0.0,0.0,0.0,0.0,0.0,0.0,0.0,0.0,0.0,0.0,0.0,0.0,0.0,0.0,0.0,0.0,0.0,0.0,0.0,0.0,0.0,0.0,0.0,0.0,0.0,0.0,0.0,0.0,0.0,0.0,0.0,0.0,0.0,0.0,0.0,0.0,0.0,0.0,0.0,0.0,0.0,0.0,0.0,0.0,0.0,0.0,0.0,0.0,0.0,0.0,0.0,0.0,0.0,0.0,0.0,0.0,0.0,0.0,0.7601,0.7468,0.6952,0.6473,0.0,0.0,0.0,0.0,0.0,0.0,0.0,0.0,0.0,0.0,0.0,0.0,0.0,0.0,0.0,0.0,0.0,0.0,0.0,0.0,0.0,0.0,0.0,0.0,0.0,0.0,0.0,0.0,0.0,0.0,0.0,0.0,0.0,0.0,0.0,0.0,0.0,0.0,0.0,0.0,0.0,0.0,0.0,0.0,0.0,0.0,0.0,0.0,0.0,0.0,0.0,0.0,0.0,0.0,0.0,0.0,0.0,0.0,0.0,0.0,0.0,0.0,0.0,0.0,0.0,0.0,0.0,0.0,0.0,0.0,0.0,0.0,0.0,0.0,0.0,0.0,0.0,0.0,0.0,0.0,0.0,0.0,0.0,0.0,0.0,0.0,0.0,0.0,0.0,0.0,0.0,0.0,0.0,0.0,0.0,0.0,0.0,0.0,0.0,0.0,0.0,0.0,0.0,0.0,0.0,0.0,0.0,0.0,0.0,0.0,0.7509,0.7119,0.6675,0.6349,0.5985,0.5542,0.0,0.0,0.0,0.0,0.0,0.0,0.0,0.0,0.0,0.0,0.0,0.0,0.0,0.0,0.0,0.0,0.0,0.0,0.0,0.0,0.0,0.0,0.0,0.0,0.0,0.0,0.0,0.0,0.0,0.0,0.0,0.0,0.0,0.0,0.0,0.0,0.0,0.0,0.0,0.0,0.0,0.0,0.0,0.0,0.0,0.0,0.0,0.0,0.0,0.0,0.0,0.0,0.0,0.0,0.0,0.0,0.0,0.0,0.0,0.0,0.0,0.0,0.0,0.0,0.0,0.0,0.0,0.0,0.0,0.0,0.0,0.0,0.0,0.0,0.0,0.0,0.0,0.0,0.0,0.0,0.0,0.0,0.0,0.0,0.0,0.0,0.0,0.0,0.0,0.0,0.0,0.0,0.0,0.0,0.0,0.0,0.0,0.0,0.0,0.0,0.0,0.0,0.0,0.0,0.0,0.0,0.0,0.0,0.7408,0.7276,0.6747,0.583,0.5722,0.5542,0.0,0.0,0.0,0.0,0.0,0.0,0.0,0.0,0.0,0.0,0.0,0.0,0.0,0.0,0.0,0.0,0.0,0.0,0.0,0.0,0.0,0.0,0.0,0.0,0.0,0.0,0.0,0.0,0.0,0.0,0.0,0.0,0.0,0.0,0.0,0.0,0.0,0.0,0.0,0.0,0.0,0.0,0.0,0.0,0.0,0.0,0.0,0.0,0.0,0.0,0.0,0.0,0.0,0.0,0.0,0.0,0.0,0.0,0.0,0.0,0.0,0.0,0.0,0.0,0.0,0.0,0.0,0.0,0.0,0.0,0.0,0.0,0.0,0.0,0.0,0.0,0.0,0.0,0.0,0.0,0.0,0.0,0.0,0.0,0.0,0.0,0.0,0.0,0.0,0.0,0.0,0.0,0.0,0.0,0.0,0.0,0.0,0.0,0.0,0.0,0.0,0.0,0.0,0.0,0.0,0.0,0.0,0.0,0.0,0.7494,0.7047,0.6337,0.556,0.5502,0.5191,0.0,0.0,0.0,0.0,0.0,0.0,0.0,0.0,0.0,0.0,0.0,0.0,0.0,0.0,0.0,0.0,0.0,0.0,0.0,0.0,0.0,0.0,0.0,0.0,0.0,0.0,0.0,0.0,0.0,0.0,0.0,0.0,0.0,0.0,0.0,0.0,0.0,0.0,0.0,0.0,0.0,0.0,0.0,0.0,0.0,0.0,0.0,0.0,0.0,0.0,0.0,0.0,0.0,0.0,0.0,0.0,0.0,0.0,0.0,0.0,0.0,0.0,0.0,0.0,0.0,0.0,0.0,0.0,0.0,0.0,0.0,0.0,0.0,0.0,0.0,0.0,0.0,0.0,0.0,0.0,0.0,0.0,0.0,0.0,0.0,0.0,0.0,0.0,0.0,0.0,0.0,0.0,0.0,0.0,0.0,0.0,0.0,0.0,0.0,0.0,0.0,0.0,0.0,0.0,0.0,0.0,0.0,0.0,0.0,0.7244,0.0,0.5931,0.5292,0.5104,0.479,0.0,0.0,0.0,0.0,0.0,0.0,0.0,0.0,0.0,0.0,0.0,0.0,0.0,0.0,0.0,0.0,0.0,0.0,0.0,0.0,0.0,0.0,0.0,0.0,0.0,0.0,0.0,0.0,0.0,0.0,0.0,0.0,0.0,0.0,0.0,0.0,0.0,0.0,0.0,0.0,0.0,0.0,0.0,0.0,0.0,0.0,0.0,0.0,0.0,0.0,0.0,0.0,0.0,0.0,0.0,0.0,0.0,0.0,0.0,0.0,0.0,0.0,0.0,0.0,0.0,0.0,0.0,0.0,0.0,0.0,0.0,0.0,0.0,0.0,0.0,0.0,0.0,0.0,0.0,0.0,0.0,0.0,0.0,0.0,0.0,0.0,0.0,0.0,0.0,0.0,0.0,0.0,0.0,0.0,0.0,0.0,0.0,0.0,0.0,0.0,0.0,0.0,0.0,0.0,0.0,0.0,0.0,0.0,0.6979,0.6505,0.5928,0.5446,0.5015,0.4565,0.4168,0.0,0.0,0.0,0.0,0.0,0.0,0.0,0.0,0.0,0.0,0.0,0.0,0.0,0.0,0.0,0.0,0.0,0.0,0.0,0.0,0.0,0.0,0.0,0.0,0.0,0.0,0.0,0.0,0.0,0.0,0.0,0.0,0.0,0.0,0.0,0.0,0.0,0.0,0.0,0.0,0.0,0.0,0.0,0.0,0.0,0.0,0.0,0.0,0.0,0.0,0.0,0.0,0.0,0.0,0.0,0.0,0.0,0.0,0.0,0.0,0.0,0.0,0.0,0.0,0.0,0.0,0.0,0.0,0.0,0.0,0.0,0.0,0.0,0.0,0.0,0.0,0.0,0.0,0.0,0.0,0.0,0.0,0.0,0.0,0.0,0.0,0.0,0.0,0.0,0.0,0.0,0.0,0.0,0.0,0.0,0.0,0.0,0.0,0.0,0.0,0.0,0.0,0.0,0.0,0.0,0.0,0.0,0.0,0.0,0.5934,0.5737,0.5352,0.4797,0.4478,0.4121,0.0,0.0,0.0,0.0,0.0,0.0,0.0,0.0,0.0,0.0,0.0,0.0,0.0,0.0,0.0,0.0,0.0,0.0,0.0,0.0,0.0,0.0,0.0,0.0,0.0,0.0,0.0,0.0,0.0,0.0,0.0,0.0,0.0,0.0,0.0,0.0,0.0,0.0,0.0,0.0,0.0,0.0,0.0,0.0,0.0,0.0,0.0,0.0,0.0,0.0,0.0,0.0,0.0,0.0,0.0,0.0,0.0,0.0,0.0,0.0,0.0,0.0,0.0,0.0,0.0,0.0,0.0,0.0,0.0,0.0,0.0,0.0,0.0,0.0,0.0,0.0,0.0,0.0,0.0,0.0,0.0,0.0,0.0,0.0,0.0,0.0,0.0,0.0,0.0,0.0,0.0,0.0,0.0,0.0,0.0,0.0,0.0,0.0,0.0,0.0,0.0,0.0,0.0,0.0,0.0,0.0,0.0,0.0,0.0,0.5361,0.5305,0.5039,0.4569,0.421,0.3808,0.3361,0.0,0.0,0.0,0.0,0.0,0.0,0.0,0.0,0.0,0.0,0.0,0.0,0.0,0.0,0.0,0.0,0.0,0.0,0.0,0.0,0.0,0.0,0.0,0.0,0.0,0.0,0.0,0.0,0.0,0.0,0.0,0.0,0.0,0.0,0.0,0.0,0.0,0.0,0.0,0.0,0.0,0.0,0.0,0.0,0.0,0.0,0.0,0.0,0.0,0.0,0.0,0.0,0.0,0.0,0.0,0.0,0.0,0.0,0.0,0.0,0.0,0.0,0.0,0.0,0.0,0.0,0.0,0.0,0.0,0.0,0.0,0.0,0.0,0.0,0.0,0.0,0.0,0.0,0.0,0.0,0.0,0.0,0.0,0.0,0.0,0.0,0.0,0.0,0.0,0.0,0.0,0.0,0.0,0.0,0.0,0.0,0.0,0.0,0.0,0.0,0.0,0.0,0.0,0.0,0.0,0.0,0.0,0.0,0.4809,0.4712,0.4525,0.43,0.3808,0.3361,0.0,0.0,0.0,0.0,0.0,0.0,0.0,0.0,0.0,0.0,0.0,0.0,0.0,0.0,0.0,0.0,0.0,0.0,0.0,0.0,0.0,0.0,0.0,0.0,0.0,0.0,0.0,0.0,0.0,0.0,0.0,0.0,0.0,0.0,0.0,0.0,0.0,0.0,0.0,0.0,0.0,0.0,0.0,0.0,0.0,0.0,0.0,0.0,0.0,0.0,0.0,0.0,0.0,0.0,0.0,0.0,0.0,0.0,0.0,0.0,0.0,0.0,0.0,0.0,0.0,0.0,0.0,0.0,0.0,0.0,0.0,0.0,0.0,0.0,0.0,0.0,0.0,0.0,0.0,0.0,0.0,0.0,0.0,0.0,0.0,0.0,0.0,0.0,0.0,0.0,0.0,0.0,0.0,0.0,0.0,0.0,0.0,0.0,0.0,0.0,0.0,0.0,0.0,0.0,0.0,0.0,0.0,0.0,0.0,0.4807,0.4351,0.408,0.3991,0.354,0.3181,0.0,0.0,0.0,0.0,0.0,0.0,0.0,0.0,0.0,0.0,0.0,0.0,0.0,0.0,0.0,0.0,0.0,0.0,0.0,0.0,0.0,0.0,0.0,0.0,0.0,0.0,0.0,0.0,0.0,0.0,0.0,0.0,0.0,0.0,0.0,0.0,0.0,0.0,0.0,0.0,0.0,0.0,0.0,0.0,0.0,0.0,0.0,0.0,0.0,0.0,0.0,0.0,0.0,0.0,0.0,0.0,0.0,0.0,0.0,0.0,0.0,0.0,0.0,0.0,0.0,0.0,0.0,0.0,0.0,0.0,0.0,0.0,0.0,0.0,0.0,0.0,0.0,0.0,0.0,0.0,0.0,0.0,0.0,0.0,0.0,0.0,0.0,0.0,0.0,0.0,0.0,0.0,0.0,0.0,0.0,0.0,0.0,0.0,0.0,0.0,0.0,0.0,0.0,0.0,0.0,0.0,0.0,0.0,0.4603,0.4429,0.3881,0.354,0.3496,0.3226,0.2913,0.0,0.0,0.0,0.0,0.0,0.0,0.0,0.0,0.0,0.0,0.0,0.0,0.0,0.0,0.0,0.0,0.0,0.0,0.0,0.0,0.0,0.0,0.0,0.0,0.0,0.0,0.0,0.0,0.0,0.0,0.0,0.0,0.0,0.0,0.0,0.0,0.0,0.0,0.0,0.0,0.0,0.0,0.0,0.0,0.0,0.0,0.0,0.0,0.0,0.0,0.0,0.0,0.0,0.0,0.0,0.0,0.0,0.0,0.0,0.0,0.0,0.0,0.0,0.0,0.0,0.0,0.0,0.0,0.0,0.0,0.0,0.0,0.0,0.0,0.0,0.0,0.0,0.0,0.0,0.0,0.0,0.0,0.0,0.0,0.0,0.0,0.0,0.0,0.0,0.0,0.0,0.0,0.0,0.0,0.0,0.0,0.0,0.0,0.0,0.0,0.0,0.0,0.0,0.0,0.0,0.0,0.0,0.0,0.4249,0.3905,0.3406,0.309,0.2911,0.2868,0.2644,0.0,0.0,0.0,0.0,0.0,0.0,0.0,0.0,0.0,0.0,0.0,0.0,0.0,0.0,0.0,0.0,0.0,0.0,0.0,0.0,0.0,0.0,0.0,0.0,0.0,0.0,0.0,0.0,0.0,0.0,0.0,0.0,0.0,0.0,0.0,0.0,0.0,0.0,0.0,0.0,0.0,0.0,0.0,0.0,0.0,0.0,0.0,0.0,0.0,0.0,0.0,0.0,0.0,0.0,0.0,0.0,0.0,0.0,0.0,0.0,0.0,0.0,0.0,0.0,0.0,0.0,0.0,0.0,0.0,0.0,0.0,0.0,0.0,0.0,0.0,0.0,0.0,0.0,0.0,0.0,0.0,0.0,0.0,0.0,0.0,0.0,0.0,0.0,0.0,0.0,0.0,0.0,0.0,0.0,0.0,0.0,0.0,0.0,0.0,0.0,0.0,0.0,0.0,0.0,0.0,0.0,0.0,0.0,0.3963,0.3901,0.327,0.2956,0.2911,0.269,0.2378,0.0,0.0,0.0,0.0,0.0,0.0,0.0,0.0,0.0,0.0,0.0,0.0,0.0,0.0,0.0,0.0,0.0,0.0,0.0,0.0,0.0,0.0,0.0,0.0,0.0,0.0,0.0,0.0,0.0,0.0,0.0,0.0,0.0,0.0,0.0,0.0,0.0,0.0,0.0,0.0,0.0,0.0,0.0,0.0,0.0,0.0,0.0,0.0,0.5053,0.0,0.0,0.0,0.0,0.0,0.0,0.0,0.0,0.0,0.0,0.0,0.0,0.0,0.0,0.0,0.0,0.0,0.0,0.0,0.0,0.0,0.0,0.0,0.0,0.0,0.0,0.0,0.0,0.0,0.0,0.0,0.0,0.0,0.0,0.0,0.0,0.0,0.0,0.0,0.0,0.0,0.0,0.0,0.0,0.0,0.0,0.0,0.0,0.0,0.0,0.0,0.0,0.0,0.0,0.0,0.0,0.0,0.0,0.0,0.3676,0.3406,0.2959,0.2601,0.242,0.2242,0.2064,0.0,0.0,0.0,0.0,0.0,0.0,0.0,0.0,0.0,0.0,0.0,0.0,0.0,0.0,0.0,0.0,0.0,0.0,0.0,0.0,0.0,0.0,0.0,0.0,0.0,0.0,0.0,0.0,0.0,0.0,0.0,0.0,0.0,0.0,0.0,0.0,0.0,0.0,0.0,0.0,0.0,0.0,0.0,0.0,0.0,0.0,0.0,0.0,0.0,0.0,0.0,0.0,0.0,0.0,0.0,0.0,0.0,0.0,0.0,0.0,0.0,0.0,0.0,0.0,0.0,0.0,0.0,0.0,0.0,0.0,0.0,0.0,0.0,0.0,0.0,0.0,0.0,0.0,0.0,0.0,0.0,0.0,0.0,0.0,0.0,0.0,0.0,0.0,0.0,0.0,0.0,0.0,0.0,0.0,0.0,0.0,0.0,0.0,0.0,0.0,0.0,0.0,0.0,0.0,0.0,0.0,0.0,0.381,0.3361,0.2911,0.2602,0.2244,0.1795,0.175,0.1705,0.1705,0.0,0.0,0.0,0.0,0.0,0.0,0.0,0.0,0.0,0.0,0.0,0.0,0.0,0.0,0.0,0.0,0.0,0.0,0.0,0.0,0.0,0.0,0.0,0.0,0.0,0.0,0.0,0.0,0.0,0.0,0.0,0.0,0.0,0.0,0.0,0.0,0.0,0.0,1.1823,1.0733,0.0,0.0,0.0,0.0,0.0,0.0,0.0,0.0,0.4385,0.0,0.0,0.0,0.0,0.0,0.0,0.0,0.0,0.0,0.0,0.0,0.0,0.0,0.0,0.0,0.0,0.0,0.0,0.0,0.0,0.0,0.0,0.0,0.0,0.0,0.0,0.0,0.0,0.0,0.0,0.0,0.0,0.0,0.0,0.0,0.0,0.0,0.0,0.0,0.0,0.0,0.0,0.0,0.0,0.0,0.0,0.0,0.0,0.0,0.0,0.0,0.0,0.0,0.0,0.0,0.0,0.3991,0.3721,0.3361,0.2913,0.2466,0.2109,0.1795,0.157,0.1391,0.1211,0.0,0.0,0.0,0.0,0.0,0.0,0.0,0.0,0.0,0.0,0.0,0.0,0.0,0.0,0.0,0.0,0.0,0.0,0.0,0.0,0.0,0.0,0.0,0.0,0.0,0.0,0.0,0.0,0.0,0.0,0.0,0.0,0.0,0.0,0.0,0.0,0.0,0.0,0.0,1.0381,0.9733,0.0,0.0,0.0,0.0,0.0,0.0,0.0,0.0,0.3715,0.0,0.0,0.0,0.0,0.0,0.0,0.0,0.0,0.0,0.0,0.0,0.0,0.0,0.0,0.0,0.0,0.0,0.0,0.0,0.0,0.0,0.0,0.0,0.0,0.0,0.0,0.0,0.0,0.0,0.0,0.0,0.0,0.0,0.0,0.0,0.0,0.0,0.0,0.0,0.0,0.0,0.0,0.0,0.0,0.0,0.0,0.0,0.0,0.0,0.0,0.0,0.0,0.0,0.0,0.0,0.3765,0.3631,0.3274,0.2556,0.2288,0.2019,0.1615,0.148,0.1301,0.0,0.0,0.0,0.0,0.0,0.0,0.0,0.0,0.0,0.0,0.0,0.0,0.0,0.0,0.0,0.0,0.0,0.0,0.0,0.0,0.0,0.0,0.0,0.0,0.0,0.0,0.0,0.0,0.0,0.0,0.0,0.0,0.0,0.0,0.0,0.0,0.0,0.0,0.0,0.0,1.0299,0.9781,0.9213,0.0,0.0,0.0,0.0,0.0,0.0,0.4701,0.4121,0.0,0.0,0.0,0.0,0.0,0.0,0.0,0.0,0.0,0.0,0.0,0.0,0.0,0.0,0.0,0.0,0.0,0.0,0.0,0.0,0.0,0.0,0.0,0.0,0.0,0.0,0.0,0.0,0.0,0.0,0.0,0.0,0.0,0.0,0.0,0.0,0.0,0.0,0.0,0.0,0.0,0.0,0.0,0.0,0.0,0.0,0.0,0.0,0.0,0.0,0.0,0.0,0.0,0.0,0.0,0.3631,0.3587,0.3139,0.2244,0.22,0.193,0.1436,0.1391,0.1301,0.0,0.0,0.0,0.0,0.0,0.0,0.0,0.0,0.0,0.0,0.0,0.0,0.0,0.0,0.0,0.0,0.0,0.0,0.0,0.0,0.0,0.0,0.0,0.0,0.0,0.0,0.0,0.0,0.0,0.0,0.0,0.0,0.0,0.0,0.0,0.0,0.0,0.0,0.0,0.0,0.0,0.982,0.9345,0.8468,0.0,0.0,0.0,0.0,0.5547,0.5015,0.0,0.0,0.0,0.0,0.0,0.0,0.0,0.0,0.0,0.0,0.0,0.0,0.0,0.0,0.0,0.0,0.0,0.0,0.0,0.0,0.0,0.0,0.0,0.0,0.0,0.0,0.0,0.0,0.0,0.0,0.0,0.0,0.0,0.0,0.0,0.0,0.0,0.0,0.0,0.0,0.0,0.0,0.0,0.0,0.0,0.0,0.0,0.0,0.0,0.0,0.0,0.0,0.0,0.0,0.0,0.0,0.3631,0.3587,0.3141,0.2243,0.22,0.193,0.1436,0.1391,0.1301,0.0,0.0,0.0,0.0,0.0,0.0,0.0,0.0,0.0,0.0,0.0,0.0,0.0,0.0,0.0,0.0,0.0,0.0,0.0,0.0,0.0,0.0,0.0,0.0,0.0,0.0,0.0,0.0,0.0,0.0,0.0,0.0,0.0,0.0,0.0,0.0,0.0,0.0,0.0,0.0,0.0,0.982,0.9345,0.8516,0.7808,0.0,0.0,0.6207,0.5764,0.5102,0.0,0.0,0.0,0.0,0.0,0.0,0.0,0.0,0.0,0.0,0.0,0.0,0.0,0.0,0.0,0.0,0.0,0.0,0.0,0.0,0.0,0.0,0.0,0.0,0.0,0.0,0.0,0.0,0.0,0.0,0.0,0.0,0.0,0.0,0.0,0.0,0.0,0.0,0.0,0.0,0.0,0.0,0.0,0.0,0.0,0.0,0.0,0.0,0.0,0.0,0.0,0.0,0.0,0.0,0.0,0.4654,0.4034,0.3721,0.3274,0.2601,0.2467,0.2155,0.166,0.166,0.1525,0.0,0.0,0.0,0.0,0.0,0.0,0.0,0.0,0.0,0.0,0.0,0.0,0.0,0.0,0.0,0.0,0.0,0.0,0.0,0.0,0.0,0.0,0.0,0.0,0.0,0.0,0.0,0.0,0.0,0.0,0.0,0.0,0.0,0.0,0.0,0.0,0.0,0.0,0.0,0.0,0.0,0.0,0.9388,0.8732,0.0,0.0,0.0,0.67,0.6047,0.0,0.0,0.0,0.0,0.0,0.0,0.0,0.0,0.0,0.0,0.0,0.0,0.0,0.0,0.0,0.0,0.0,0.0,0.0,0.0,0.0,0.0,0.0,0.0,0.0,0.0,0.0,0.0,0.0,0.0,0.0,0.0,0.0,0.0,0.0,0.0,0.0,0.0,0.0,0.0,0.0,0.0,0.0,0.0,0.0,0.0,0.0,0.0,0.0,0.0,0.0,0.0,0.0,0.0,0.0,0.0,0.0,0.4297,0.3944,0.3496,0.2911,0.2735,0.2378,0.193,0.1885,0.0,0.0,0.0,0.0,0.0,0.0,0.0,0.0,0.0,0.0,0.0,0.0,0.0,0.0,0.0,0.0,0.0,0.0,0.0,0.0,0.0,0.0,0.0,0.0,0.0,0.0,0.0,0.9086,0.0,0.0,0.0,0.0,0.0,0.0,0.0,0.0,0.0,0.0,0.0,0.0,0.0,0.0,1.0038,0.9388,0.8903,0.8476,0.0,0.0,0.7164,0.6593,0.6165,0.5677,0.0,0.0,0.0,0.0,0.0,0.0,0.0,0.0,0.0,0.0,0.0,0.0,0.0,0.0,0.0,0.0,0.0,0.0,0.0,0.0,0.0,0.0,0.0,0.0,0.0,0.0,0.0,0.0,0.0,0.0,0.0,0.0,0.0,0.0,0.0,0.0,0.0,0.0,0.0,0.0,0.0,0.0,0.0,0.0,0.0,0.0,0.0,0.0,0.0,0.0,0.0,0.0,0.0,0.0,0.0,0.4344,0.43,0.3807,0.2956,0.2868,0.2645,0.2199,0.2155,0.2155,0.0,0.0,0.0,0.0,0.0,0.0,0.0,0.0,0.0,0.0,0.0,0.0,0.0,0.0,0.0,0.0,0.0,0.0,0.0,0.0,0.0,0.0,0.0,0.0,0.0,0.0,0.0,0.0,0.0,0.0,0.0,0.0,0.0,0.0,0.0,0.0,0.0,0.0,0.0,0.0,0.0,1.0077,0.9388,0.8903,0.8569,0.0,0.0,0.7411,0.7489,0.672,0.5982,0.5583,0.0,0.0,0.0,0.0,0.0,0.0,0.0,0.0,0.0,0.0,0.0,0.0,0.0,0.0,0.0,0.0,0.0,0.0,0.0,0.0,0.0,0.0,0.0,0.0,0.0,0.0,0.0,0.0,0.0,0.0,0.0,0.0,0.0,0.0,0.0,0.0,0.0,0.0,0.0,0.0,0.0,0.0,0.0,0.0,0.0,0.0,0.0,0.0,0.0,0.0,0.0,0.0,0.0,0.5369,0.4968,0.4523,0.4119,0.3762,0.3496,0.3183,0.2826,0.2826,0.2735,0.0,0.0,0.0,0.0,0.0,0.0,0.0,0.0,0.0,0.0,0.0,0.0,0.0,0.0,0.0,0.0,0.0,0.0,0.0,0.0,0.0,0.0,0.0,0.0,0.0,0.0,0.0,0.0,1.0906,1.1375,1.1929,0.0,0.0,0.0,0.0,0.0,0.0,0.0,0.0,0.0,0.0,1.0342,0.9825,0.9535,0.0,0.0,0.8637,0.8432,0.7922,0.7617,0.7171,0.6394,0.6084,0.0,0.0,0.0,0.0,0.0,0.0,0.0,0.0,0.0,0.0,0.0,0.0,0.0,0.0,0.0,0.0,0.0,0.0,0.0,0.0,0.0,0.0,0.0,0.0,0.0,0.0,0.0,0.0,0.0,0.0,0.0,0.0,0.0,0.0,0.0,0.0,0.0,0.0,0.0,0.0,0.0,0.0,0.0,0.0,0.0,0.0,0.0,0.0,0.0,0.0,0.0,0.0,0.5722,0.5502,0.4924,0.4567,0.4433,0.4034,0.3676,0.3449,0.336,0.327,0.0,0.0,0.0,0.0,0.0,0.0,0.0,0.0,0.0,0.0,0.0,0.0,0.0,0.0,0.0,0.0,0.0,0.0,0.0,0.0,0.0,0.0,0.0,0.0,0.0,0.0,0.0,0.0,1.1322,1.1843,1.2363,0.0,0.0,0.0,0.0,0.0,0.0,0.0,0.0,0.0,0.0,1.0684,1.0164,0.9995,0.9768,0.9295,0.9299,0.9223,0.868,0.8583,0.8254,0.7432,0.0,0.0,0.0,0.0,0.0,0.0,0.0,0.0,0.0,0.0,0.0,0.0,0.0,0.0,0.0,0.0,0.0,0.0,0.0,0.0,0.0,0.0,0.0,0.0,0.0,0.0,0.0,0.0,0.0,0.0,0.0,0.0,0.0,0.0,0.0,0.0,0.0,0.0,0.0,0.0,0.0,0.0,0.0,0.0,0.0,0.0,0.0,0.0,0.0,0.0,0.0,0.0,0.0,0.5949,0.5677,0.5458,0.5149,0.4705,0.4433,0.4164,0.3894,0.3719,0.3585,0.3583,0.0,0.0,0.0,0.0,0.0,0.0,0.0,0.0,0.0,0.0,0.0,0.0,0.0,0.0,0.0,0.0,0.0,0.0,0.0,0.0,0.0,0.0,0.0,0.0,0.0,0.0,1.1327,1.1929,1.2363,0.0,0.0,0.0,0.0,0.0,0.0,0.0,0.0,0.0,0.0,1.1278,1.1063,1.0381,1.0125,1.0067,1.0131,0.974,0.9549,0.9881,0.9497,0.9043,0.0,0.0,0.0,0.0,0.0,0.0,0.0,0.0,0.0,0.0,0.0,0.0,0.0,0.0,0.0,0.0,0.0,0.0,0.0,0.0,0.0,0.0,0.0,0.0,0.0,0.0,0.0,0.0,1.1487,0.0,0.0,0.0,0.0,0.0,0.0,0.0,0.0,0.0,0.0,0.0,1.0588,1.0171,0.0,0.0,0.0,0.0,0.0,0.0,0.0,0.0,0.0,0.0,0.0,0.0,0.6435,0.6163,0.5811,0.55,0.5369,0.4966,0.4743,0.4607,0.4565,0.4493,0.4389,0.0,0.0,0.0,0.0,0.0,0.0,0.0,0.0,0.0,0.0,0.0,0.0,0.0,0.0,0.0,0.0,0.0,0.0,0.0,0.0,0.0,0.0,0.0,0.0,0.0,1.1499,0.0,0.0,0.0,0.0,0.0,0.0,0.0,0.0,0.0,0.0,0.0,1.232,1.2063,1.1763,1.1456,1.1284,1.103,1.0835,0.0,0.0,0.0,0.0,0.0,0.0,0.0,0.0,0.0,0.0,0.0,0.0,0.0,0.0,0.6419,0.4696,0.3849,0.3269,0.2823,0.0,0.0,0.0,0.0,0.0,0.0,0.0,0.0,0.0,0.0,0.0,0.0,0.0,0.0,0.0,0.0,1.2273,0.0,0.0,0.0,0.0,0.0,0.0,0.0,0.0,1.1564,1.1297,1.1069,1.0747,1.0424,0.0,0.9907,0.9515,0.0,0.0,0.0,0.0,0.0,0.0,0.0,0.0,0.6792,0.652,0.6166,0.5941,0.5944,0.5589,0.5366,0.5369,0.5233,0.5051,0.4904,0.4843,0.4816,0.0,0.0,0.0,0.0,0.0,0.0,0.0,0.0,0.0,0.0,0.0,0.0,0.0,0.0,0.0,0.0,0.0,0.0,0.0,0.0,0.0,0.0,0.0,1.2015,0.0,0.0,0.0,0.0,0.0,0.0,0.0,0.0,0.0,1.3228,1.2924,1.2662,1.2534,1.2235,1.1977,1.1811,0.0,0.0,0.0,0.0,0.0,0.0,0.0,1.1027,1.0576,1.0477,1.0361,1.0009,0.9889,0.9758,0.9545,0.0,0.0,0.6113,0.5137,0.4427,0.3582,0.2778,0.1973,0.1256,0.0583,-0.0045,0.0,0.0,0.0,0.0,0.0,0.0,0.0,0.0,1.3098,1.3001,0.0,1.2813,0.0,0.0,0.0,0.0,0.0,0.0,0.0,0.0,1.1863,1.151,1.1311,1.1135,1.0944,1.0679,1.025,1.0038,0.9946,0.9074,0.0,0.0,0.0,0.0,0.0,0.0,0.701,0.6836,0.6564,0.6428,0.6428,0.6213,0.6083,0.608,0.5677,0.5352,0.5152,0.5081,0.518,0.5471,0.5387,0.0,0.0,0.0,0.0,0.0,0.0,0.0,0.0,0.0,0.0,0.0,0.0,0.0,0.0,0.0,0.0,0.0,0.0,0.0,0.0,1.2454,0.0,0.0,0.0,0.0,0.0,0.0,0.0,0.0,0.0,0.0,1.344,1.3392,1.3222,1.2796,0.0,0.0,0.0,0.0,1.1803,1.1999,1.1826,1.1774,1.1973,1.2021,1.1946,1.167,0.0,0.0,1.1365,1.1154,1.0939,1.0684,1.0077,0.9113,0.7478,0.6552,0.5625,0.4249,0.3403,0.251,0.139,0.0762,0.0179,1.455,0.0,0.0,0.0,0.0,1.4058,1.3913,1.3667,1.3673,1.3534,1.3298,1.3298,0.0,0.0,0.0,0.0,0.0,0.0,1.2731,1.24,1.2254,1.2053,1.1799,1.1721,1.151,1.1111,1.0987,1.0771,1.0472,0.9903,0.934,0.8819,0.0,0.0,0.0,0.0,0.7635,0.7547,0.7143,0.6918,0.6918,0.652,0.6343,0.6343,0.6124,0.5889,0.5756,0.5629,0.5545,0.558,0.5853,0.0,0.0,0.0,0.0,0.0,0.0,0.0,0.0,0.0,0.0,0.0,0.0,0.0,0.0,0.0,0.0,0.0,0.0,0.0,1.2454,1.2924,1.3222,0.0,0.0,0.0,0.0,0.0,0.0,0.0,0.0,0.0,1.3913,1.361,1.3349,0.0,0.0,1.3143,1.3015,1.2839,1.2735,1.2764,0.0,0.0,0.0,1.2657,1.2697,1.2429,1.2388,1.2316,1.2118,1.202,1.1849,1.1472,1.0949,1.0202,0.9065,0.7614,0.6287,0.5179,0.3981,0.2823,0.1839,0.1076,0.0359,1.5594,1.5445,1.5029,1.479,1.4592,1.464,1.4544,1.4394,1.4394,1.4304,1.4124,1.4118,1.4172,1.4118,1.4118,0.0,0.0,0.0,1.3326,1.2983,1.2826,1.2657,1.2423,1.2338,1.2112,1.1757,1.1542,1.1284,1.0939,1.0554,1.0081,0.9471,0.0,0.0,0.8372,0.8245,0.8072,0.79,0.7584,0.7408,0.7408,0.7143,0.6892,0.6746,0.6624,0.6489,0.6289,0.6199,0.6169,0.6106,0.637,0.6567,0.0,0.0,0.0,0.0,0.0,0.0,0.0,0.0,0.0,0.0,0.0,0.9805,0.0,0.0,0.0,0.0,1.2372,1.2668,1.296,1.3313,0.0,0.0,0.0,0.0,0.0,0.0,0.0,1.425,1.4286,1.4328,1.4328,1.4075,1.3815,1.3561,1.3525,1.3476,1.3398,0.0,1.3228,1.3222,1.32,1.3163,1.2997,1.3108,1.3157,1.2997,1.2918,1.2833,1.2711,1.2534,1.2283,1.1866,1.1381,1.0722,0.9777,0.8277,0.682,0.5716,0.4427,0.3181,0.2199,0.1346,0.0583,1.6588,1.6494,1.5601,1.5226,1.5226,1.522,1.5178,1.5178,1.5131,1.5131,1.5131,1.5131,1.5131,1.5083,1.5131,0.0,0.0,1.4339,1.4015,1.3767,1.3512,1.3313,1.31,1.2875,1.2662,1.2448,1.1977,1.1628,1.1408,1.116,1.0809,1.0381,0.9777,0.917,0.8719,0.8679,0.8416,0.8032,0.7984,0.794,0.794,0.7885,0.7672,0.7268,0.7197,0.7048,0.6772,0.6744,0.6831,0.6911,0.6976,0.7057,0.7257,0.0,0.0,0.0,0.0,0.0,0.0,0.0,0.0,0.0,0.0,0.0,0.0,0.0,0.0,0.0,1.3179,0.0,1.3434,1.3646,0.0,0.0,0.0,1.4166,1.4124,1.4328,1.4433,1.4433,0.0,0.0,0.0,0.0,1.4489,1.3857,1.3779,1.3737,1.3525,1.3525,1.3519,1.3519,1.3476,1.3489,1.344,1.3496,1.3459,1.3404,1.327,1.3137,1.3052,1.2753,1.2369,1.1995,1.1424,1.0684,0.9777,0.854,0.7349,0.5985,0.4739,0.3537,0.2466,0.1615,0.0807,1.6588,1.6588,1.6353,1.6258,1.6211,1.6028,1.5838,1.5642,1.5458,1.5267,1.5131,1.5131,1.5131,1.5131,1.5131,1.4803,1.4275,1.4205,1.3957,1.35,1.3423,1.3355,1.3313,1.3264,1.3137,1.2924,1.2619,1.2357,1.2143,1.1714,1.1456,1.1332,1.0857,1.0164,0.9384,0.9213,0.9082,0.8955,0.8775,0.8468,0.8153,0.7812,0.764,0.7517,0.7278,0.7152,0.723,0.7113,0.7146,0.733,0.7514,0.7595,0.7672,0.7978,0.0,0.0,0.0,0.0,0.0,0.0,0.0,0.0,0.0,1.1239,1.1748,0.0,1.2719,0.0,1.3483,1.3603,1.3603,1.3984,0.0,0.0,1.4405,1.4573,1.4573,1.4615,1.465,1.465,1.4692,1.4692,1.4692,1.4692,1.465,1.4482,1.4482,1.444,1.4398,1.4398,1.4314,1.4188,1.4139,1.411,1.3948,1.3962,1.3864,1.3652,1.3568,1.344,1.3143,1.2833,1.2454,1.1849,1.116,1.0381,0.9519,0.8372,0.7268,0.6166,0.4875,0.3626,0.2643,0.1748,0.0852,1.6911,1.6911,1.6911,1.6911,1.6911,1.6541,1.6305,1.6157,1.6062,1.5927,1.5791,1.5784,1.5784,1.5791,1.5784,1.5465,1.4867,1.4847,1.4535,1.399,1.3899,1.3851,1.3857,1.3646,1.3483,1.3355,1.3137,1.2918,1.2705,1.232,1.21,1.2015,1.1542,1.1068,1.0549,0.999,0.9646,0.9428,0.9218,0.8908,0.8517,0.8286,0.8119,0.7962,0.7773,0.7711,0.7708,0.773,0.7795,0.7906,0.8093,0.8241,0.8313,0.8627,0.8937,0.0,0.0,0.0,0.0,0.0,0.0,0.0,0.0,0.0,0.0,0.0,1.3352,0.0,1.4026,0.0,1.4153,1.4356,1.4524,1.4524,1.465,1.4692,1.4692,1.4817,1.4873,1.4873,1.4957,1.4992,1.4999,1.4999,1.4999,1.4999,1.4992,1.4957,1.4741,1.4692,1.465,1.4573,1.4475,1.4314,1.4124,1.4088,1.4004,1.3737,1.361,1.3434,1.3009,1.2625,1.2198,1.1628,1.0939,1.0159,0.9292,0.8241,0.7183,0.6077,0.501,0.3939,0.291,0.2016,0.1166,1.7419,1.738,1.7426,1.7419,1.738,1.6958,1.6723,1.6636,1.6629,1.6588,1.6588,1.6588,1.6588,1.6588,1.6588,1.6246,1.5723,1.5665,1.5336,1.4706,1.4517,1.444,1.4433,1.4026,1.3822,1.3822,1.361,1.3398,1.3228,1.2918,1.2705,1.2534,1.21,1.1886,1.1849,1.0987,1.0294,0.9777,0.9536,0.9264,0.9043,0.8952,0.8762,0.8524,0.8475,0.8386,0.8225,0.8403,0.8513,0.8556,0.8742,0.8932,0.9117,0.9354,0.9582,0.0,1.0218,0.0,0.0,0.0,0.0,0.0,0.0,0.0,0.0,1.343,1.3984,1.4398,1.4608,1.4692,1.4692,1.4734,1.4741,1.4741,1.4776,1.4817,1.4866,1.5082,1.5215,1.5249,1.5382,1.5514,1.5472,1.5472,1.5472,1.5423,1.5416,1.5257,1.4908,1.4817,1.4824,1.4776,1.4566,1.4314,1.4124,1.4082,1.3955,1.3695,1.3483,1.3222,1.2747,1.2283,1.1823,1.1332,1.0679,0.9898,0.9026,0.8105,0.7092,0.5985,0.5191,0.4302,0.3226,0.2332,0.157,1.7939,1.7947,1.7939,1.7939,1.7947,1.7846,1.7481,1.6878,1.6683,1.6588,1.6588,1.6588,1.6588,1.6588,1.6588,1.6253,1.5672,1.5665,1.5336,1.4692,1.4657,1.465,1.465,1.4566,1.4531,1.4482,1.4166,1.3962,1.3913,1.3483,1.3222,1.3222,1.296,1.2839,0.0,0.0,0.0,0.0,1.0128,0.9766,0.9672,0.9227,0.8941,0.8902,0.8734,0.0,0.8813,0.9013,0.9208,0.9354,0.9576,0.0,0.0,0.0,0.0,0.0,0.0,0.0,0.0,0.0,0.0,0.0,1.298,1.3293,1.3487,1.411,1.4566,1.465,1.4692,1.4692,1.4692,1.4908,1.5006,1.5041,1.5325,1.5519,1.5526,1.5748,1.5922,1.5922,1.5963,1.5971,1.5963,1.5963,1.588,1.5658,1.565,1.5533,1.5298,1.5257,1.5215,1.5041,1.4657,1.4321,1.4124,1.3913,1.3779,1.3476,1.3264,1.3009,1.2534,1.2063,1.1634,1.1111,1.0337,0.9554,0.8811,0.7889,0.6962,0.6171,0.5327,0.4391,0.3361,0.2601,0.193,1.8087,0.0,1.8087,1.8087,0.0,1.8087,1.79,1.7527,1.738,1.7333,1.7333,1.7333,1.734,1.7333,1.734,1.6982,1.6419,1.6367,1.5973,1.52,1.511,1.4992,1.4915,1.4783,1.4692,1.4692,1.4496,1.4412,1.437,1.4062,1.3899,1.3893,1.3561,1.3392,1.3392,1.2789,1.2043,1.116,1.0512,1.0136,1.0055,0.9761,0.9555,0.9445,0.0,0.0,0.0,0.0,0.0,0.0,0.0,0.0,0.0,0.0,0.0,1.1111,1.1484,1.1781,1.1966,1.2194,1.2641,1.3442,1.4165,1.449,1.4248,1.4726,1.5019,1.5068,1.5242,1.5409,1.5409,1.5499,1.5582,1.559,1.579,1.5906,1.5914,1.6004,1.6095,1.6136,1.6136,1.6136,1.6136,1.6136,1.6046,1.5914,1.5906,1.5873,1.5756,1.5555,1.5298,1.4957,1.4741,1.4447,1.4166,1.3997,1.3779,1.3476,1.3307,1.2966,1.2326,1.1989,1.1639,1.0987,1.0255,0.9563,0.8859,0.7977,0.7095,0.6387,0.568,0.4879,0.3941,0.3092,0.2332,1.8365,1.8365,1.8365,1.8365,1.8365,1.8373,1.8365,1.8373,0.0,0.0,0.0,1.8087,1.8087,1.8087,1.8087,1.7758,1.7123,1.7108,1.6627,1.579,1.5609,1.545,1.5249,1.5082,1.495,1.4943,1.4908,1.4859,1.4817,1.4608,1.4524,1.444,1.4068,1.3837,1.3681,1.3026,1.229,1.1542,1.0983,1.0585,1.0428,1.0373,1.0297,1.011,1.0105,1.0105,1.0143,1.0519,1.07,1.07,1.1111,1.1292,1.1298,1.1521,1.1706,1.1892,1.2114,1.2378,1.2746,1.279,1.3241,1.4304,1.5286,1.5567,1.4992,1.5276,1.5526,1.5519,1.5873,1.6095,1.6136,1.6128,1.617,1.617,1.6211,1.6294,1.6294,1.6335,1.6376,1.6335,1.6376,1.6335,1.6376,1.6376,1.6294,1.6211,1.6203,1.617,1.6053,1.5714,1.5333,1.4908,1.4783,1.4622,1.4292,1.4124,1.3913,1.3483,1.3355,1.3015,1.2295,1.1952,1.1585,1.0785,1.024,0.9611,0.8901,0.8084,0.7276,0.6577,0.6051,0.5437,0.4601,0.3719,0.2838,1.9404,1.9404,1.9396,1.9396,1.9404,1.9404,1.9396,1.9304,1.8458,1.8087,1.8087,1.8087,1.8087,1.8087,1.8087,1.7713,1.7123,1.7108,1.6713,0.0,1.6004,1.6004,1.5963,1.5914,1.5914,1.5873,1.5658,1.5484,1.5318,1.5075,1.4866,1.4699,1.4566,1.4345,1.3858,1.3258,1.2782,1.2505,1.175,1.1331,1.1328,1.1103,1.096,1.0931,1.0925,1.0925,1.0968,1.1298,1.1521,1.1521,1.1929,1.215,1.215,1.2298,1.2526,1.2716,1.29,1.3127,1.3339,1.3528,1.4,1.491,1.5811,1.6196,1.5963,1.5963,1.6004,1.6004,1.6128,1.6136,1.6136,1.6286,1.6394,1.6402,1.6722,1.6976,1.6927,1.7066,1.7147,1.7147,1.7229,1.7188,1.7147,1.7147,1.6984,1.6738,1.6615,1.65,1.617,1.5865,1.5492,1.5166,1.5048,1.4873,1.4447,1.4201,1.3948,1.3476,1.3258,1.2942,1.2174,1.1895,1.1433,1.0515,1.0025,0.9414,0.8618,0.7968,0.7415,0.6793,0.6162,0.5518,0.4974,0.4297,0.3567,1.9982,1.9982,1.9982,1.999,1.9982,1.999,1.999,1.9936,1.9333,1.9012,1.8928,1.8928,1.8928,1.8928,1.8928,1.8536,1.7866,1.7858,1.7397,1.6639,1.6492,1.6368,1.6278,1.617,1.6136,1.6087,1.5955,1.5873,1.579,1.5665,1.5582,1.5443,1.5143,1.4607,1.3938,1.361,1.3384,1.311,1.2355,1.1941,1.1941,1.1814,1.1744,1.1744,1.1744,1.1744,1.1781,1.215,1.2342,1.2342,1.2746,1.2936,1.2973,1.3046,1.32,1.3382,1.3564,1.3775,1.3964,1.4638,1.516,1.5566,1.6413,1.6894,1.6828,1.6697,1.6648,1.6648,1.6738,1.6787,1.6779,1.6902,1.6935,1.6935,1.7147,1.727,1.727,1.7343,1.7392,1.7392,1.7392,1.7392,1.7392,1.7392,1.7351,1.7106,1.7066,1.6902,1.65,1.6319,1.6023,1.5409,1.5235,1.5075,1.465,1.4405,1.4153,1.3822,1.3481,1.2937,1.2326,1.1986,1.1421,1.0661,1.0099,0.9564,0.8919,0.8258,0.7728,0.7274,0.6654,0.607,0.5529,0.4782,0.3852,2.0473,2.0473,2.0464,2.0473,2.0464,2.0473,2.0473,2.0428,2.0246,2.0065,1.9891,1.9725,1.9587,1.9587,1.9587,1.9175,1.8539,1.8473,1.8043,1.7188,1.6935,1.6771,1.6648,1.6451,1.6376,1.6376,1.6417,1.6368,1.6335,1.6335,1.6206,1.6016,1.5425,1.4762,1.4088,1.3969,1.3844,1.3616,1.3039,1.2703,1.2599,1.2562,1.2562,1.2562,1.2562,1.2569,1.2606,1.2936,1.3119,1.3185,1.3528,1.371,1.3746,1.3746,1.3819,1.4044,1.4217,1.4389,1.4673,1.5548,1.6097,1.6242,1.6984,1.7511,1.7587,1.7546,1.7383,1.7302,1.7392,1.7514,1.7514,1.7595,1.7635,1.7635,1.7676,1.7716,1.7716,1.7676,1.7676,1.7676,1.7716,1.7725,1.7684,1.7716,1.7716,1.7676,1.7554,1.731,1.7017,1.6846,1.6399,1.5883,1.5591,1.535,1.4872,1.4622,1.4338,1.4033,1.3571,1.3031,1.2484,1.2087,1.1616,1.082,1.0311,0.9822,0.9361,0.8725,0.8112,0.7737,0.7207,0.658,0.5874,0.5099,0.4155,2.0952,2.0952,2.0952,2.0952,2.0952,2.0952,2.0952,2.0952,2.0907,2.0862,2.0781,1.999,1.9625,1.9587,1.9633,1.9219,1.8584,1.8516,1.8119,1.7441,1.7351,1.731,1.731,1.727,1.7278,1.727,1.7237,1.7139,1.6976,1.696,1.6644,1.5911,1.5173,1.4758,1.4523,1.4227,1.4051,1.4057,1.4137,1.392,1.3419,1.3382,1.339,1.3382,1.3382,1.3382,1.3382,1.3601,1.3783,1.3985,1.4209,1.4353,1.4461,1.4497,1.4613,1.4792,1.4828,1.4999,1.538,1.5939,1.6439,1.6826,1.742,1.7926,1.8261,1.8442,1.8282,1.7861,1.787,1.7951,1.7951,1.8152,1.8322,1.8273,1.8442,1.858,1.8531,1.858,1.858,1.858,1.854,1.858,1.8531,1.8465,1.8416,1.816,1.7806,1.7565,1.7436,1.7077,1.6722,1.6389,1.6176,1.5692,1.5098,1.4863,1.4479,1.376,1.3346,1.3002,1.2617,1.2187,1.1649,1.1154,1.0573,1.0089,0.9527,0.8923,0.8524,0.8117,0.7559,0.6858,0.5941,0.5291,0.4611,2.141,2.141,2.141,2.1499,2.1642,2.1642,2.1642,2.1633,2.1329,2.1248,2.115,2.0654,2.0419,2.0428,2.0419,2.0005,1.9273,1.9256,1.8885,1.8204,1.804,1.8,1.8,1.7838,1.7716,1.7578,1.7587,1.7505,1.7269,1.7048,1.6643,1.6129,1.5592,1.5201,1.4964,1.4812,1.4776,1.4732,1.4848,1.474,1.4525,1.4281,1.4145,1.4137,1.4145,1.4145,1.4181,1.4361,1.4505,1.4577,1.49,1.5078,1.515,1.524,1.5346,1.5417,1.5568,1.578,1.6132,1.6562,1.6953,1.7231,1.7932,1.841,1.8563,1.8985,1.9091,1.8873,1.8674,1.8594,1.8594,1.8794,1.8944,1.8953,1.8993,1.9082,1.9033,1.9042,1.9033,1.9082,1.9033,1.9024,1.8997,1.8725,1.8413,1.8053,1.7712,1.7592,1.7385,1.7132,1.6911,1.6718,1.6493,1.6008,1.5301,1.4932,1.4575,1.4105,1.3663,1.3281,1.2874,1.2446,1.1961,1.1444,1.0956,1.0509,1.0154,0.9468,0.8937,0.8556,0.7906,0.7138,0.6472,0.5931,0.5336,2.1865,2.1909,2.1909,2.1998,2.2185,2.2185,2.2185,2.2141,2.183,2.1705,2.166,2.1454,2.1401,2.1338,2.1025,2.0465,1.9855,1.9696,1.9297,1.8745,1.8531,1.8491,1.8442,1.8282,1.8121,1.7991,1.7991,1.7859,1.7572,1.7187,1.6778,1.638,1.6003,1.5649,1.5407,1.5374,1.5346,1.5382,1.5417,1.5453,1.5417,1.5204,1.4999,1.4856,1.4919,1.4919,1.4919,1.507,1.5185,1.5221,1.5532,1.5744,1.5815,1.5982,1.6123,1.6123,1.6298,1.6508,1.6742,1.713,1.7456,1.7747,1.8332,1.8779,1.905,1.9408,1.9701,1.9824,1.9627,1.9499,1.9271,1.939,1.9499,1.9548,1.9578,1.9587,1.9657,1.9582,1.947,1.9479,1.9243,1.9166,1.906,1.8771,1.8382,1.8098,1.7876,1.7653,1.7422,1.734,1.714,1.6925,1.6661,1.6188,1.5553,1.5203,1.4843,1.4425,1.3983,1.3611,1.3184,1.2753,1.2385,1.1976,1.1428,1.0999,1.0706,1.0143,0.943,0.9046,0.8394,0.7672,0.7288,0.6672,0.6205,2.2388,2.2353,2.2353,2.2344,2.2397,2.2388,2.2397,2.2397,2.2353,2.2353,2.2309,2.2299,2.2299,2.2155,2.1003,2.0234,1.9793,1.9514,1.914,1.8798,1.8732,1.87,1.8709,1.8669,1.866,1.8652,1.8652,1.8466,1.8064,1.7629,1.7149,1.6607,1.6278,1.6017,1.5833,1.5798,1.5798,1.5833,1.5947,1.6061,1.6061,1.6167,1.5956,1.5568,1.5665,1.5727,1.5762,1.5771,1.5842,1.6026,1.6202,1.6342,1.6542,1.676,1.6874,1.6874,1.7038,1.7132,1.7226,1.7514,1.7858,1.8238,1.8498,1.8971,1.9632,1.9845,2.005,2.0488,2.0555,2.042,1.9925,1.9837,1.9963,2.0168,2.0216,2.0265,2.043,2.0013,1.9885,1.977,1.9351,1.9039,1.8824,1.874,1.8646,1.8525,1.8396,1.8165,1.8027,1.7742,1.7415,1.7144,1.6723,1.6173,1.5793,1.5515,1.5112,1.4699,1.4381,1.398,1.355,1.3156,1.2893,1.2562,1.204,1.1632,1.1335,1.0812,1.0105,0.9533,0.8894,0.8322,0.8097,0.7407,0.6942,2.2397,2.2441,2.2574,2.2671,2.2662,2.2662,2.2671,2.2662,2.2485,2.2397,2.2397,2.2397,2.2246,2.1981,2.1258,2.0819,2.0652,2.0264,1.9857,1.9515,1.9478,1.9478,1.9478,1.9478,1.9399,1.9289,1.9289,1.9,1.8475,1.8067,1.7632,1.7207,1.6793,1.6551,1.6508,1.6517,1.6517,1.6517,1.6586,1.6586,1.6621,1.6795,1.6786,1.6603,1.6394,1.6368,1.6482,1.6517,1.6551,1.663,1.676,1.6925,1.7097,1.7417,1.7598,1.7598,1.7657,1.7769,1.7896,1.7988,1.8251,1.859,1.8983,1.9304,1.9743,2.0052,2.0305,2.0484,2.0524,2.044,2.0353,2.0282,2.0308,2.0355,2.0185,2.0046,2.0061,1.9932,1.9843,1.9823,1.9611,1.938,1.9053,1.8922,1.8734,1.849,1.8257,1.8101,1.7948,1.7735,1.7593,1.739,1.7114,1.6822,1.673,1.6075,1.5524,1.5135,1.4784,1.4549,1.4173,1.3884,1.3622,1.3229,1.2709,1.2335,1.2003,1.118,1.0548,1.0179,0.9502,0.8957,0.8908,0.8116,0.7787,2.2838,2.2882,2.3057,2.3144,2.3144,2.3101,2.311,2.3101,2.2925,2.2828,2.2838,2.2828,2.265,2.2225,2.18,2.1511,2.1315,2.0719,2.0216,1.9921,1.9912,1.9912,1.9912,1.9912,1.9824,1.9687,1.9575,1.9226,1.8693,1.8286,1.7869,1.748,1.7202,1.7107,1.7141,1.7176,1.7176,1.722,1.7254,1.7254,1.7289,1.7382,1.7476,1.751,1.7295,1.7132,1.7176,1.721,1.7254,1.7279,1.7442,1.7647,1.7852,1.81,1.8279,1.8337,1.8347,1.8405,1.8539,1.8607,1.8707,1.8952,1.9354,1.9708,1.9968,2.0306,2.0551,2.0688,2.074,2.074,2.0726,2.0648,2.0586,2.0533,2.0266,2.0129,2.0145,2.0068,1.9879,1.9691,1.9605,1.9473,1.9245,1.9037,1.8851,1.8593,1.8371,1.8202,1.809,1.7988,1.7886,1.7803,1.7676,1.752,1.7395,1.6928,1.6254,1.5842,1.5515,1.5204,1.4807,1.4565,1.4235,1.3825,1.3433,1.3032,1.2412,1.1617,1.1113,1.0769,1.0036,0.9337,0.9137,0.8846,0.8505,2.3754,2.3711,2.3797,2.3711,2.3711,2.3711,2.3754,2.3711,2.3711,2.3667,2.3624,2.3691,2.3358,2.3042,2.2479,2.214,2.1551,2.0614,2.0107,2.002,2.002,2.002,2.0029,2.0059,2.0069,2.0001,1.9544,1.9174,1.8813,1.8413,1.7995,1.7599,1.7567,1.7623,1.7706,1.7716,1.7818,1.793,1.7974,1.8008,1.8008,1.8008,1.81,1.8269,1.8236,1.809,1.7774,1.7896,1.8008,1.8008,1.8168,1.8438,1.8707,1.8808,1.8908,1.9065,1.9108,1.9108,1.9142,1.9208,1.9308,1.9417,1.9692,2.0072,2.0373,2.0626,2.0879,2.1183,2.1303,2.1381,2.1294,2.1043,2.0782,2.0713,2.0586,2.0604,2.0723,2.0538,2.0046,1.9551,1.9454,1.9283,1.9162,1.9181,1.916,1.9096,1.8942,1.8774,1.8707,1.8573,1.8472,1.8337,1.8269,1.8202,1.8022,1.774,1.7148,1.6585,1.628,1.5965,1.5397,1.5039,1.4633,1.4238,1.361,1.3213,1.2799,1.2016,1.152,1.1077,1.0355,0.9825,0.9655,0.9455,0.9093,2.3797,2.3797,2.3797,2.3797,2.3797,2.3797,2.3797,2.3797,2.3797,2.3797,2.3747,2.3529,2.3146,2.2714,2.2221,2.1789,2.1377,2.1091,2.0925,2.0809,2.078,2.077,2.077,2.077,2.077,2.075,2.0327,1.993,1.9495,1.9061,1.8646,1.8256,1.8187,1.8212,1.8269,1.8269,1.8337,1.8539,1.8539,1.8607,1.8741,1.8774,1.8764,1.8831,1.8942,1.8908,1.8808,1.864,1.8607,1.8741,1.8798,1.8931,1.9142,1.9407,1.9583,1.9638,1.9758,1.9781,1.9813,1.9846,1.9922,2.0031,2.0205,2.0368,2.0599,2.0708,2.0808,2.0963,2.104,2.1106,2.1072,2.1113,2.0974,2.0764,2.0504,2.0386,2.0475,2.0301,2.0095,1.99,1.9846,1.9802,1.9781,1.9726,1.9671,1.9638,1.9473,1.9341,1.9175,1.9108,1.9019,1.8875,1.8841,1.8747,1.8475,1.8105,1.7549,1.7054,1.6748,1.6314,1.5798,1.5463,1.5061,1.4514,1.3934,1.3412,1.3001,1.2464,1.1937,1.1515,1.0933,1.0632,1.0437,1.0055,0.961,2.4305,2.4305,2.4305,2.4315,2.4305,2.4305,2.4315,2.4305,2.4305,2.4223,2.4017,2.3823,2.3299,2.2756,2.2407,2.2037,2.1686,2.1759,2.1769,2.1617,2.1474,2.1436,2.1436,2.1436,2.1314,2.111,2.0677,2.023,1.9839,1.9392,1.9026,1.8748,1.8707,1.8741,1.8785,1.8808,1.8875,1.9075,1.9164,1.9274,1.9363,1.9462,1.9462,1.9485,1.9551,1.9638,1.9681,1.9506,1.9374,1.9407,1.9462,1.9528,1.9714,1.9933,2.0129,2.028,2.0345,2.0442,2.0495,2.0539,2.0539,2.0679,2.0743,2.0807,2.0946,2.1022,2.1097,2.1085,2.1172,2.1201,2.1256,2.1308,2.1287,2.1159,2.0794,2.0539,2.0495,2.0431,2.041,2.041,2.0345,2.0345,2.0313,2.0248,2.0205,2.0172,2.0009,1.9878,1.9747,1.966,1.9551,1.9411,1.9273,1.909,1.8895,1.8451,1.7952,1.7533,1.7158,1.6553,1.5993,1.5867,1.5563,1.4823,1.4188,1.3842,1.3398,1.2688,1.2095,1.1773,1.1504,1.1062,1.0705,1.0368,0.9959,2.52,2.52,2.52,2.5158,2.5115,2.5115,2.5105,2.5158,2.5147,2.4882,2.4543,2.4312,2.3896,2.3236,2.2935,2.2688,2.2493,2.244,2.244,2.2327,2.2149,2.1997,2.1845,2.1845,2.1628,2.1155,2.07,2.0234,1.982,1.9443,1.9142,1.9175,1.9198,1.9208,1.9341,1.9351,1.944,1.9638,1.9813,1.99,1.9966,2.0085,2.0128,2.0172,2.0183,2.028,2.0367,2.0399,2.027,2.0031,2.0074,2.0248,2.0399,2.0432,2.0614,2.0871,2.0924,2.1051,2.119,2.1221,2.1253,2.1285,2.138,2.1463,2.1474,2.158,2.1667,2.1655,2.1718,2.173,2.173,2.1792,2.1785,2.173,2.1383,2.119,2.1201,2.1031,2.0967,2.0903,2.0818,2.0765,2.0797,2.0754,2.0722,2.069,2.0561,2.0475,2.0366,2.0225,2.0106,1.9899,1.9615,1.9272,1.8997,1.8499,1.8026,1.7719,1.7367,1.6778,1.6148,1.597,1.5728,1.5023,1.4478,1.4163,1.3729,1.3026,1.2588,1.2379,1.1956,1.1382,1.1019,1.0771,1.0507,2.52,2.52,2.52,2.52,2.52,2.52,2.5232,2.52,2.5232,2.4944,2.4519,2.4117,2.3798,2.3298,2.2972,2.281,2.2874,2.2964,2.3075,2.3086,2.315,2.274,2.2365,2.2241,2.1988,2.1512,2.1047,2.06,2.016,1.9828,1.9681,1.9704,1.9781,1.9835,1.9889,1.9889,1.9987,2.0172,2.0248,2.0399,2.0603,2.0679,2.0764,2.0892,2.0892,2.0924,2.0999,2.1083,2.0955,2.0679,2.0839,2.0924,2.101,2.1094,2.1178,2.1305,2.1506,2.1643,2.1737,2.1843,2.1937,2.1937,2.1956,2.1999,2.1987,2.203,2.2073,2.2061,2.2142,2.2204,2.2247,2.234,2.2402,2.2371,2.1968,2.1624,2.1592,2.1541,2.1498,2.1466,2.1446,2.1403,2.1371,2.1296,2.1221,2.1221,2.1126,2.0965,2.0842,2.0606,2.0387,2.013,1.982,1.9443,1.9017,1.8544,1.8115,1.7881,1.7482,1.7011,1.6337,1.5794,1.5438,1.4914,1.459,1.4257,1.395,1.3445,1.3213,1.3008,1.2539,1.2081,1.1771,1.1527,1.1167,2.579,2.579,2.579,2.579,2.579,2.579,2.5639,2.5476,2.5444,2.5022,2.4458,2.4133,2.3808,2.3454,2.3207,2.315,2.3261,2.3372,2.3409,2.3457,2.3593,2.3372,2.2957,2.2726,2.2335,2.1857,2.1376,2.0922,2.0521,2.0293,2.0259,2.0259,2.0377,2.0431,2.0442,2.0528,2.0603,2.0722,2.0775,2.0935,2.1083,2.1253,2.1391,2.1517,2.1549,2.1612,2.1643,2.1757,2.1651,2.1411,2.1411,2.1549,2.16,2.1694,2.1757,2.1819,2.2018,2.2142,2.2247,2.234,2.2432,2.2494,2.2494,2.2525,2.2574,2.2574,2.2574,2.2604,2.2665,2.2696,2.2726,2.2818,2.2848,2.2818,2.2512,2.2247,2.2123,2.203,2.1999,2.1968,2.1937,2.1917,2.1917,2.18,2.1757,2.1737,2.1706,2.146,2.1229,2.0918,2.0565,2.0273,1.99,1.9454,1.9102,1.864,1.8317,1.8046,1.7803,1.729,1.672,1.6026,1.5674,1.5293,1.4813,1.444,1.4291,1.4082,1.3826,1.3549,1.3155,1.2812,1.2505,1.2259,1.1919,2.6603,2.6603,2.6603,2.6603,2.655,2.6535,2.6185,2.5878,2.5726,2.5211,2.4518,2.4366,2.413,2.3677,2.3737,2.3703,2.3751,2.3824,2.3787,2.3861,2.3959,2.3852,2.3525,2.3064,2.2639,2.2147,2.1688,2.1184,2.0881,2.0744,2.0765,2.0818,2.0903,2.0999,2.1031,2.119,2.1253,2.1328,2.1411,2.1506,2.1588,2.18,2.1925,2.2018,2.2154,2.2247,2.2297,2.2389,2.2316,2.208,2.2018,2.2111,2.2247,2.2278,2.234,2.2451,2.2512,2.2616,2.2739,2.28,2.286,2.2939,2.2969,2.303,2.3078,2.3108,2.3108,2.3108,2.3125,2.3138,2.3138,2.3168,2.3168,2.3168,2.3108,2.303,2.283,2.2604,2.2469,2.2451,2.2371,2.2309,2.2309,2.2309,2.2297,2.2292,2.2157,2.1837,2.1452,2.1038,2.0662,2.0313,1.9859,1.9388,1.9089,1.8791,1.851,1.8281,1.8123,1.7729,1.7255,1.669,1.6259,1.5816,1.5468,1.5206,1.504,1.4804,1.4508,1.421,1.3911,1.3549,1.3186,1.3003,1.2689,2.6603,2.6603,2.6603,2.6603,2.6535,2.6321,2.6124,2.6006,2.574,2.5283,2.4865,2.4762,2.4588,2.4273,2.4273,2.4381,2.4454,2.449,2.4538,2.4538,2.4574,2.433,2.3909,2.3455,2.3028,2.2525,2.2023,2.1565,2.1209,2.1221,2.1253,2.1285,2.1423,2.1549,2.1675,2.1737,2.1843,2.1968,2.203,2.208,2.2161,2.2266,2.2389,2.2525,2.2678,2.2818,2.2896,2.2927,2.2987,2.3,2.2848,2.2757,2.28,2.2848,2.2927,2.2987,2.3108,2.318,2.3241,2.333,2.342,2.345,2.3437,2.348,2.3467,2.3497,2.3509,2.3509,2.3467,2.3539,2.3526,2.3497,2.3526,2.3526,2.3526,2.3497,2.339,2.312,2.2957,2.2927,2.2909,2.2896,2.2896,2.2866,2.2854,2.2847,2.2556,2.2204,2.1675,2.1149,2.0716,2.0299,1.99,1.9482,1.9329,1.909,1.8908,1.8679,1.8491,1.829,1.7826,1.7368,1.6937,1.6542,1.62,1.597,1.5749,1.5575,1.5274,1.499,1.4666,1.433,1.3992,1.3761,1.3489,2.719,2.7231,2.7219,2.7052,2.68,2.6656,2.6276,2.5839,2.5627,2.5263,2.4929,2.486,2.477,2.4646,2.4646,2.4682,2.479,2.4873,2.4945,2.4957,2.4908,2.4633,2.4309,2.3734,2.3164,2.2581,2.2094,2.1763,2.1639,2.1663,2.1757,2.1788,2.1937,2.2049,2.2173,2.2297,2.242,2.2512,2.2574,2.2665,2.2714,2.2848,2.2939,2.3133,2.3283,2.339,2.348,2.3556,2.3603,2.3662,2.3616,2.3497,2.339,2.3433,2.3497,2.3586,2.3645,2.3734,2.3763,2.3793,2.3852,2.394,2.394,2.3998,2.4028,2.407,2.407,2.407,2.4057,2.407,2.407,2.407,2.4057,2.4057,2.4057,2.4099,2.3998,2.3645,2.3318,2.3318,2.333,2.3318,2.3348,2.3378,2.3107,2.2951,2.2786,2.2391,2.1554,2.1033,2.065,2.0243,1.9877,1.9626,1.955,1.942,1.9352,1.9184,1.9013,1.8827,1.8521,1.8073,1.7606,1.7245,1.6881,1.6609,1.6381,1.621,1.597,1.5594,1.5294,1.503,1.4804,1.4508,1.424,2.7886,2.7775,2.7775,2.747,2.7074,2.6921,2.6429,2.5747,2.5595,2.5419,2.504,2.4969,2.5076,2.5004,2.5004,2.498,2.504,2.5099,2.5252,2.5129,2.4967,2.4706,2.4375,2.3798,2.3239,2.2511,2.223,2.2054,2.2104,2.2185,2.2309,2.234,2.2451,2.2543,2.2635,2.2818,2.2969,2.3,2.315,2.321,2.3258,2.339,2.3569,2.3675,2.3835,2.3966,2.4054,2.4144,2.4205,2.4247,2.435,2.429,2.4171,2.4054,2.407,2.4189,2.4218,2.4247,2.4247,2.4276,2.4305,2.4392,2.4408,2.4478,2.4607,2.462,2.4591,2.462,2.462,2.462,2.4677,2.462,2.462,2.4635,2.4649,2.4677,2.4563,2.4115,2.391,2.3806,2.3835,2.3852,2.3822,2.3839,2.3418,2.3067,2.2874,2.2472,2.1621,2.099,2.0642,2.045,2.0156,2.0054,1.9978,1.9875,1.9772,1.9642,1.9512,1.9356,1.916,1.8801,1.8344,1.7909,1.7579,1.7284,1.706,1.692,1.6627,1.6218,1.596,1.5758,1.5536,1.5254,1.4951,2.7634,2.7246,2.7234,2.7018,2.6678,2.6387,2.6297,2.6215,2.5911,2.5798,2.5725,2.57,2.5665,2.57,2.57,2.5688,2.57,2.5685,2.5477,2.5252,2.5013,2.4711,2.4067,2.3796,2.3393,2.3016,2.2708,2.2598,2.2586,2.2708,2.2787,2.2818,2.2939,2.306,2.3193,2.33,2.3378,2.3509,2.3671,2.376,2.3819,2.394,2.4086,2.4189,2.4247,2.4405,2.4591,2.4664,2.4736,2.4821,2.4878,2.492,2.4892,2.4763,2.4692,2.4692,2.4765,2.4821,2.4821,2.4863,2.4863,2.4892,2.4878,2.4878,2.4948,2.4948,2.5005,2.4977,2.4977,2.4948,2.492,2.4977,2.4948,2.4948,2.4977,2.4948,2.492,2.4806,2.4635,2.452,2.4463,2.4376,2.4305,2.4131,2.3736,2.3247,2.2852,2.2417,2.1668,2.117,2.0805,2.0651,2.0549,2.0498,2.0498,2.0372,2.0245,2.0131,1.9978,1.9837,1.9656,1.9434,1.9066,1.8667,1.8236,1.7893,1.77,1.7601,1.7228,1.6797,1.6627,1.6513,1.62,1.5884,1.5652,2.7789,2.7332,2.732,2.7033,2.6662,2.6506,2.6298,2.6125,2.5986,2.5923,2.5923,2.5923,2.5923,2.591,2.6037,2.6129,2.6217,2.5977,2.5774,2.554,2.5034,2.4569,2.4009,2.3795,2.3566,2.3381,2.3313,2.3193,2.3103,2.318,2.3271,2.33,2.342,2.3539,2.3658,2.3793,2.3868,2.3985,2.4157,2.4316,2.4374,2.4492,2.4593,2.465,2.4723,2.485,2.4963,2.5202,2.5286,2.537,2.5425,2.5508,2.5536,2.5508,2.537,2.5244,2.53,2.537,2.5397,2.5425,2.5481,2.5453,2.5453,2.5481,2.5481,2.5481,2.5453,2.5439,2.5439,2.5453,2.5481,2.5453,2.5481,2.5481,2.5453,2.5439,2.5439,2.5453,2.5342,2.5202,2.4977,2.4821,2.4682,2.4441,2.4025,2.3501,2.2936,2.2346,2.1731,2.1412,2.1104,2.1068,2.0995,2.0945,2.0921,2.0822,2.0723,2.0573,2.046,2.0321,2.0144,1.9939,1.9746,1.946,1.9013,1.856,1.8302,1.8154,1.7783,1.7423,1.7284,1.7106,1.6797,1.6503,1.6314,2.7815,2.7361,2.7324,2.7077,2.6694,2.6644,2.6445,2.6169,2.6154,2.6154,2.6119,2.6154,2.6154,2.6188,2.6289,2.6458,2.657,2.6087,2.5886,2.5486,2.493,2.4461,2.4257,2.403,2.3806,2.3907,2.3923,2.3848,2.3582,2.3658,2.3734,2.3793,2.3923,2.4067,2.4141,2.4261,2.4379,2.4494,2.4622,2.4778,2.4948,2.5061,2.5146,2.5174,2.5286,2.5328,2.5439,2.5619,2.577,2.5852,2.5934,2.6015,2.6069,2.6165,2.6056,2.5825,2.5798,2.5811,2.5839,2.5893,2.5921,2.5921,2.5975,2.5975,2.5975,2.5921,2.5948,2.5975,2.5934,2.5948,2.5921,2.5948,2.5948,2.5948,2.5948,2.5961,2.5948,2.5921,2.5921,2.5729,2.5453,2.5314,2.5259,2.4723,2.4339,2.3723,2.3173,2.2531,2.1986,2.1821,2.1578,2.153,2.1482,2.141,2.1361,2.1253,2.1142,2.1031,2.0921,2.0822,2.0648,2.0447,2.0271,2.008,1.9746,1.9317,1.9028,1.8721,1.8398,1.8127,1.7975,1.7728,1.7412,1.7162,1.6965,2.7262,2.6808,2.6808,2.6654,2.6486,2.6483,2.6631,2.6833,2.682,2.6875,2.6773,2.6854,2.6807,2.6812,2.6812,2.6624,2.6286,2.6044,2.5665,2.5133,2.4775,2.4519,2.4357,2.4284,2.429,2.4376,2.4463,2.4245,2.4041,2.4144,2.4218,2.4247,2.4405,2.4563,2.462,2.475,2.4793,2.492,2.5061,2.5272,2.5508,2.5591,2.5674,2.5743,2.5797,2.5866,2.5934,2.6084,2.6192,2.6365,2.6404,2.6484,2.6563,2.6604,2.663,2.6498,2.6379,2.6218,2.6245,2.6272,2.6313,2.634,2.6313,2.626,2.6313,2.6299,2.6299,2.626,2.6272,2.6299,2.6313,2.6286,2.626,2.6286,2.6326,2.6299,2.6299,2.6406,2.6379,2.6353,2.6096,2.5988,2.5892,2.5236,2.4583,2.3982,2.3367,2.2738,2.2305,2.2127,2.202,2.1973,2.1926,2.1864,2.1769,2.1688,2.1578,2.1492,2.1385,2.1264,2.1118,2.0945,2.0847,2.0623,2.0308,2.0016,1.9682,1.9344,1.9066,1.8774,1.8545,1.8302,1.8057,1.7838,1.7617,2.7065,2.6898,2.6851,2.6829,2.6752,2.6748,2.6829,2.699,2.7024,2.7024,2.7011,2.7113,2.708,2.6979,2.6954,2.6681,2.6235,2.5876,2.5533,2.5073,2.48,2.4585,2.4529,2.4536,2.4664,2.4721,2.4835,2.4892,2.4664,2.4578,2.4593,2.4622,2.4806,2.4948,2.509,2.5216,2.53,2.5425,2.5591,2.5784,2.5893,2.6002,2.6096,2.6231,2.6258,2.6338,2.6418,2.658,2.6633,2.6817,2.6881,2.7037,2.7089,2.7167,2.7203,2.7203,2.71,2.6933,2.6738,2.6777,2.6777,2.6817,2.6817,2.6803,2.6803,2.6803,2.6803,2.6803,2.6817,2.6817,2.6791,2.6817,2.6817,2.6817,2.675,2.6777,2.6777,2.6803,2.6855,2.6803,2.6777,2.6645,2.6285,2.5397,2.4793,2.4305,2.3581,2.2814,2.2507,2.2427,2.237,2.2347,2.2324,2.2287,2.2194,2.21,2.203,2.1921,2.1803,2.1698,2.1554,2.141,2.1313,2.1166,2.0921,2.0623,2.0309,1.9926,1.9591,1.9303,1.9052,1.8854,1.864,1.841,1.8166,2.7281,2.7248,2.7092,2.7058,2.7146,2.7113,2.718,2.7294,2.7281,2.7281,2.7276,2.7293,2.7151,2.6958,2.6791,2.6484,2.6098,2.5645,2.5437,2.5213,2.5003,2.4832,2.4877,2.4934,2.499,2.499,2.5202,2.5286,2.5258,2.523,2.5146,2.5033,2.523,2.537,2.5481,2.5633,2.577,2.5948,2.6084,2.6218,2.634,2.642,2.6539,2.6657,2.6695,2.6762,2.6881,2.7037,2.7144,2.7248,2.7376,2.7488,2.7575,2.7675,2.775,2.7775,2.775,2.7665,2.7437,2.7361,2.731,2.731,2.731,2.7244,2.7284,2.731,2.7295,2.7244,2.7269,2.7269,2.731,2.7284,2.7269,2.7244,2.7244,2.7269,2.7284,2.7244,2.7218,2.7218,2.7192,2.7218,2.6667,2.5587,2.4955,2.4582,2.3841,2.2933,2.276,2.2737,2.2737,2.2737,2.27,2.2655,2.2563,2.2495,2.2426,2.2356,2.2217,2.21,2.1983,2.1864,2.1769,2.164,2.1471,2.1253,2.0945,2.0498,2.0105,1.9823,1.9565,1.9434,1.9239,1.8987,1.8721,2.8013,2.7947,2.7315,2.7201,2.7469,2.7469,2.7669,2.7914,2.7994,2.7954,2.7821,2.7495,2.7261,2.7013,2.6583,2.6163,2.5673,2.5633,2.5459,2.5293,2.5159,2.5244,2.5313,2.5369,2.5453,2.5481,2.5605,2.5674,2.5702,2.5839,2.5757,2.5688,2.5702,2.5839,2.5948,2.6084,2.6258,2.6392,2.6525,2.6671,2.6832,2.6937,2.7,2.7155,2.7258,2.735,2.7361,2.7473,2.76,2.769,2.779,2.7915,2.8039,2.8113,2.8186,2.8275,2.8259,2.821,2.8137,2.784,2.76,2.756,2.76,2.7625,2.7625,2.7615,2.7575,2.76,2.7625,2.76,2.76,2.7575,2.7575,2.7575,2.7549,2.7564,2.7564,2.7549,2.7549,2.7575,2.759,2.7564,2.732,2.6312,2.5457,2.5081,2.4013,2.3127,2.315,2.315,2.3127,2.3105,2.3083,2.3016,2.2912,2.2844,2.2814,2.2746,2.2632,2.2518,2.2402,2.2324,2.2217,2.2053,2.1888,2.1722,2.1568,2.1177,2.0784,2.0385,2.0105,1.9965,1.9759,1.9486,1.9251,2.8112,2.8079,2.7868,2.7822,2.7881,2.7881,2.798,2.8112,2.8197,2.8118,2.794,2.7728,2.7284,2.6788,2.6505,2.6044,2.5611,2.5556,2.5477,2.5452,2.5467,2.555,2.5633,2.5771,2.5866,2.588,2.6002,2.6071,2.6098,2.6299,2.6379,2.6299,2.6192,2.6218,2.6312,2.6539,2.675,2.6881,2.7011,2.713,2.7181,2.7335,2.7437,2.7564,2.759,2.774,2.7865,2.794,2.8054,2.8152,2.8235,2.8332,2.8453,2.8501,2.8589,2.8652,2.866,2.8668,2.8645,2.8341,2.8088,2.8088,2.8103,2.8079,2.8063,2.8079,2.8088,2.8088,2.8014,2.7989,2.7989,2.7915,2.7855,2.784,2.7865,2.788,2.7905,2.7915,2.7915,2.794,2.7905,2.7855,2.7518,2.7089,2.6279,2.5506,2.4365,2.3486,2.3523,2.3523,2.3501,2.3458,2.3421,2.337,2.3282,2.3238,2.3231,2.3105,2.3016,2.2926,2.2814,2.2723,2.2632,2.2457,2.2319,2.2217,2.2053,2.1827,2.1444,2.0921,2.0636,2.0485,2.0258,1.9978,1.9759,2.8406,2.8438,2.8509,2.8411,2.8276,2.8295,2.8373,2.8365,2.8306,2.8012,2.7701,2.7509,2.7118,2.6559,2.6214,2.6063,2.5772,2.5716,2.573,2.5785,2.5839,2.5866,2.5948,2.6029,2.6138,2.6218,2.6367,2.6447,2.6527,2.663,2.675,2.6791,2.6765,2.6724,2.675,2.6974,2.7196,2.7361,2.7463,2.7539,2.7579,2.7715,2.7815,2.794,2.8014,2.8113,2.8259,2.8332,2.8429,2.8525,2.8605,2.87,2.8811,2.8897,2.8944,2.8967,2.899,2.9021,2.8975,2.8771,2.8549,2.8525,2.8493,2.8508,2.8532,2.8532,2.8468,2.8493,2.842,2.8381,2.8396,2.8323,2.829,2.8299,2.8299,2.8314,2.8299,2.8323,2.8299,2.8299,2.8266,2.8275,2.7983,2.761,2.6612,2.5728,2.463,2.3934,2.3867,2.3867,2.3839,2.3803,2.3745,2.3696,2.3661,2.3625,2.3581,2.348,2.3392,2.3312,2.3224,2.315,2.3038,2.2889,2.2768,2.2692,2.2518,2.2305,2.1874,2.1361,2.1142,2.0945,2.0711,2.046,2.0296,2.9067,2.9067,2.9067,2.8894,2.8597,2.8707,2.8835,2.8793,2.8405,2.7856,2.7278,2.6865,2.6646,2.6454,2.6092,2.5951,2.6031,2.6043,2.6098,2.6152,2.6233,2.626,2.6299,2.6353,2.6486,2.6539,2.6686,2.6832,2.6951,2.7078,2.7181,2.7258,2.7258,2.7284,2.7233,2.731,2.7514,2.774,2.7775,2.788,2.8005,2.8113,2.8186,2.8259,2.8405,2.851,2.8597,2.8716,2.8811,2.8912,2.892,2.9013,2.9213,2.9252,2.9321,2.9428,2.945,2.9473,2.9434,2.9106,2.8967,2.8912,2.8873,2.885,2.8818,2.8818,2.8842,2.8865,2.8803,2.8794,2.8794,2.8771,2.8747,2.8723,2.87,2.87,2.8684,2.866,2.8636,2.8636,2.8708,2.8724,2.849,2.8031,2.6951,2.5926,2.4862,2.4389,2.4271,2.4183,2.4156,2.412,2.4084,2.4051,2.4024,2.3988,2.3925,2.3824,2.3739,2.3659,2.361,2.3523,2.3414,2.3282,2.3194,2.312,2.2971,2.2762,2.2374,2.2016,2.1602,2.1361,2.1131,2.0972,2.0822,2.9149,2.923,2.9369,2.9177,2.885,2.8933,2.8878,2.8591,2.8174,2.7735,2.7329,2.7046,2.6693,2.6452,2.6282,2.6165,2.6233,2.6233,2.6286,2.634,2.6527,2.6621,2.6659,2.6765,2.6907,2.6959,2.7052,2.7078,2.7144,2.7361,2.7448,2.7499,2.774,2.779,2.769,2.7715,2.7905,2.8039,2.8137,2.825,2.8396,2.8517,2.8589,2.8612,2.8748,2.8842,2.8928,2.9045,2.9144,2.9243,2.9266,2.9373,2.9531,2.957,2.9614,2.9687,2.9716,2.9754,2.9798,2.9649,2.9531,2.9389,2.9252,2.9245,2.9261,2.9284,2.9284,2.9238,2.9153,2.913,2.9121,2.9006,2.8959,2.8975,2.8975,2.8975,2.8951,2.8951,2.8951,2.8951,2.8998,2.9068,2.8949,2.8626,2.7661,2.6895,2.5978,2.4979,2.4652,2.4518,2.4431,2.4431,2.441,2.44,2.4359,2.4317,2.4255,2.4156,2.4057,2.3973,2.3909,2.3882,2.3775,2.3653,2.3603,2.3538,2.337,2.3179,2.3001,2.2686,2.2273,2.1888,2.164,2.1496,2.141,2.9509,2.956,2.9487,2.9268,2.9015,2.9066,2.8694,2.8071,2.7796,2.7413,2.7013,2.698,2.6849,2.656,2.6527,2.658,2.6606,2.6633,2.6633,2.6645,2.6817,2.6896,2.7,2.713,2.7192,2.7295,2.7346,2.7372,2.7529,2.7665,2.779,2.7965,2.8171,2.8235,2.8186,2.821,2.8275,2.8405,2.8508,2.8589,2.8692,2.8811,2.892,2.8975,2.9052,2.9144,2.9252,2.935,2.9486,2.9576,2.9659,2.9742,2.9814,2.988,2.9886,2.9935,2.9957,2.9979,3.0038,3.0038,2.9886,2.9792,2.9681,2.9614,2.9592,2.9563,2.9541,2.9518,2.9457,2.9412,2.935,2.9259,2.9259,2.9236,2.9236,2.9252,2.9252,2.9252,2.9252,2.9236,2.9259,2.9328,2.9341,2.9,2.8468,2.7804,2.7127,2.6135,2.5145,2.4963,2.4798,2.4735,2.4735,2.471,2.4666,2.4605,2.4544,2.4482,2.4385,2.4287,2.4245,2.4219,2.4135,2.4051,2.3988,2.3903,2.3739,2.3566,2.3414,2.3216,2.2934,2.2549,2.2184,2.203,2.1959,3.0083,2.9983,2.9353,2.9083,2.9054,2.8896,2.8311,2.7353,2.731,2.698,2.6395,2.6611,2.6715,2.682,2.6925,2.7015,2.7063,2.713,2.713,2.7155,2.7181,2.7207,2.7233,2.731,2.7448,2.7549,2.7625,2.7715,2.797,2.8029,2.8177,2.8372,2.8549,2.8636,2.8645,2.8708,2.8708,2.8755,2.8803,2.8881,2.8982,2.9075,2.9183,2.9275,2.9373,2.948,2.9547,2.9659,2.9754,2.9842,2.993,3.006,3.0162,3.0205,3.021,3.0194,3.0189,3.021,3.021,3.0231,3.021,3.0119,2.9979,2.9875,2.9804,2.9776,2.9792,2.9748,2.9681,2.9614,2.9563,2.9547,2.9547,2.9547,2.9547,2.9547,2.9563,2.9563,2.9547,2.957,2.957,2.9592,2.9614,2.9357,2.9112,2.8565,2.7938,2.727,2.6334,2.554,2.5342,2.5029,2.5029,2.5029,2.4985,2.4886,2.4866,2.4806,2.471,2.4614,2.4589,2.4549,2.4482,2.44,2.4343,2.424,2.4073,2.3946,2.3818,2.361,2.3443,2.3127,2.27,2.2563,2.2472,2.9471,2.9533,2.8987,2.8567,2.8215,2.7902,2.7646,2.7556,2.726,2.6989,2.6933,2.6985,2.7011,2.7078,2.713,2.7181,2.7207,2.7192,2.7258,2.7335,2.7463,2.7524,2.7615,2.769,2.7806,2.7855,2.7905,2.7989,2.8162,2.8284,2.8493,2.87,2.8873,2.8975,2.9045,2.9153,2.913,2.9068,2.9114,2.919,2.9282,2.9366,2.948,2.9592,2.9687,2.9754,2.9858,2.9968,3.006,3.0103,3.0124,3.0227,3.0333,3.0354,3.0359,3.0405,3.0405,3.0405,3.0405,3.0405,3.0422,3.0438,3.0321,3.0215,3.013,3.006,3.0055,2.9989,2.9946,2.9902,2.988,2.988,2.988,2.988,2.988,2.988,2.988,2.988,2.988,2.988,2.988,2.988,2.988,2.9892,2.961,2.9176,2.8709,2.8131,2.7372,2.6538,2.5924,2.5628,2.5317,2.5317,2.5259,2.5197,2.5178,2.5143,2.5009,2.493,2.491,2.4866,2.4822,2.4742,2.463,2.4523,2.438,2.4276,2.4219,2.4099,2.3937,2.361,2.3297,2.3127,2.2949,2.9407,2.9202,2.8647,2.8115,2.7636,2.7332,2.7354,2.7483,2.7202,2.713,2.7207,2.7258,2.731,2.7361,2.7437,2.7488,2.7539,2.7564,2.759,2.768,2.7715,2.7765,2.7905,2.798,2.8029,2.8118,2.8192,2.8275,2.8429,2.8645,2.8858,2.892,2.9137,2.9229,2.9321,2.9457,2.9509,2.9448,2.9425,2.9525,2.9592,2.9681,2.977,2.988,2.9935,3.0017,3.0098,3.0227,3.0274,3.0295,3.0333,3.0438,3.0543,3.0547,3.0605,3.0651,3.0671,3.0671,3.0671,3.0634,3.0651,3.0651,3.0651,3.0609,3.0464,3.0375,3.0312,3.0231,3.0227,3.0205,3.0205,3.0205,3.0205,3.0205,3.0205,3.0205,3.0205,3.0205,3.0205,3.0184,3.0184,3.0184,3.0184,3.0227,3.014,2.9786,2.9471,2.909,2.82,2.7212,2.6665,2.6302,2.5878,2.5581,2.5524,2.5451,2.5413,2.5375,2.5278,2.5204,2.5201,2.5162,2.51,2.4985,2.489,2.4806,2.4726,2.4686,2.4645,2.4528,2.439,2.4141,2.3824,2.3588,2.3414,2.9556,2.8952,2.8331,2.7768,2.7303,2.7284,2.735,2.7427,2.735,2.7258,2.731,2.7401,2.7539,2.7625,2.7715,2.779,2.7831,2.7855,2.7905,2.8029,2.8029,2.8079,2.8128,2.8094,2.829,2.8387,2.846,2.8541,2.8803,2.9014,2.9114,2.9144,2.9389,2.9502,2.9547,2.9754,2.9826,2.9804,2.9798,2.9836,2.9864,2.9973,3.0098,3.0184,3.0227,3.0231,3.0274,3.0354,3.0438,3.0501,3.0584,3.0708,3.0733,3.0773,3.0851,3.0871,3.0851,3.0851,3.0851,3.0831,3.0851,3.0871,3.0912,3.0851,3.0708,3.0605,3.0506,3.0485,3.048,3.0443,3.0443,3.0443,3.0422,3.0401,3.038,3.0359,3.0333,3.0354,3.038,3.038,3.0438,3.0438,3.0443,3.0464,3.0485,3.0276,3.014,2.986,2.9264,2.8171,2.7437,2.7008,2.6507,2.6061,2.5768,2.5696,2.5659,2.5586,2.5511,2.5489,2.547,2.5429,2.5352,2.5278,2.5185,2.5127,2.5068,2.5025,2.4946,2.4866,2.4731,2.4645,2.4405,2.412,2.3846,2.8496,2.8275,2.7787,2.7597,2.7655,2.7665,2.773,2.7855,2.7831,2.7755,2.769,2.7781,2.788,2.7905,2.7955,2.8005,2.8044,2.8103,2.8143,2.8266,2.8314,2.8372,2.8541,2.8532,2.8628,2.8676,2.8747,2.8842,2.9045,2.9252,2.9389,2.9434,2.9621,2.9738,2.976,2.9979,3.0087,3.0081,3.0167,3.0162,3.0124,3.0146,3.0227,3.0333,3.0375,3.0443,3.0506,3.0589,3.0692,3.079,3.081,3.0851,3.0834,3.0875,3.0912,3.0912,3.0932,3.0932,3.0932,3.0932,3.0932,3.0912,3.0912,3.0912,3.0871,3.081,3.077,3.0749,3.0729,3.0708,3.0688,3.0671,3.0651,3.0609,3.0568,3.0506,3.0459,3.0506,3.0568,3.0626,3.0667,3.0688,3.0688,3.0692,3.0712,3.0716,3.0716,3.0566,3.0309,2.9503,2.8329,2.7775,2.7115,2.6651,2.6278,2.6051,2.6081,2.5893,2.577,2.5768,2.5749,2.5656,2.5565,2.553,2.5476,2.5416,2.5339,2.5278,2.5201,2.5162,2.5088,2.4989,2.489,2.4655,2.4349,2.8162,2.7969,2.7739,2.7755,2.788,2.789,2.793,2.8005,2.8143,2.8128,2.8054,2.8029,2.8054,2.8168,2.8192,2.8266,2.8314,2.8363,2.846,2.8572,2.8604,2.8652,2.8771,2.885,2.8897,2.892,2.9076,2.9199,2.9282,2.9493,2.9643,2.9687,2.9832,2.9979,3.0022,3.0172,3.0295,3.029,3.0459,3.0464,3.0401,3.038,3.0401,3.0485,3.0547,3.063,3.0712,3.0773,3.0814,3.0875,3.0912,3.0992,3.0995,3.1052,3.1069,3.1032,3.1032,3.1032,3.1032,3.1012,3.1012,3.1012,3.1012,3.1052,3.1069,3.0992,3.0932,3.0912,3.0851,3.081,3.081,3.081,3.081,3.077,3.077,3.0729,3.0708,3.0729,3.0749,3.077,3.081,3.081,3.081,3.081,3.0831,3.0831,3.0892,3.0912,3.0727,3.0613,2.9518,2.8683,2.8139,2.7493,2.702,2.677,2.6599,2.6379,2.6157,2.5968,2.5914,2.5842,2.5789,2.5772,2.5735,2.5677,2.5602,2.5562,2.5508,2.5457,2.54,2.5343,2.5227,2.5146,2.4875,2.8256,2.7871,2.7955,2.802,2.8029,2.8054,2.8094,2.8128,2.8363,2.8444,2.8436,2.8226,2.8275,2.8387,2.8484,2.8628,2.8708,2.8668,2.8755,2.8842,2.885,2.8944,2.8975,2.8982,2.9091,2.9229,2.9389,2.9457,2.9547,2.9754,2.9892,2.9919,3.0044,3.0227,3.0269,3.0354,3.0459,3.0501,3.0605,3.0692,3.0671,3.0609,3.0651,3.0692,3.0733,3.0794,3.0855,3.0895,3.0895,3.0955,3.0995,3.1055,3.1114,3.1151,3.1151,3.1151,3.1151,3.1151,3.1171,3.1151,3.1171,3.1171,3.119,3.119,3.119,3.1168,3.1092,3.1032,3.0972,3.0952,3.0952,3.0952,3.0932,3.0912,3.0912,3.0892,3.0892,3.0912,3.0912,3.0912,3.0932,3.0952,3.0952,3.0952,3.0952,3.0952,3.0932,3.0932,3.0918,3.0878,3.0348,2.9872,2.9499,2.8798,2.7943,2.7621,2.7413,2.7143,2.6919,2.6464,2.6094,2.6096,2.6079,2.6008,2.5972,2.5936,2.5881,2.586,2.5826,2.5738,2.568,2.5586,2.5513,2.5435,2.5323,2.8051,2.797,2.798,2.8054,2.8162,2.8275,2.8396,2.8517,2.8636,2.8723,2.8708,2.8748,2.8748,2.8723,2.8723,2.8818,2.8912,2.8928,2.8982,2.9045,2.9114,2.9229,2.9298,2.9282,2.9382,2.9525,2.9643,2.9722,2.9798,2.9979,3.0108,3.013,3.0274,3.0375,3.0396,3.0522,3.063,3.0688,3.0749,3.0834,3.0855,3.0831,3.0851,3.0871,3.0851,3.0912,3.0972,3.0975,3.1052,3.1112,3.1151,3.1154,3.1171,3.119,3.119,3.119,3.119,3.119,3.119,3.121,3.1193,3.1193,3.1213,3.123,3.123,3.123,3.119,3.119,3.1131,3.1131,3.1112,3.1112,3.1092,3.1012,3.0972,3.0952,3.0932,3.0972,3.0992,3.1032,3.1072,3.1092,3.1131,3.1131,3.1151,3.1151,3.1168,3.1148,3.1151,3.1117,3.1064,3.0827,3.0557,2.9768,2.8802,2.8567,2.8343,2.8057,2.7669,2.7145,2.6727,2.6448,2.638,2.6274,2.6222,2.6188,2.6169,2.6097,2.6025,2.5954,2.5897,2.5842,2.5789,2.5717,2.5642]}]]